Time,TemperatureF,DewpointF,PressureIn,WindDirection,WindDirectionDegrees,WindSpeedMPH,WindSpeedGustMPH,Humidity,HourlyPrecipIn,Conditions,Clouds,dailyrainin,SoftwareType,DateUTC
2013-04-21 00:00:00,34.3,21.9,30.16,SSE,147,4.0,10.0,60,0.00,,CLR,0.24,VWS V14.01,2013-04-21 05:00:00,
2013-04-21 00:01:00,34.3,22.3,30.16,SSE,149,6.0,8.0,61,0.00,,CLR,0.00,VWS V14.01,2013-04-21 05:01:00,
2013-04-21 00:02:00,34.4,22.4,30.16,SSE,150,8.0,8.0,61,0.00,,CLR,0.00,VWS V14.01,2013-04-21 05:02:00,
2013-04-21 00:03:00,34.4,22.4,30.16,SSE,149,3.0,8.0,61,0.00,,CLR,0.00,VWS V14.01,2013-04-21 05:03:00,
2013-04-21 00:04:00,34.6,22.9,30.16,SSE,149,5.0,8.0,62,0.00,,CLR,0.00,VWS V14.01,2013-04-21 05:04:00,
2013-04-21 00:05:00,34.7,23.0,30.16,SSE,149,4.0,8.0,62,0.00,,CLR,0.00,VWS V14.01,2013-04-21 05:05:00,
2013-04-21 00:06:00,34.7,23.0,30.16,SSE,153,5.0,10.0,62,0.00,,CLR,0.00,VWS V14.01,2013-04-21 05:06:00,
2013-04-21 00:07:00,34.7,23.0,30.16,SSE,150,6.0,10.0,62,0.00,,CLR,0.00,VWS V14.01,2013-04-21 05:07:00,
2013-04-21 00:08:00,34.9,23.2,30.16,SSE,150,6.0,10.0,62,0.00,,CLR,0.00,VWS V14.01,2013-04-21 05:08:00,
2013-04-21 00:09:00,34.9,23.2,30.16,SSE,149,6.0,10.0,62,0.00,,CLR,0.00,VWS V14.01,2013-04-21 05:09:00,
2013-04-21 00:10:00,34.9,23.2,30.16,SSE,149,4.0,10.0,62,0.00,,CLR,0.00,VWS V14.01,2013-04-21 05:10:00,
2013-04-21 00:11:00,34.9,23.6,30.16,SSE,149,5.0,10.0,63,0.00,,CLR,0.00,VWS V14.01,2013-04-21 05:11:00,
2013-04-21 00:12:00,34.9,23.6,30.16,SSE,149,6.0,10.0,63,0.00,,CLR,0.00,VWS V14.01,2013-04-21 05:12:00,
2013-04-21 00:13:00,34.9,23.6,30.16,SSE,149,3.0,10.0,63,0.00,,CLR,0.00,VWS V14.01,2013-04-21 05:13:00,
2013-04-21 00:14:00,34.9,24.0,30.16,SSE,149,3.0,10.0,64,0.00,,CLR,0.00,VWS V14.01,2013-04-21 05:14:00,
2013-04-21 00:15:00,34.9,24.0,30.15,SSE,149,2.0,10.0,64,0.00,,CLR,0.00,VWS V14.01,2013-04-21 05:15:00,
2013-04-21 00:16:00,34.9,24.0,30.15,SSE,149,7.0,10.0,64,0.00,,CLR,0.00,VWS V14.01,2013-04-21 05:16:00,
2013-04-21 00:17:00,34.9,24.0,30.15,SSE,149,6.0,10.0,64,0.00,,CLR,0.00,VWS V14.01,2013-04-21 05:17:00,
2013-04-21 00:18:00,34.7,23.8,30.15,SSE,149,2.0,10.0,64,0.00,,CLR,0.00,VWS V14.01,2013-04-21 05:18:00,
2013-04-21 00:19:00,34.9,24.3,30.15,SSE,149,6.0,10.0,65,0.00,,CLR,0.00,VWS V14.01,2013-04-21 05:19:00,
2013-04-21 00:20:00,34.9,24.3,30.15,SSE,149,4.0,10.0,65,0.00,,CLR,0.00,VWS V14.01,2013-04-21 05:20:00,
2013-04-21 00:21:00,34.9,24.7,30.15,SSE,149,2.0,10.0,66,0.00,,CLR,0.00,VWS V14.01,2013-04-21 05:21:00,
2013-04-21 00:22:00,34.9,24.7,30.15,SSE,149,4.0,10.0,66,0.00,,CLR,0.00,VWS V14.01,2013-04-21 05:22:00,
2013-04-21 00:23:00,34.9,24.7,30.15,SSE,149,5.0,10.0,66,0.00,,CLR,0.00,VWS V14.01,2013-04-21 05:23:00,
2013-04-21 00:24:00,34.9,25.1,30.15,SSE,149,2.0,10.0,67,0.00,,CLR,0.00,VWS V14.01,2013-04-21 05:24:00,
2013-04-21 00:25:00,34.9,25.1,30.15,SSE,149,2.0,10.0,67,0.00,,CLR,0.00,VWS V14.01,2013-04-21 05:25:00,
2013-04-21 00:26:00,34.9,25.1,30.15,SSE,149,5.0,10.0,67,0.00,,CLR,0.00,VWS V14.01,2013-04-21 05:26:00,
2013-04-21 00:27:00,34.9,25.1,30.15,SSE,149,5.0,10.0,67,0.00,,CLR,0.00,VWS V14.01,2013-04-21 05:27:00,
2013-04-21 00:28:00,34.9,25.4,30.15,SE,146,6.0,10.0,68,0.00,,CLR,0.00,VWS V14.01,2013-04-21 05:28:00,
2013-04-21 00:29:00,34.9,25.4,30.15,SE,146,6.0,10.0,68,0.00,,CLR,0.00,VWS V14.01,2013-04-21 05:29:00,
2013-04-21 00:30:00,35.0,25.5,30.14,SE,146,3.0,10.0,68,0.00,,CLR,0.00,VWS V14.01,2013-04-21 05:30:00,
2013-04-21 00:31:00,35.0,25.5,30.14,SE,146,7.0,7.0,68,0.00,,CLR,0.00,VWS V14.01,2013-04-21 05:31:00,
2013-04-21 00:32:00,35.0,25.5,30.14,SE,144,7.0,8.0,68,0.00,,CLR,0.00,VWS V14.01,2013-04-21 05:32:00,
2013-04-21 00:33:00,35.0,25.5,30.14,SE,144,5.0,8.0,68,0.00,,CLR,0.00,VWS V14.01,2013-04-21 05:33:00,
2013-04-21 00:34:00,35.0,25.5,30.14,SE,144,6.0,8.0,68,0.00,,CLR,0.00,VWS V14.01,2013-04-21 05:34:00,
2013-04-21 00:35:00,35.0,25.5,30.14,SE,144,5.0,8.0,68,0.00,,CLR,0.00,VWS V14.01,2013-04-21 05:35:00,
2013-04-21 00:36:00,35.0,25.5,30.14,SE,144,0.0,8.0,68,0.00,,CLR,0.00,VWS V14.01,2013-04-21 05:36:00,
2013-04-21 00:37:00,35.0,25.5,30.14,SE,144,3.0,8.0,68,0.00,,CLR,0.00,VWS V14.01,2013-04-21 05:37:00,
2013-04-21 00:38:00,35.0,25.5,30.14,SE,144,2.0,8.0,68,0.00,,CLR,0.00,VWS V14.01,2013-04-21 05:38:00,
2013-04-21 00:39:00,35.0,25.5,30.14,SE,144,4.0,8.0,68,0.00,,CLR,0.00,VWS V14.01,2013-04-21 05:39:00,
2013-04-21 00:40:00,35.0,25.5,30.14,SE,144,5.0,8.0,68,0.00,,CLR,0.00,VWS V14.01,2013-04-21 05:40:00,
2013-04-21 00:41:00,35.0,25.5,30.14,SE,144,3.0,8.0,68,0.00,,CLR,0.00,VWS V14.01,2013-04-21 05:41:00,
2013-04-21 00:42:00,35.0,25.5,30.14,SE,144,5.0,8.0,68,0.00,,CLR,0.00,VWS V14.01,2013-04-21 05:42:00,
2013-04-21 00:43:00,35.0,25.5,30.14,SE,144,2.0,8.0,68,0.00,,CLR,0.00,VWS V14.01,2013-04-21 05:43:00,
2013-04-21 00:44:00,35.0,25.5,30.14,SE,144,5.0,8.0,68,0.00,,CLR,0.00,VWS V14.01,2013-04-21 05:44:00,
2013-04-21 00:45:00,35.0,25.5,30.14,SE,144,5.0,8.0,68,0.00,,CLR,0.00,VWS V14.01,2013-04-21 05:45:00,
2013-04-21 00:46:00,35.0,25.5,30.14,SE,144,0.0,8.0,68,0.00,,CLR,0.00,VWS V14.01,2013-04-21 05:46:00,
2013-04-21 00:47:00,35.2,25.7,30.14,SE,144,2.0,8.0,68,0.00,,CLR,0.00,VWS V14.01,2013-04-21 05:47:00,
2013-04-21 00:48:00,35.2,25.7,30.14,SE,144,6.0,8.0,68,0.00,,CLR,0.00,VWS V14.01,2013-04-21 05:48:00,
2013-04-21 00:49:00,35.2,25.7,30.14,SE,144,6.0,8.0,68,0.00,,CLR,0.00,VWS V14.01,2013-04-21 05:49:00,
2013-04-21 00:50:00,35.2,25.7,30.14,SE,144,3.0,8.0,68,0.00,,CLR,0.00,VWS V14.01,2013-04-21 05:50:00,
2013-04-21 00:51:00,35.3,25.8,30.14,SE,144,7.0,8.0,68,0.00,,CLR,0.00,VWS V14.01,2013-04-21 05:51:00,
2013-04-21 00:52:00,35.3,25.8,30.14,SE,137,12.0,12.0,68,0.00,,CLR,0.00,VWS V14.01,2013-04-21 05:52:00,
2013-04-21 00:53:00,35.5,26.0,30.14,SE,134,6.0,14.0,68,0.00,,CLR,0.00,VWS V14.01,2013-04-21 05:53:00,
2013-04-21 00:54:00,35.5,25.6,30.14,SE,134,5.0,14.0,67,0.00,,CLR,0.00,VWS V14.01,2013-04-21 05:54:00,
2013-04-21 00:55:00,35.5,26.0,30.14,SE,134,4.0,14.0,68,0.00,,CLR,0.00,VWS V14.01,2013-04-21 05:55:00,
2013-04-21 00:56:00,35.6,26.1,30.14,SE,134,3.0,14.0,68,0.00,,CLR,0.00,VWS V14.01,2013-04-21 05:56:00,
2013-04-21 00:57:00,35.6,26.1,30.14,SE,134,5.0,14.0,68,0.00,,CLR,0.00,VWS V14.01,2013-04-21 05:57:00,
2013-04-21 00:58:00,35.6,26.1,30.14,SE,134,6.0,14.0,68,0.00,,CLR,0.00,VWS V14.01,2013-04-21 05:58:00,
2013-04-21 00:59:00,35.6,26.1,30.14,SE,134,4.0,14.0,68,0.00,,CLR,0.00,VWS V14.01,2013-04-21 05:59:00,
2013-04-21 01:00:00,35.6,26.1,30.14,SE,134,3.0,14.0,68,0.00,,CLR,0.00,VWS V14.01,2013-04-21 06:00:00,
2013-04-21 01:01:00,35.6,26.1,30.14,SE,134,4.0,6.0,68,0.00,,CLR,0.00,VWS V14.01,2013-04-21 06:01:00,
2013-04-21 01:02:00,35.6,26.1,30.14,SE,134,6.0,6.0,68,0.00,,CLR,0.00,VWS V14.01,2013-04-21 06:02:00,
2013-04-21 01:03:00,35.6,26.5,30.14,SE,136,4.0,6.0,69,0.00,,CLR,0.00,VWS V14.01,2013-04-21 06:03:00,
2013-04-21 01:04:00,35.6,26.5,30.14,SE,136,6.0,6.0,69,0.00,,CLR,0.00,VWS V14.01,2013-04-21 06:04:00,
2013-04-21 01:05:00,35.6,26.5,30.14,SE,136,1.0,6.0,69,0.00,,CLR,0.00,VWS V14.01,2013-04-21 06:05:00,
2013-04-21 01:06:00,35.6,26.5,30.14,SE,136,3.0,6.0,69,0.00,,CLR,0.00,VWS V14.01,2013-04-21 06:06:00,
2013-04-21 01:07:00,35.6,26.5,30.14,SE,136,2.0,6.0,69,0.00,,CLR,0.00,VWS V14.01,2013-04-21 06:07:00,
2013-04-21 01:08:00,35.6,26.5,30.14,SE,136,3.0,6.0,69,0.00,,CLR,0.00,VWS V14.01,2013-04-21 06:08:00,
2013-04-21 01:09:00,35.6,26.5,30.14,SE,136,1.0,6.0,69,0.00,,CLR,0.00,VWS V14.01,2013-04-21 06:09:00,
2013-04-21 01:10:00,35.6,26.1,30.14,SSE,147,6.0,11.0,68,0.00,,CLR,0.00,VWS V14.01,2013-04-21 06:10:00,
2013-04-21 01:11:00,35.6,26.1,30.14,SE,139,6.0,11.0,68,0.00,,CLR,0.00,VWS V14.01,2013-04-21 06:11:00,
2013-04-21 01:12:00,35.6,26.1,30.14,SE,125,8.0,13.0,68,0.00,,CLR,0.00,VWS V14.01,2013-04-21 06:12:00,
2013-04-21 01:13:00,35.8,26.6,30.14,WSW,247,7.0,13.0,69,0.00,,CLR,0.00,VWS V14.01,2013-04-21 06:13:00,
2013-04-21 01:14:00,35.8,26.6,30.14,SSW,206,7.0,13.0,69,0.00,,CLR,0.00,VWS V14.01,2013-04-21 06:14:00,
2013-04-21 01:15:00,35.8,27.0,30.14,SE,126,6.0,13.0,70,0.00,,CLR,0.00,VWS V14.01,2013-04-21 06:15:00,
2013-04-21 01:16:00,35.8,27.3,30.14,SSW,194,7.0,13.0,71,0.00,,CLR,0.00,VWS V14.01,2013-04-21 06:16:00,
2013-04-21 01:17:00,35.8,27.3,30.14,South,171,6.0,13.0,71,0.00,,CLR,0.00,VWS V14.01,2013-04-21 06:17:00,
2013-04-21 01:18:00,35.8,27.7,30.14,SSE,151,5.0,13.0,72,0.00,,CLR,0.00,VWS V14.01,2013-04-21 06:18:00,
2013-04-21 01:19:00,35.8,28.0,30.14,SSE,156,8.0,16.0,73,0.00,,CLR,0.00,VWS V14.01,2013-04-21 06:19:00,
2013-04-21 01:20:00,35.8,28.0,30.14,SE,129,7.0,16.0,73,0.00,,CLR,0.00,VWS V14.01,2013-04-21 06:20:00,
2013-04-21 01:21:00,35.6,27.8,30.14,South,174,6.0,18.0,73,0.00,,CLR,0.00,VWS V14.01,2013-04-21 06:21:00,
2013-04-21 01:22:00,35.6,28.1,30.14,WSW,246,1.0,18.0,74,0.00,,CLR,0.00,VWS V14.01,2013-04-21 06:22:00,
2013-04-21 01:23:00,35.6,28.1,30.14,SSE,151,5.0,18.0,74,0.00,,CLR,0.00,VWS V14.01,2013-04-21 06:23:00,
2013-04-21 01:24:00,35.6,28.1,30.14,SSW,201,2.0,18.0,74,0.00,,CLR,0.00,VWS V14.01,2013-04-21 06:24:00,
2013-04-21 01:25:00,35.6,28.1,30.14,South,184,5.0,18.0,74,0.00,,CLR,0.00,VWS V14.01,2013-04-21 06:25:00,
2013-04-21 01:26:00,35.6,28.1,30.14,WSW,239,7.0,18.0,74,0.00,,CLR,0.00,VWS V14.01,2013-04-21 06:26:00,
2013-04-21 01:27:00,35.5,28.4,30.14,SSE,164,1.0,18.0,75,0.00,,CLR,0.00,VWS V14.01,2013-04-21 06:27:00,
2013-04-21 01:28:00,35.5,28.7,30.14,SSE,161,0.0,18.0,76,0.00,,CLR,0.00,VWS V14.01,2013-04-21 06:28:00,
2013-04-21 01:29:00,35.5,28.7,30.14,SSE,161,3.0,18.0,76,0.00,,CLR,0.00,VWS V14.01,2013-04-21 06:29:00,
2013-04-21 01:30:00,35.3,28.8,30.14,SE,140,3.0,18.0,77,0.00,,CLR,0.00,VWS V14.01,2013-04-21 06:30:00,
2013-04-21 01:31:00,35.3,28.8,30.14,SE,140,2.0,5.0,77,0.00,,CLR,0.00,VWS V14.01,2013-04-21 06:31:00,
2013-04-21 01:32:00,35.2,29.0,30.14,SE,140,2.0,5.0,78,0.00,,CLR,0.00,VWS V14.01,2013-04-21 06:32:00,
2013-04-21 01:33:00,35.2,29.0,30.14,SE,136,3.0,5.0,78,0.00,,CLR,0.00,VWS V14.01,2013-04-21 06:33:00,
2013-04-21 01:34:00,35.0,29.2,30.14,SE,136,5.0,5.0,79,0.00,,CLR,0.00,VWS V14.01,2013-04-21 06:34:00,
2013-04-21 01:35:00,35.0,29.2,30.14,SE,136,4.0,5.0,79,0.00,,CLR,0.00,VWS V14.01,2013-04-21 06:35:00,
2013-04-21 01:36:00,35.0,29.2,30.14,SE,136,7.0,7.0,79,0.00,,CLR,0.00,VWS V14.01,2013-04-21 06:36:00,
2013-04-21 01:37:00,34.9,29.1,30.14,SE,130,5.0,7.0,79,0.00,,CLR,0.00,VWS V14.01,2013-04-21 06:37:00,
2013-04-21 01:38:00,34.9,29.4,30.14,SE,130,5.0,7.0,80,0.00,,CLR,0.00,VWS V14.01,2013-04-21 06:38:00,
2013-04-21 01:39:00,34.9,29.4,30.14,SE,130,0.0,7.0,80,0.00,,CLR,0.00,VWS V14.01,2013-04-21 06:39:00,
2013-04-21 01:40:00,34.7,29.5,30.14,ESE,120,4.0,9.0,81,0.00,,CLR,0.00,VWS V14.01,2013-04-21 06:40:00,
2013-04-21 01:41:00,34.7,29.5,30.14,ESE,120,0.0,9.0,81,0.00,,CLR,0.00,VWS V14.01,2013-04-21 06:41:00,
2013-04-21 01:42:00,34.7,29.5,30.14,SE,139,5.0,9.0,81,0.00,,CLR,0.00,VWS V14.01,2013-04-21 06:42:00,
2013-04-21 01:43:00,34.7,29.8,30.14,SE,126,10.0,10.0,82,0.00,,CLR,0.00,VWS V14.01,2013-04-21 06:43:00,
2013-04-21 01:44:00,34.6,29.7,30.14,SE,143,7.0,10.0,82,0.00,,CLR,0.00,VWS V14.01,2013-04-21 06:44:00,
2013-04-21 01:45:00,34.6,29.7,30.14,SE,133,8.0,11.0,82,0.00,,CLR,0.00,VWS V14.01,2013-04-21 06:45:00,
2013-04-21 01:46:00,34.6,30.0,30.14,SSE,147,5.0,11.0,83,0.00,,CLR,0.00,VWS V14.01,2013-04-21 06:46:00,
2013-04-21 01:47:00,34.6,30.0,30.14,ESE,110,10.0,11.0,83,0.00,,CLR,0.00,VWS V14.01,2013-04-21 06:47:00,
2013-04-21 01:48:00,34.6,30.0,30.14,ESE,122,5.0,11.0,83,0.00,,CLR,0.00,VWS V14.01,2013-04-21 06:48:00,
2013-04-21 01:49:00,34.4,29.8,30.14,SE,134,6.0,11.0,83,0.00,,CLR,0.00,VWS V14.01,2013-04-21 06:49:00,
2013-04-21 01:50:00,34.4,29.8,30.14,SE,127,7.0,11.0,83,0.00,,CLR,0.00,VWS V14.01,2013-04-21 06:50:00,
2013-04-21 01:51:00,34.4,30.1,30.14,SE,126,5.0,11.0,84,0.00,,CLR,0.00,VWS V14.01,2013-04-21 06:51:00,
2013-04-21 01:52:00,34.4,30.1,30.14,SE,126,3.0,11.0,84,0.00,,CLR,0.00,VWS V14.01,2013-04-21 06:52:00,
2013-04-21 01:53:00,34.4,30.1,30.14,SE,129,6.0,11.0,84,0.00,,CLR,0.00,VWS V14.01,2013-04-21 06:53:00,
2013-04-21 01:54:00,34.3,30.0,30.14,SE,127,3.0,11.0,84,0.00,,CLR,0.00,VWS V14.01,2013-04-21 06:54:00,
2013-04-21 01:55:00,34.3,30.3,30.14,SE,143,8.0,11.0,85,0.00,,CLR,0.00,VWS V14.01,2013-04-21 06:55:00,
2013-04-21 01:56:00,34.3,30.3,30.14,SE,134,7.0,11.0,85,0.00,,CLR,0.00,VWS V14.01,2013-04-21 06:56:00,
2013-04-21 01:57:00,34.1,30.4,30.14,SE,132,7.0,11.0,86,0.00,,CLR,0.00,VWS V14.01,2013-04-21 06:57:00,
2013-04-21 01:58:00,34.1,30.4,30.14,SE,130,5.0,11.0,86,0.00,,CLR,0.00,VWS V14.01,2013-04-21 06:58:00,
2013-04-21 01:59:00,34.1,30.4,30.14,SE,130,3.0,11.0,86,0.00,,CLR,0.00,VWS V14.01,2013-04-21 06:59:00,
2013-04-21 02:00:00,34.1,30.4,30.14,SE,130,5.0,11.0,86,0.00,,CLR,0.00,VWS V14.01,2013-04-21 07:00:00,
2013-04-21 02:01:00,34.0,30.5,30.14,SE,130,2.0,5.0,87,0.00,,CLR,0.00,VWS V14.01,2013-04-21 07:01:00,
2013-04-21 02:02:00,34.0,30.5,30.14,SE,130,5.0,5.0,87,0.00,,CLR,0.00,VWS V14.01,2013-04-21 07:02:00,
2013-04-21 02:03:00,34.0,30.5,30.14,SE,130,3.0,5.0,87,0.00,,CLR,0.00,VWS V14.01,2013-04-21 07:03:00,
2013-04-21 02:04:00,34.0,30.5,30.14,SE,129,3.0,6.0,87,0.00,,CLR,0.00,VWS V14.01,2013-04-21 07:04:00,
2013-04-21 02:05:00,34.0,30.5,30.14,SE,129,4.0,6.0,87,0.00,,CLR,0.00,VWS V14.01,2013-04-21 07:05:00,
2013-04-21 02:06:00,33.8,30.4,30.14,SE,129,3.0,6.0,87,0.00,,CLR,0.00,VWS V14.01,2013-04-21 07:06:00,
2013-04-21 02:07:00,33.8,30.6,30.14,SE,129,5.0,6.0,88,0.00,,CLR,0.00,VWS V14.01,2013-04-21 07:07:00,
2013-04-21 02:08:00,33.8,30.6,30.14,SE,129,2.0,6.0,88,0.00,,CLR,0.00,VWS V14.01,2013-04-21 07:08:00,
2013-04-21 02:09:00,33.8,30.6,30.14,SE,129,1.0,6.0,88,0.00,,CLR,0.00,VWS V14.01,2013-04-21 07:09:00,
2013-04-21 02:10:00,33.8,30.6,30.14,SE,129,3.0,6.0,88,0.00,,CLR,0.00,VWS V14.01,2013-04-21 07:10:00,
2013-04-21 02:11:00,33.7,30.5,30.14,SE,129,1.0,6.0,88,0.00,,CLR,0.00,VWS V14.01,2013-04-21 07:11:00,
2013-04-21 02:12:00,33.7,30.8,30.14,SE,129,3.0,6.0,89,0.00,,CLR,0.00,VWS V14.01,2013-04-21 07:12:00,
2013-04-21 02:13:00,33.7,30.8,30.14,SE,129,3.0,6.0,89,0.00,,CLR,0.00,VWS V14.01,2013-04-21 07:13:00,
2013-04-21 02:14:00,33.7,30.8,30.14,SE,129,3.0,6.0,89,0.00,,CLR,0.00,VWS V14.01,2013-04-21 07:14:00,
2013-04-21 02:15:00,33.5,30.6,30.13,SE,129,5.0,6.0,89,0.00,,CLR,0.00,VWS V14.01,2013-04-21 07:15:00,
2013-04-21 02:16:00,33.5,30.6,30.13,SE,129,3.0,6.0,89,0.00,,CLR,0.00,VWS V14.01,2013-04-21 07:16:00,
2013-04-21 02:17:00,33.5,30.9,30.13,SE,127,1.0,6.0,90,0.00,,CLR,0.00,VWS V14.01,2013-04-21 07:17:00,
2013-04-21 02:18:00,33.5,30.9,30.13,SE,127,2.0,6.0,90,0.00,,CLR,0.00,VWS V14.01,2013-04-21 07:18:00,
2013-04-21 02:19:00,33.5,30.9,30.13,SE,127,2.0,6.0,90,0.00,,CLR,0.00,VWS V14.01,2013-04-21 07:19:00,
2013-04-21 02:20:00,33.4,30.8,30.13,SE,127,5.0,6.0,90,0.00,,CLR,0.00,VWS V14.01,2013-04-21 07:20:00,
2013-04-21 02:21:00,33.4,30.8,30.13,SE,125,5.0,6.0,90,0.00,,CLR,0.00,VWS V14.01,2013-04-21 07:21:00,
2013-04-21 02:22:00,33.4,31.1,30.13,SE,125,5.0,6.0,91,0.00,,CLR,0.00,VWS V14.01,2013-04-21 07:22:00,
2013-04-21 02:23:00,33.2,30.9,30.13,SE,125,3.0,6.0,91,0.00,,CLR,0.00,VWS V14.01,2013-04-21 07:23:00,
2013-04-21 02:24:00,33.2,30.9,30.13,SE,125,3.0,6.0,91,0.00,,CLR,0.00,VWS V14.01,2013-04-21 07:24:00,
2013-04-21 02:25:00,33.2,30.9,30.13,SE,125,4.0,6.0,91,0.00,,CLR,0.00,VWS V14.01,2013-04-21 07:25:00,
2013-04-21 02:26:00,33.2,30.9,30.13,ESE,122,6.0,7.0,91,0.00,,CLR,0.00,VWS V14.01,2013-04-21 07:26:00,
2013-04-21 02:27:00,33.1,31.0,30.13,ESE,122,7.0,7.0,92,0.00,,CLR,0.00,VWS V14.01,2013-04-21 07:27:00,
2013-04-21 02:28:00,33.1,31.0,30.13,ESE,122,5.0,7.0,92,0.00,,CLR,0.00,VWS V14.01,2013-04-21 07:28:00,
2013-04-21 02:29:00,33.1,31.0,30.13,ESE,122,5.0,7.0,92,0.00,,CLR,0.00,VWS V14.01,2013-04-21 07:29:00,
2013-04-21 02:30:00,33.1,31.0,30.13,ESE,122,2.0,7.0,92,0.00,,CLR,0.00,VWS V14.01,2013-04-21 07:30:00,
2013-04-21 02:31:00,33.1,31.0,30.13,ESE,122,3.0,5.0,92,0.00,,CLR,0.00,VWS V14.01,2013-04-21 07:31:00,
2013-04-21 02:32:00,33.1,31.0,30.13,ESE,122,6.0,6.0,92,0.00,,CLR,0.00,VWS V14.01,2013-04-21 07:32:00,
2013-04-21 02:33:00,33.1,31.0,30.13,ESE,122,7.0,7.0,92,0.00,,CLR,0.00,VWS V14.01,2013-04-21 07:33:00,
2013-04-21 02:34:00,33.1,31.0,30.13,ESE,122,5.0,7.0,92,0.00,,CLR,0.00,VWS V14.01,2013-04-21 07:34:00,
2013-04-21 02:35:00,33.1,31.0,30.13,ESE,122,6.0,7.0,92,0.00,,CLR,0.00,VWS V14.01,2013-04-21 07:35:00,
2013-04-21 02:36:00,33.1,31.3,30.13,ESE,122,6.0,8.0,93,0.00,,CLR,0.00,VWS V14.01,2013-04-21 07:36:00,
2013-04-21 02:37:00,32.9,31.1,30.13,ESE,120,7.0,8.0,93,0.00,,CLR,0.00,VWS V14.01,2013-04-21 07:37:00,
2013-04-21 02:38:00,32.9,31.1,30.13,ESE,120,7.0,8.0,93,0.00,,CLR,0.00,VWS V14.01,2013-04-21 07:38:00,
2013-04-21 02:39:00,32.9,31.1,30.13,ESE,120,6.0,8.0,93,0.00,,CLR,0.00,VWS V14.01,2013-04-21 07:39:00,
2013-04-21 02:40:00,32.9,31.1,30.13,ESE,119,7.0,8.0,93,0.00,,CLR,0.00,VWS V14.01,2013-04-21 07:40:00,
2013-04-21 02:41:00,32.9,31.1,30.13,ESE,118,7.0,11.0,93,0.00,,CLR,0.00,VWS V14.01,2013-04-21 07:41:00,
2013-04-21 02:42:00,32.9,31.4,30.13,ESE,116,7.0,11.0,94,0.00,,CLR,0.00,VWS V14.01,2013-04-21 07:42:00,
2013-04-21 02:43:00,32.9,31.4,30.13,ESE,116,7.0,11.0,94,0.00,,CLR,0.00,VWS V14.01,2013-04-21 07:43:00,
2013-04-21 02:44:00,32.9,31.4,30.13,ESE,116,6.0,11.0,94,0.00,,CLR,0.00,VWS V14.01,2013-04-21 07:44:00,
2013-04-21 02:45:00,32.9,31.4,30.12,ESE,116,8.0,11.0,94,0.00,,CLR,0.00,VWS V14.01,2013-04-21 07:45:00,
2013-04-21 02:46:00,32.9,31.4,30.12,ESE,116,7.0,11.0,94,0.00,,CLR,0.00,VWS V14.01,2013-04-21 07:46:00,
2013-04-21 02:47:00,32.9,31.4,30.12,ESE,116,7.0,11.0,94,0.00,,CLR,0.00,VWS V14.01,2013-04-21 07:47:00,
2013-04-21 02:48:00,32.9,31.4,30.12,ESE,116,6.0,11.0,94,0.00,,CLR,0.00,VWS V14.01,2013-04-21 07:48:00,
2013-04-21 02:49:00,32.9,31.4,30.12,ESE,118,10.0,11.0,94,0.00,,CLR,0.00,VWS V14.01,2013-04-21 07:49:00,
2013-04-21 02:50:00,32.9,31.4,30.12,ESE,110,8.0,11.0,94,0.00,,CLR,0.00,VWS V14.01,2013-04-21 07:50:00,
2013-04-21 02:51:00,32.9,31.6,30.12,ESE,112,8.0,11.0,95,0.00,,CLR,0.00,VWS V14.01,2013-04-21 07:51:00,
2013-04-21 02:52:00,32.9,31.6,30.12,ESE,112,10.0,11.0,95,0.00,,CLR,0.00,VWS V14.01,2013-04-21 07:52:00,
2013-04-21 02:53:00,32.9,31.6,30.12,ESE,113,8.0,11.0,95,0.00,,CLR,0.00,VWS V14.01,2013-04-21 07:53:00,
2013-04-21 02:54:00,32.9,31.6,30.12,ESE,113,8.0,11.0,95,0.00,,CLR,0.00,VWS V14.01,2013-04-21 07:54:00,
2013-04-21 02:55:00,32.9,31.6,30.12,ESE,115,7.0,11.0,95,0.00,,CLR,0.00,VWS V14.01,2013-04-21 07:55:00,
2013-04-21 02:56:00,32.9,31.6,30.12,ESE,115,10.0,11.0,95,0.00,,CLR,0.00,VWS V14.01,2013-04-21 07:56:00,
2013-04-21 02:57:00,32.9,31.6,30.12,ESE,115,11.0,11.0,95,0.00,,CLR,0.00,VWS V14.01,2013-04-21 07:57:00,
2013-04-21 02:58:00,32.9,31.6,30.12,ESE,115,7.0,11.0,95,0.00,,CLR,0.00,VWS V14.01,2013-04-21 07:58:00,
2013-04-21 02:59:00,32.9,31.6,30.12,ESE,115,7.0,11.0,95,0.00,,CLR,0.00,VWS V14.01,2013-04-21 07:59:00,
2013-04-21 03:00:00,32.9,31.6,30.11,ESE,110,8.0,11.0,95,0.00,,CLR,0.00,VWS V14.01,2013-04-21 08:00:00,
2013-04-21 03:01:00,32.9,31.6,30.11,ESE,120,11.0,11.0,95,0.00,,CLR,0.00,VWS V14.01,2013-04-21 08:01:00,
2013-04-21 03:02:00,32.9,31.6,30.11,ESE,120,9.0,11.0,95,0.00,,CLR,0.00,VWS V14.01,2013-04-21 08:02:00,
2013-04-21 03:03:00,32.9,31.6,30.11,ESE,118,10.0,11.0,95,0.00,,CLR,0.00,VWS V14.01,2013-04-21 08:03:00,
2013-04-21 03:04:00,32.9,31.9,30.11,ESE,109,9.0,11.0,96,0.00,,CLR,0.00,VWS V14.01,2013-04-21 08:04:00,
2013-04-21 03:05:00,32.9,31.9,30.11,ESE,116,7.0,12.0,96,0.00,,CLR,0.00,VWS V14.01,2013-04-21 08:05:00,
2013-04-21 03:06:00,32.9,31.9,30.11,ESE,120,10.0,12.0,96,0.00,,CLR,0.00,VWS V14.01,2013-04-21 08:06:00,
2013-04-21 03:07:00,32.9,31.9,30.11,ESE,120,10.0,12.0,96,0.00,,CLR,0.00,VWS V14.01,2013-04-21 08:07:00,
2013-04-21 03:08:00,32.9,31.9,30.11,ESE,120,8.0,12.0,96,0.00,,CLR,0.00,VWS V14.01,2013-04-21 08:08:00,
2013-04-21 03:09:00,32.9,31.9,30.11,ESE,118,12.0,12.0,96,0.00,,CLR,0.00,VWS V14.01,2013-04-21 08:09:00,
2013-04-21 03:10:00,32.9,31.9,30.11,ESE,116,9.0,13.0,96,0.00,,CLR,0.00,VWS V14.01,2013-04-21 08:10:00,
2013-04-21 03:11:00,32.9,31.9,30.11,ESE,122,12.0,13.0,96,0.00,,CLR,0.00,VWS V14.01,2013-04-21 08:11:00,
2013-04-21 03:12:00,33.1,32.1,30.11,ESE,120,12.0,16.0,96,0.00,,CLR,0.00,VWS V14.01,2013-04-21 08:12:00,
2013-04-21 03:13:00,33.1,32.1,30.11,ESE,113,10.0,16.0,96,0.00,,CLR,0.00,VWS V14.01,2013-04-21 08:13:00,
2013-04-21 03:14:00,33.1,32.1,30.11,ESE,120,12.0,16.0,96,0.00,,CLR,0.00,VWS V14.01,2013-04-21 08:14:00,
2013-04-21 03:15:00,33.1,32.1,30.11,ESE,113,8.0,16.0,96,0.00,,CLR,0.00,VWS V14.01,2013-04-21 08:15:00,
2013-04-21 03:16:00,33.1,32.1,30.11,ESE,116,8.0,16.0,96,0.00,,CLR,0.00,VWS V14.01,2013-04-21 08:16:00,
2013-04-21 03:17:00,33.1,32.1,30.11,ESE,112,16.0,16.0,96,0.00,,CLR,0.00,VWS V14.01,2013-04-21 08:17:00,
2013-04-21 03:18:00,33.1,32.1,30.11,ESE,112,11.0,16.0,96,0.00,,CLR,0.00,VWS V14.01,2013-04-21 08:18:00,
2013-04-21 03:19:00,33.2,32.2,30.11,ESE,115,10.0,16.0,96,0.00,,CLR,0.00,VWS V14.01,2013-04-21 08:19:00,
2013-04-21 03:20:00,33.2,32.2,30.11,ESE,119,10.0,16.0,96,0.00,,CLR,0.00,VWS V14.01,2013-04-21 08:20:00,
2013-04-21 03:21:00,33.2,32.2,30.11,ESE,115,14.0,16.0,96,0.00,,CLR,0.00,VWS V14.01,2013-04-21 08:21:00,
2013-04-21 03:22:00,33.2,32.2,30.11,ESE,118,10.0,16.0,96,0.00,,CLR,0.00,VWS V14.01,2013-04-21 08:22:00,
2013-04-21 03:23:00,33.2,32.2,30.11,ESE,113,10.0,16.0,96,0.00,,CLR,0.00,VWS V14.01,2013-04-21 08:23:00,
2013-04-21 03:24:00,33.2,32.2,30.11,ESE,116,12.0,16.0,96,0.00,,CLR,0.00,VWS V14.01,2013-04-21 08:24:00,
2013-04-21 03:25:00,33.2,32.2,30.11,ESE,115,11.0,16.0,96,0.00,,CLR,0.00,VWS V14.01,2013-04-21 08:25:00,
2013-04-21 03:26:00,33.2,32.2,30.11,ESE,112,10.0,16.0,96,0.00,,CLR,0.00,VWS V14.01,2013-04-21 08:26:00,
2013-04-21 03:27:00,33.2,32.2,30.11,ESE,112,10.0,16.0,96,0.00,,CLR,0.00,VWS V14.01,2013-04-21 08:27:00,
2013-04-21 03:28:00,33.2,32.2,30.11,ESE,113,8.0,16.0,96,0.00,,CLR,0.00,VWS V14.01,2013-04-21 08:28:00,
2013-04-21 03:29:00,33.2,32.2,30.11,ESE,113,12.0,16.0,96,0.00,,CLR,0.00,VWS V14.01,2013-04-21 08:29:00,
2013-04-21 03:30:00,33.2,32.2,30.10,ESE,120,15.0,16.0,96,0.00,,CLR,0.00,VWS V14.01,2013-04-21 08:30:00,
2013-04-21 03:31:00,33.2,32.2,30.10,ESE,122,12.0,15.0,96,0.00,,CLR,0.00,VWS V14.01,2013-04-21 08:31:00,
2013-04-21 03:32:00,33.2,32.2,30.10,ESE,115,17.0,17.0,96,0.00,,CLR,0.00,VWS V14.01,2013-04-21 08:32:00,
2013-04-21 03:33:00,33.2,32.2,30.10,ESE,108,13.0,18.0,96,0.00,,CLR,0.00,VWS V14.01,2013-04-21 08:33:00,
2013-04-21 03:34:00,33.2,32.2,30.10,ESE,119,11.0,18.0,96,0.00,,CLR,0.00,VWS V14.01,2013-04-21 08:34:00,
2013-04-21 03:35:00,33.4,32.4,30.10,ESE,118,14.0,18.0,96,0.00,,CLR,0.00,VWS V14.01,2013-04-21 08:35:00,
2013-04-21 03:36:00,33.2,32.2,30.10,ESE,118,10.0,18.0,96,0.00,,CLR,0.00,VWS V14.01,2013-04-21 08:36:00,
2013-04-21 03:37:00,33.2,32.2,30.10,ESE,116,10.0,18.0,96,0.00,,CLR,0.00,VWS V14.01,2013-04-21 08:37:00,
2013-04-21 03:38:00,33.2,32.2,30.10,ESE,120,12.0,18.0,96,0.00,,CLR,0.00,VWS V14.01,2013-04-21 08:38:00,
2013-04-21 03:39:00,33.4,32.4,30.10,ESE,116,14.0,18.0,96,0.00,,CLR,0.00,VWS V14.01,2013-04-21 08:39:00,
2013-04-21 03:40:00,33.2,32.2,30.10,ESE,120,12.0,18.0,96,0.00,,CLR,0.00,VWS V14.01,2013-04-21 08:40:00,
2013-04-21 03:41:00,33.4,32.4,30.10,ESE,115,16.0,18.0,96,0.00,,CLR,0.00,VWS V14.01,2013-04-21 08:41:00,
2013-04-21 03:42:00,33.4,32.4,30.10,ESE,113,13.0,18.0,96,0.00,,CLR,0.00,VWS V14.01,2013-04-21 08:42:00,
2013-04-21 03:43:00,33.4,32.4,30.10,ESE,119,12.0,18.0,96,0.00,,CLR,0.00,VWS V14.01,2013-04-21 08:43:00,
2013-04-21 03:44:00,33.4,32.4,30.10,ESE,119,13.0,18.0,96,0.00,,CLR,0.00,VWS V14.01,2013-04-21 08:44:00,
2013-04-21 03:45:00,33.4,32.4,30.10,ESE,118,12.0,18.0,96,0.00,,CLR,0.00,VWS V14.01,2013-04-21 08:45:00,
2013-04-21 03:46:00,33.4,32.4,30.10,ESE,118,10.0,18.0,96,0.00,,CLR,0.00,VWS V14.01,2013-04-21 08:46:00,
2013-04-21 03:47:00,33.4,32.4,30.10,ESE,119,14.0,18.0,96,0.00,,CLR,0.00,VWS V14.01,2013-04-21 08:47:00,
2013-04-21 03:48:00,33.4,32.4,30.10,ESE,112,14.0,18.0,96,0.00,,CLR,0.00,VWS V14.01,2013-04-21 08:48:00,
2013-04-21 03:49:00,33.4,32.4,30.10,ESE,109,8.0,18.0,96,0.00,,CLR,0.00,VWS V14.01,2013-04-21 08:49:00,
2013-04-21 03:50:00,33.4,32.4,30.10,ESE,113,10.0,18.0,96,0.00,,CLR,0.00,VWS V14.01,2013-04-21 08:50:00,
2013-04-21 03:51:00,33.4,32.4,30.10,ESE,120,15.0,18.0,96,0.00,,CLR,0.00,VWS V14.01,2013-04-21 08:51:00,
2013-04-21 03:52:00,33.4,32.4,30.10,ESE,118,16.0,18.0,96,0.00,,CLR,0.00,VWS V14.01,2013-04-21 08:52:00,
2013-04-21 03:53:00,33.4,32.4,30.10,ESE,118,14.0,18.0,96,0.00,,CLR,0.00,VWS V14.01,2013-04-21 08:53:00,
2013-04-21 03:54:00,33.4,32.4,30.10,ESE,115,10.0,18.0,96,0.00,,CLR,0.00,VWS V14.01,2013-04-21 08:54:00,
2013-04-21 03:55:00,33.4,32.4,30.10,ESE,115,11.0,18.0,96,0.00,,CLR,0.00,VWS V14.01,2013-04-21 08:55:00,
2013-04-21 03:56:00,33.4,32.1,30.10,ESE,116,16.0,18.0,95,0.00,,CLR,0.00,VWS V14.01,2013-04-21 08:56:00,
2013-04-21 03:57:00,33.4,32.1,30.10,ESE,112,12.0,18.0,95,0.00,,CLR,0.00,VWS V14.01,2013-04-21 08:57:00,
2013-04-21 03:58:00,33.5,32.2,30.10,ESE,118,11.0,18.0,95,0.00,,CLR,0.00,VWS V14.01,2013-04-21 08:58:00,
2013-04-21 03:59:00,33.5,32.2,30.10,ESE,116,10.0,18.0,95,0.00,,CLR,0.00,VWS V14.01,2013-04-21 08:59:00,
2013-04-21 04:00:00,33.4,32.1,30.10,ESE,119,13.0,18.0,95,0.00,,CLR,0.00,VWS V14.01,2013-04-21 09:00:00,
2013-04-21 04:01:00,33.4,32.4,30.10,ESE,116,13.0,17.0,96,0.00,,CLR,0.00,VWS V14.01,2013-04-21 09:01:00,
2013-04-21 04:02:00,33.5,32.5,30.10,ESE,120,13.0,17.0,96,0.00,,CLR,0.00,VWS V14.01,2013-04-21 09:02:00,
2013-04-21 04:03:00,33.4,32.4,30.10,ESE,116,8.0,17.0,96,0.00,,CLR,0.00,VWS V14.01,2013-04-21 09:03:00,
2013-04-21 04:04:00,33.5,32.2,30.10,ESE,116,10.0,17.0,95,0.00,,CLR,0.00,VWS V14.01,2013-04-21 09:04:00,
2013-04-21 04:05:00,33.4,32.1,30.10,ESE,115,12.0,17.0,95,0.00,,CLR,0.00,VWS V14.01,2013-04-21 09:05:00,
2013-04-21 04:06:00,33.4,32.4,30.10,ESE,120,14.0,17.0,96,0.00,,CLR,0.00,VWS V14.01,2013-04-21 09:06:00,
2013-04-21 04:07:00,33.5,32.5,30.10,ESE,120,13.0,17.0,96,0.00,,CLR,0.00,VWS V14.01,2013-04-21 09:07:00,
2013-04-21 04:08:00,33.5,32.5,30.10,SE,129,12.0,17.0,96,0.00,,CLR,0.00,VWS V14.01,2013-04-21 09:08:00,
2013-04-21 04:09:00,33.4,32.4,30.10,ESE,118,12.0,17.0,96,0.00,,CLR,0.00,VWS V14.01,2013-04-21 09:09:00,
2013-04-21 04:10:00,33.5,32.5,30.10,ESE,122,13.0,17.0,96,0.00,,CLR,0.00,VWS V14.01,2013-04-21 09:10:00,
2013-04-21 04:11:00,33.4,32.4,30.10,ESE,119,12.0,17.0,96,0.00,,CLR,0.00,VWS V14.01,2013-04-21 09:11:00,
2013-04-21 04:12:00,33.5,32.5,30.10,ESE,118,7.0,17.0,96,0.00,,CLR,0.00,VWS V14.01,2013-04-21 09:12:00,
2013-04-21 04:13:00,33.5,32.5,30.10,ESE,118,16.0,17.0,96,0.00,,CLR,0.00,VWS V14.01,2013-04-21 09:13:00,
2013-04-21 04:14:00,33.5,32.5,30.10,ESE,113,18.0,21.0,96,0.00,,CLR,0.00,VWS V14.01,2013-04-21 09:14:00,
2013-04-21 04:15:00,33.5,32.5,30.09,ESE,116,14.0,21.0,96,0.00,,CLR,0.00,VWS V14.01,2013-04-21 09:15:00,
2013-04-21 04:16:00,33.5,32.5,30.09,ESE,116,17.0,21.0,96,0.00,,CLR,0.00,VWS V14.01,2013-04-21 09:16:00,
2013-04-21 04:17:00,33.5,32.5,30.09,ESE,118,12.0,21.0,96,0.00,,CLR,0.00,VWS V14.01,2013-04-21 09:17:00,
2013-04-21 04:18:00,33.5,32.2,30.09,ESE,120,11.0,21.0,95,0.00,,CLR,0.00,VWS V14.01,2013-04-21 09:18:00,
2013-04-21 04:19:00,33.5,32.2,30.09,ESE,118,11.0,21.0,95,0.00,,CLR,0.00,VWS V14.01,2013-04-21 09:19:00,
2013-04-21 04:20:00,33.5,32.2,30.09,ESE,116,13.0,22.0,95,0.00,,CLR,0.00,VWS V14.01,2013-04-21 09:20:00,
2013-04-21 04:21:00,33.5,32.2,30.09,ESE,110,17.0,22.0,95,0.00,,CLR,0.00,VWS V14.01,2013-04-21 09:21:00,
2013-04-21 04:22:00,33.5,32.2,30.09,ESE,118,13.0,22.0,95,0.00,,CLR,0.00,VWS V14.01,2013-04-21 09:22:00,
2013-04-21 04:23:00,33.5,32.2,30.09,SE,129,18.0,22.0,95,0.00,,CLR,0.00,VWS V14.01,2013-04-21 09:23:00,
2013-04-21 04:24:00,33.5,32.2,30.09,ESE,123,17.0,22.0,95,0.00,,CLR,0.00,VWS V14.01,2013-04-21 09:24:00,
2013-04-21 04:25:00,33.5,32.2,30.09,ESE,113,12.0,22.0,95,0.00,,CLR,0.00,VWS V14.01,2013-04-21 09:25:00,
2013-04-21 04:26:00,33.5,32.2,30.09,ESE,119,11.0,22.0,95,0.00,,CLR,0.00,VWS V14.01,2013-04-21 09:26:00,
2013-04-21 04:27:00,33.5,32.2,30.09,ESE,116,16.0,22.0,95,0.00,,CLR,0.00,VWS V14.01,2013-04-21 09:27:00,
2013-04-21 04:28:00,33.5,32.2,30.09,ESE,120,12.0,22.0,95,0.00,,CLR,0.00,VWS V14.01,2013-04-21 09:28:00,
2013-04-21 04:29:00,33.5,32.2,30.09,ESE,116,12.0,22.0,95,0.00,,CLR,0.00,VWS V14.01,2013-04-21 09:29:00,
2013-04-21 04:30:00,33.5,32.2,30.09,ESE,119,11.0,22.0,95,0.00,,CLR,0.00,VWS V14.01,2013-04-21 09:30:00,
2013-04-21 04:31:00,33.5,32.2,30.09,ESE,119,14.0,15.0,95,0.00,,CLR,0.00,VWS V14.01,2013-04-21 09:31:00,
2013-04-21 04:32:00,33.5,32.2,30.09,ESE,119,13.0,17.0,95,0.00,,CLR,0.00,VWS V14.01,2013-04-21 09:32:00,
2013-04-21 04:33:00,33.5,32.2,30.09,ESE,119,17.0,17.0,95,0.00,,CLR,0.00,VWS V14.01,2013-04-21 09:33:00,
2013-04-21 04:34:00,33.5,32.2,30.09,ESE,120,12.0,18.0,95,0.00,,CLR,0.00,VWS V14.01,2013-04-21 09:34:00,
2013-04-21 04:35:00,33.5,32.2,30.09,ESE,113,12.0,18.0,95,0.00,,CLR,0.00,VWS V14.01,2013-04-21 09:35:00,
2013-04-21 04:36:00,33.5,32.2,30.09,ESE,112,11.0,18.0,95,0.00,,CLR,0.00,VWS V14.01,2013-04-21 09:36:00,
2013-04-21 04:37:00,33.7,32.4,30.09,ESE,115,12.0,18.0,95,0.00,,CLR,0.00,VWS V14.01,2013-04-21 09:37:00,
2013-04-21 04:38:00,33.5,32.2,30.09,ESE,116,14.0,18.0,95,0.00,,CLR,0.00,VWS V14.01,2013-04-21 09:38:00,
2013-04-21 04:39:00,33.5,32.2,30.09,ESE,109,17.0,18.0,95,0.00,,CLR,0.00,VWS V14.01,2013-04-21 09:39:00,
2013-04-21 04:40:00,33.5,32.2,30.09,ESE,120,18.0,19.0,95,0.00,,CLR,0.00,VWS V14.01,2013-04-21 09:40:00,
2013-04-21 04:41:00,33.5,32.2,30.09,ESE,118,12.0,19.0,95,0.00,,CLR,0.00,VWS V14.01,2013-04-21 09:41:00,
2013-04-21 04:42:00,33.7,32.4,30.09,ESE,120,12.0,19.0,95,0.00,,CLR,0.00,VWS V14.01,2013-04-21 09:42:00,
2013-04-21 04:43:00,33.7,32.4,30.09,ESE,113,10.0,19.0,95,0.00,,CLR,0.00,VWS V14.01,2013-04-21 09:43:00,
2013-04-21 04:44:00,33.7,32.4,30.09,ESE,118,10.0,19.0,95,0.00,,CLR,0.00,VWS V14.01,2013-04-21 09:44:00,
2013-04-21 04:45:00,33.7,32.4,30.09,ESE,115,10.0,19.0,95,0.00,,CLR,0.00,VWS V14.01,2013-04-21 09:45:00,
2013-04-21 04:46:00,33.5,32.0,30.09,ESE,113,13.0,19.0,94,0.00,,CLR,0.00,VWS V14.01,2013-04-21 09:46:00,
2013-04-21 04:47:00,33.7,32.2,30.09,SE,133,8.0,19.0,94,0.00,,CLR,0.00,VWS V14.01,2013-04-21 09:47:00,
2013-04-21 04:48:00,33.7,32.2,30.09,ESE,122,8.0,19.0,94,0.00,,CLR,0.00,VWS V14.01,2013-04-21 09:48:00,
2013-04-21 04:49:00,33.7,32.2,30.09,ESE,116,12.0,19.0,94,0.00,,CLR,0.00,VWS V14.01,2013-04-21 09:49:00,
2013-04-21 04:50:00,33.7,32.2,30.09,ESE,119,8.0,19.0,94,0.00,,CLR,0.00,VWS V14.01,2013-04-21 09:50:00,
2013-04-21 04:51:00,33.7,32.2,30.09,ESE,118,17.0,19.0,94,0.00,,CLR,0.00,VWS V14.01,2013-04-21 09:51:00,
2013-04-21 04:52:00,33.5,32.0,30.09,ESE,115,15.0,19.0,94,0.00,,CLR,0.00,VWS V14.01,2013-04-21 09:52:00,
2013-04-21 04:53:00,33.7,32.2,30.09,ESE,118,13.0,19.0,94,0.00,,CLR,0.00,VWS V14.01,2013-04-21 09:53:00,
2013-04-21 04:54:00,33.5,32.0,30.09,ESE,115,14.0,19.0,94,0.00,,CLR,0.00,VWS V14.01,2013-04-21 09:54:00,
2013-04-21 04:55:00,33.7,32.2,30.09,ESE,119,13.0,19.0,94,0.00,,CLR,0.00,VWS V14.01,2013-04-21 09:55:00,
2013-04-21 04:56:00,33.5,32.0,30.09,ESE,118,16.0,19.0,94,0.00,,CLR,0.00,VWS V14.01,2013-04-21 09:56:00,
2013-04-21 04:57:00,33.5,32.0,30.09,ESE,119,10.0,19.0,94,0.00,,CLR,0.00,VWS V14.01,2013-04-21 09:57:00,
2013-04-21 04:58:00,33.5,32.0,30.09,ESE,118,11.0,19.0,94,0.00,,CLR,0.00,VWS V14.01,2013-04-21 09:58:00,
2013-04-21 04:59:00,33.5,32.0,30.09,ESE,120,10.0,19.0,94,0.01,,CLR,0.01,VWS V14.01,2013-04-21 09:59:00,
2013-04-21 05:00:00,33.5,32.0,30.08,ESE,116,16.0,19.0,94,0.01,,CLR,0.01,VWS V14.01,2013-04-21 10:00:00,
2013-04-21 05:01:00,33.5,32.0,30.08,SE,129,12.0,13.0,94,0.01,,CLR,0.01,VWS V14.01,2013-04-21 10:01:00,
2013-04-21 05:02:00,33.7,32.2,30.08,ESE,118,14.0,14.0,94,0.01,,CLR,0.01,VWS V14.01,2013-04-21 10:02:00,
2013-04-21 05:03:00,33.5,32.0,30.08,ESE,105,10.0,14.0,94,0.01,,CLR,0.01,VWS V14.01,2013-04-21 10:03:00,
2013-04-21 05:04:00,33.5,32.0,30.08,ESE,115,18.0,20.0,94,0.01,,CLR,0.01,VWS V14.01,2013-04-21 10:04:00,
2013-04-21 05:05:00,33.5,32.0,30.08,ESE,118,12.0,20.0,94,0.01,,CLR,0.01,VWS V14.01,2013-04-21 10:05:00,
2013-04-21 05:06:00,33.5,32.0,30.08,ESE,115,10.0,20.0,94,0.01,,CLR,0.01,VWS V14.01,2013-04-21 10:06:00,
2013-04-21 05:07:00,33.7,32.2,30.08,ESE,118,8.0,20.0,94,0.01,,CLR,0.01,VWS V14.01,2013-04-21 10:07:00,
2013-04-21 05:08:00,33.5,32.0,30.08,ESE,105,8.0,20.0,94,0.01,,CLR,0.01,VWS V14.01,2013-04-21 10:08:00,
2013-04-21 05:09:00,33.5,32.0,30.08,SE,133,11.0,20.0,94,0.01,,CLR,0.01,VWS V14.01,2013-04-21 10:09:00,
2013-04-21 05:10:00,33.5,32.0,30.08,ESE,122,11.0,20.0,94,0.01,,CLR,0.01,VWS V14.01,2013-04-21 10:10:00,
2013-04-21 05:11:00,33.5,32.0,30.08,ESE,118,14.0,20.0,94,0.01,,CLR,0.01,VWS V14.01,2013-04-21 10:11:00,
2013-04-21 05:12:00,33.5,32.0,30.08,ESE,120,12.0,20.0,94,0.01,,CLR,0.01,VWS V14.01,2013-04-21 10:12:00,
2013-04-21 05:13:00,33.5,31.7,30.08,ESE,116,16.0,20.0,93,0.01,,CLR,0.01,VWS V14.01,2013-04-21 10:13:00,
2013-04-21 05:14:00,33.5,31.7,30.08,ESE,119,12.0,20.0,93,0.01,,CLR,0.01,VWS V14.01,2013-04-21 10:14:00,
2013-04-21 05:15:00,33.5,31.7,30.08,ESE,118,11.0,20.0,93,0.01,,CLR,0.01,VWS V14.01,2013-04-21 10:15:00,
2013-04-21 05:16:00,33.5,31.7,30.08,ESE,120,17.0,22.0,93,0.01,,CLR,0.01,VWS V14.01,2013-04-21 10:16:00,
2013-04-21 05:17:00,33.5,31.7,30.08,ESE,119,14.0,22.0,93,0.01,,CLR,0.01,VWS V14.01,2013-04-21 10:17:00,
2013-04-21 05:18:00,33.5,31.7,30.08,ESE,119,17.0,22.0,93,0.01,,CLR,0.01,VWS V14.01,2013-04-21 10:18:00,
2013-04-21 05:19:00,33.5,31.7,30.08,SE,125,14.0,22.0,93,0.01,,CLR,0.01,VWS V14.01,2013-04-21 10:19:00,
2013-04-21 05:20:00,33.5,31.7,30.08,ESE,116,12.0,22.0,93,0.01,,CLR,0.01,VWS V14.01,2013-04-21 10:20:00,
2013-04-21 05:21:00,33.5,31.7,30.08,ESE,113,12.0,22.0,93,0.01,,CLR,0.01,VWS V14.01,2013-04-21 10:21:00,
2013-04-21 05:22:00,33.5,31.7,30.08,ESE,113,13.0,22.0,93,0.01,,CLR,0.01,VWS V14.01,2013-04-21 10:22:00,
2013-04-21 05:23:00,33.5,31.7,30.08,ESE,118,7.0,22.0,93,0.01,,CLR,0.01,VWS V14.01,2013-04-21 10:23:00,
2013-04-21 05:24:00,33.5,31.7,30.08,ESE,116,13.0,22.0,93,0.01,,CLR,0.01,VWS V14.01,2013-04-21 10:24:00,
2013-04-21 05:25:00,33.5,31.7,30.08,ESE,115,12.0,22.0,93,0.01,,CLR,0.01,VWS V14.01,2013-04-21 10:25:00,
2013-04-21 05:26:00,33.5,31.7,30.08,ESE,112,13.0,22.0,93,0.01,,CLR,0.01,VWS V14.01,2013-04-21 10:26:00,
2013-04-21 05:27:00,33.5,31.7,30.08,ESE,118,12.0,22.0,93,0.01,,CLR,0.01,VWS V14.01,2013-04-21 10:27:00,
2013-04-21 05:28:00,33.5,31.7,30.08,ESE,102,12.0,22.0,93,0.01,,CLR,0.01,VWS V14.01,2013-04-21 10:28:00,
2013-04-21 05:29:00,33.5,31.7,30.08,ESE,115,13.0,22.0,93,0.01,,CLR,0.01,VWS V14.01,2013-04-21 10:29:00,
2013-04-21 05:30:00,33.5,31.7,30.08,ESE,116,11.0,22.0,93,0.01,,CLR,0.01,VWS V14.01,2013-04-21 10:30:00,
2013-04-21 05:31:00,33.5,31.7,30.08,ESE,118,10.0,12.0,93,0.01,,CLR,0.01,VWS V14.01,2013-04-21 10:31:00,
2013-04-21 05:32:00,33.5,31.7,30.08,SE,125,12.0,13.0,93,0.01,,CLR,0.01,VWS V14.01,2013-04-21 10:32:00,
2013-04-21 05:33:00,33.5,31.7,30.08,ESE,115,18.0,18.0,93,0.01,,CLR,0.01,VWS V14.01,2013-04-21 10:33:00,
2013-04-21 05:34:00,33.5,31.7,30.08,ESE,119,11.0,18.0,93,0.01,,CLR,0.01,VWS V14.01,2013-04-21 10:34:00,
2013-04-21 05:35:00,33.5,31.7,30.08,ESE,113,14.0,18.0,93,0.01,,CLR,0.01,VWS V14.01,2013-04-21 10:35:00,
2013-04-21 05:36:00,33.5,31.7,30.08,ESE,123,12.0,18.0,93,0.01,,CLR,0.01,VWS V14.01,2013-04-21 10:36:00,
2013-04-21 05:37:00,33.5,31.7,30.08,ESE,115,14.0,20.0,93,0.01,,CLR,0.01,VWS V14.01,2013-04-21 10:37:00,
2013-04-21 05:38:00,33.7,31.9,30.08,ESE,115,13.0,21.0,93,0.01,,CLR,0.01,VWS V14.01,2013-04-21 10:38:00,
2013-04-21 05:39:00,33.7,31.9,30.08,ESE,113,10.0,21.0,93,0.01,,CLR,0.01,VWS V14.01,2013-04-21 10:39:00,
2013-04-21 05:40:00,33.7,31.6,30.08,ESE,119,16.0,21.0,92,0.01,,CLR,0.01,VWS V14.01,2013-04-21 10:40:00,
2013-04-21 05:41:00,33.7,31.6,30.08,ESE,123,12.0,21.0,92,0.01,,CLR,0.01,VWS V14.01,2013-04-21 10:41:00,
2013-04-21 05:42:00,33.7,31.6,30.08,ESE,118,16.0,21.0,92,0.01,,CLR,0.01,VWS V14.01,2013-04-21 10:42:00,
2013-04-21 05:43:00,33.7,31.6,30.08,ESE,120,15.0,21.0,92,0.01,,CLR,0.01,VWS V14.01,2013-04-21 10:43:00,
2013-04-21 05:44:00,33.7,31.6,30.08,ESE,122,10.0,21.0,92,0.01,,CLR,0.01,VWS V14.01,2013-04-21 10:44:00,
2013-04-21 05:45:00,33.7,31.6,30.08,ESE,118,11.0,21.0,92,0.01,,CLR,0.01,VWS V14.01,2013-04-21 10:45:00,
2013-04-21 05:46:00,33.7,31.6,30.08,ESE,120,20.0,21.0,92,0.01,,CLR,0.01,VWS V14.01,2013-04-21 10:46:00,
2013-04-21 05:47:00,33.7,31.6,30.08,ESE,123,12.0,21.0,92,0.01,,CLR,0.01,VWS V14.01,2013-04-21 10:47:00,
2013-04-21 05:48:00,33.7,31.6,30.08,ESE,118,14.0,21.0,92,0.01,,CLR,0.01,VWS V14.01,2013-04-21 10:48:00,
2013-04-21 05:49:00,33.7,31.6,30.08,ESE,112,17.0,21.0,92,0.01,,CLR,0.01,VWS V14.01,2013-04-21 10:49:00,
2013-04-21 05:50:00,33.7,31.6,30.08,ESE,112,11.0,21.0,92,0.01,,CLR,0.01,VWS V14.01,2013-04-21 10:50:00,
2013-04-21 05:51:00,33.7,31.6,30.08,ESE,109,11.0,21.0,92,0.01,,CLR,0.01,VWS V14.01,2013-04-21 10:51:00,
2013-04-21 05:52:00,33.7,31.6,30.08,ESE,116,11.0,21.0,92,0.01,,CLR,0.01,VWS V14.01,2013-04-21 10:52:00,
2013-04-21 05:53:00,33.7,31.6,30.08,ESE,109,12.0,21.0,92,0.01,,CLR,0.01,VWS V14.01,2013-04-21 10:53:00,
2013-04-21 05:54:00,33.7,31.6,30.08,ESE,109,6.0,21.0,92,0.01,,CLR,0.01,VWS V14.01,2013-04-21 10:54:00,
2013-04-21 05:55:00,33.7,31.6,30.08,ESE,120,14.0,21.0,92,0.01,,CLR,0.01,VWS V14.01,2013-04-21 10:55:00,
2013-04-21 05:56:00,33.7,31.6,30.08,ESE,116,7.0,21.0,92,0.01,,CLR,0.01,VWS V14.01,2013-04-21 10:56:00,
2013-04-21 05:57:00,33.7,31.6,30.08,ESE,118,14.0,21.0,92,0.01,,CLR,0.01,VWS V14.01,2013-04-21 10:57:00,
2013-04-21 05:58:00,33.7,31.6,30.08,ESE,116,11.0,21.0,92,0.01,,CLR,0.01,VWS V14.01,2013-04-21 10:58:00,
2013-04-21 05:59:00,33.7,31.6,30.08,ESE,112,15.0,21.0,92,0.01,,CLR,0.01,VWS V14.01,2013-04-21 10:59:00,
2013-04-21 06:00:00,33.8,31.5,30.09,ESE,110,5.0,21.0,91,0.01,,CLR,0.01,VWS V14.01,2013-04-21 11:00:00,
2013-04-21 06:01:00,33.8,31.5,30.09,SE,129,9.0,15.0,91,0.00,,CLR,0.01,VWS V14.01,2013-04-21 11:01:00,
2013-04-21 06:02:00,33.8,31.5,30.09,ESE,122,11.0,15.0,91,0.00,,CLR,0.01,VWS V14.01,2013-04-21 11:02:00,
2013-04-21 06:03:00,33.8,31.5,30.09,ESE,116,13.0,16.0,91,0.00,,CLR,0.01,VWS V14.01,2013-04-21 11:03:00,
2013-04-21 06:04:00,33.8,31.5,30.09,ESE,122,9.0,16.0,91,0.00,,CLR,0.01,VWS V14.01,2013-04-21 11:04:00,
2013-04-21 06:05:00,34.0,31.6,30.09,ESE,120,11.0,16.0,91,0.00,,CLR,0.01,VWS V14.01,2013-04-21 11:05:00,
2013-04-21 06:06:00,34.0,31.4,30.09,ESE,112,12.0,16.0,90,0.00,,CLR,0.01,VWS V14.01,2013-04-21 11:06:00,
2013-04-21 06:07:00,34.0,31.4,30.09,ESE,105,14.0,16.0,90,0.00,,CLR,0.01,VWS V14.01,2013-04-21 11:07:00,
2013-04-21 06:08:00,34.1,31.5,30.09,ESE,112,8.0,16.0,90,0.00,,CLR,0.01,VWS V14.01,2013-04-21 11:08:00,
2013-04-21 06:09:00,34.1,31.5,30.09,SE,125,9.0,17.0,90,0.00,,CLR,0.01,VWS V14.01,2013-04-21 11:09:00,
2013-04-21 06:10:00,34.1,31.2,30.09,SE,127,12.0,20.0,89,0.00,,CLR,0.01,VWS V14.01,2013-04-21 11:10:00,
2013-04-21 06:11:00,34.3,31.4,30.09,SE,129,16.0,20.0,89,0.00,,CLR,0.01,VWS V14.01,2013-04-21 11:11:00,
2013-04-21 06:12:00,34.3,31.4,30.09,ESE,113,13.0,20.0,89,0.00,,CLR,0.01,VWS V14.01,2013-04-21 11:12:00,
2013-04-21 06:13:00,34.3,31.1,30.09,ESE,116,10.0,20.0,88,0.00,,CLR,0.01,VWS V14.01,2013-04-21 11:13:00,
2013-04-21 06:14:00,34.4,31.2,30.09,ESE,123,13.0,20.0,88,0.00,,CLR,0.01,VWS V14.01,2013-04-21 11:14:00,
2013-04-21 06:15:00,34.4,31.2,30.09,ESE,109,13.0,20.0,88,0.00,,CLR,0.01,VWS V14.01,2013-04-21 11:15:00,
2013-04-21 06:16:00,34.4,30.9,30.09,ESE,118,13.0,20.0,87,0.00,,CLR,0.01,VWS V14.01,2013-04-21 11:16:00,
2013-04-21 06:17:00,34.4,30.9,30.09,ESE,119,12.0,20.0,87,0.00,,CLR,0.01,VWS V14.01,2013-04-21 11:17:00,
2013-04-21 06:18:00,34.4,30.9,30.09,ESE,115,19.0,20.0,87,0.00,,CLR,0.01,VWS V14.01,2013-04-21 11:18:00,
2013-04-21 06:19:00,34.4,30.9,30.09,ESE,122,14.0,20.0,87,0.00,,CLR,0.01,VWS V14.01,2013-04-21 11:19:00,
2013-04-21 06:20:00,34.4,30.9,30.09,East,98,12.0,20.0,87,0.00,,CLR,0.01,VWS V14.01,2013-04-21 11:20:00,
2013-04-21 06:21:00,34.4,30.9,30.09,ESE,115,16.0,20.0,87,0.00,,CLR,0.01,VWS V14.01,2013-04-21 11:21:00,
2013-04-21 06:22:00,34.4,30.9,30.09,ESE,112,12.0,20.0,87,0.00,,CLR,0.01,VWS V14.01,2013-04-21 11:22:00,
2013-04-21 06:23:00,34.4,30.9,30.09,ESE,116,12.0,20.0,87,0.00,,CLR,0.01,VWS V14.01,2013-04-21 11:23:00,
2013-04-21 06:24:00,34.4,31.2,30.09,ESE,109,13.0,20.0,88,0.00,,CLR,0.01,VWS V14.01,2013-04-21 11:24:00,
2013-04-21 06:25:00,34.4,31.2,30.09,ESE,115,12.0,20.0,88,0.00,,CLR,0.01,VWS V14.01,2013-04-21 11:25:00,
2013-04-21 06:26:00,34.4,31.2,30.09,ESE,115,10.0,20.0,88,0.00,,CLR,0.01,VWS V14.01,2013-04-21 11:26:00,
2013-04-21 06:27:00,34.4,31.2,30.09,ESE,119,12.0,20.0,88,0.00,,CLR,0.01,VWS V14.01,2013-04-21 11:27:00,
2013-04-21 06:28:00,34.4,31.2,30.09,SE,127,13.0,20.0,88,0.00,,CLR,0.01,VWS V14.01,2013-04-21 11:28:00,
2013-04-21 06:29:00,34.4,30.9,30.09,ESE,115,9.0,20.0,87,0.00,,CLR,0.01,VWS V14.01,2013-04-21 11:29:00,
2013-04-21 06:30:00,34.4,30.9,30.09,ESE,106,11.0,20.0,87,0.00,,CLR,0.01,VWS V14.01,2013-04-21 11:30:00,
2013-04-21 06:31:00,34.6,31.1,30.09,ESE,113,14.0,14.0,87,0.00,,CLR,0.01,VWS V14.01,2013-04-21 11:31:00,
2013-04-21 06:32:00,34.6,31.1,30.09,ESE,118,14.0,14.0,87,0.00,,CLR,0.01,VWS V14.01,2013-04-21 11:32:00,
2013-04-21 06:33:00,34.6,31.1,30.09,ESE,110,6.0,15.0,87,0.00,,CLR,0.01,VWS V14.01,2013-04-21 11:33:00,
2013-04-21 06:34:00,34.6,31.1,30.09,ESE,112,11.0,15.0,87,0.00,,CLR,0.01,VWS V14.01,2013-04-21 11:34:00,
2013-04-21 06:35:00,34.6,31.1,30.09,SE,125,8.0,15.0,87,0.00,,CLR,0.01,VWS V14.01,2013-04-21 11:35:00,
2013-04-21 06:36:00,34.6,31.1,30.09,ESE,110,7.0,15.0,87,0.00,,CLR,0.01,VWS V14.01,2013-04-21 11:36:00,
2013-04-21 06:37:00,34.6,30.9,30.09,ESE,109,16.0,16.0,86,0.00,,CLR,0.01,VWS V14.01,2013-04-21 11:37:00,
2013-04-21 06:38:00,34.6,30.9,30.09,ESE,119,17.0,17.0,86,0.00,,CLR,0.01,VWS V14.01,2013-04-21 11:38:00,
2013-04-21 06:39:00,34.7,31.0,30.09,ESE,123,12.0,17.0,86,0.00,,CLR,0.01,VWS V14.01,2013-04-21 11:39:00,
2013-04-21 06:40:00,34.7,31.0,30.09,ESE,118,10.0,17.0,86,0.00,,CLR,0.01,VWS V14.01,2013-04-21 11:40:00,
2013-04-21 06:41:00,34.7,31.0,30.09,ESE,119,11.0,17.0,86,0.00,,CLR,0.01,VWS V14.01,2013-04-21 11:41:00,
2013-04-21 06:42:00,34.7,31.0,30.09,ESE,115,13.0,18.0,86,0.00,,CLR,0.01,VWS V14.01,2013-04-21 11:42:00,
2013-04-21 06:43:00,34.7,31.0,30.09,ESE,116,8.0,18.0,86,0.00,,CLR,0.01,VWS V14.01,2013-04-21 11:43:00,
2013-04-21 06:44:00,34.7,31.0,30.09,ESE,118,12.0,18.0,86,0.00,,CLR,0.01,VWS V14.01,2013-04-21 11:44:00,
2013-04-21 06:45:00,34.7,31.0,30.08,ESE,119,11.0,18.0,86,0.00,,CLR,0.01,VWS V14.01,2013-04-21 11:45:00,
2013-04-21 06:46:00,34.7,31.0,30.08,ESE,116,12.0,18.0,86,0.00,,CLR,0.01,VWS V14.01,2013-04-21 11:46:00,
2013-04-21 06:47:00,34.9,31.1,30.08,ESE,116,7.0,18.0,86,0.00,,CLR,0.01,VWS V14.01,2013-04-21 11:47:00,
2013-04-21 06:48:00,34.9,31.1,30.08,ESE,118,11.0,18.0,86,0.00,,CLR,0.01,VWS V14.01,2013-04-21 11:48:00,
2013-04-21 06:49:00,34.9,30.9,30.08,ESE,119,13.0,18.0,85,0.00,,CLR,0.01,VWS V14.01,2013-04-21 11:49:00,
2013-04-21 06:50:00,34.9,30.9,30.08,ESE,113,16.0,18.0,85,0.00,,CLR,0.01,VWS V14.01,2013-04-21 11:50:00,
2013-04-21 06:51:00,34.9,30.9,30.08,ESE,118,7.0,18.0,85,0.00,,CLR,0.01,VWS V14.01,2013-04-21 11:51:00,
2013-04-21 06:52:00,34.9,30.9,30.08,SE,126,12.0,18.0,85,0.00,,CLR,0.01,VWS V14.01,2013-04-21 11:52:00,
2013-04-21 06:53:00,34.9,30.9,30.08,ESE,110,12.0,18.0,85,0.00,,CLR,0.01,VWS V14.01,2013-04-21 11:53:00,
2013-04-21 06:54:00,34.9,30.9,30.08,ESE,115,8.0,18.0,85,0.00,,CLR,0.01,VWS V14.01,2013-04-21 11:54:00,
2013-04-21 06:55:00,34.9,30.9,30.08,ESE,123,14.0,18.0,85,0.00,,CLR,0.01,VWS V14.01,2013-04-21 11:55:00,
2013-04-21 06:56:00,35.0,31.0,30.08,ESE,112,11.0,18.0,85,0.00,,CLR,0.01,VWS V14.01,2013-04-21 11:56:00,
2013-04-21 06:57:00,35.0,31.0,30.08,ESE,120,10.0,18.0,85,0.00,,CLR,0.01,VWS V14.01,2013-04-21 11:57:00,
2013-04-21 06:58:00,35.0,31.0,30.08,ESE,120,9.0,18.0,85,0.00,,CLR,0.01,VWS V14.01,2013-04-21 11:58:00,
2013-04-21 06:59:00,35.0,31.0,30.08,ESE,115,12.0,18.0,85,0.00,,CLR,0.01,VWS V14.01,2013-04-21 11:59:00,
2013-04-21 07:00:00,35.2,31.1,30.08,ESE,120,17.0,18.0,85,0.00,,CLR,0.01,VWS V14.01,2013-04-21 12:00:00,
2013-04-21 07:01:00,35.2,31.1,30.08,ESE,123,17.0,20.0,85,0.00,,CLR,0.01,VWS V14.01,2013-04-21 12:01:00,
2013-04-21 07:02:00,35.2,31.1,30.08,ESE,116,16.0,20.0,85,0.00,,CLR,0.01,VWS V14.01,2013-04-21 12:02:00,
2013-04-21 07:03:00,35.3,31.2,30.08,ESE,115,10.0,20.0,85,0.00,,CLR,0.01,VWS V14.01,2013-04-21 12:03:00,
2013-04-21 07:04:00,35.3,31.2,30.08,ESE,116,8.0,24.0,85,0.00,,CLR,0.01,VWS V14.01,2013-04-21 12:04:00,
2013-04-21 07:05:00,35.3,31.2,30.08,SE,134,12.0,24.0,85,0.00,,CLR,0.01,VWS V14.01,2013-04-21 12:05:00,
2013-04-21 07:06:00,35.5,31.5,30.08,SE,126,11.0,24.0,85,0.00,,CLR,0.01,VWS V14.01,2013-04-21 12:06:00,
2013-04-21 07:07:00,35.5,31.5,30.08,ESE,108,8.0,24.0,85,0.00,,CLR,0.01,VWS V14.01,2013-04-21 12:07:00,
2013-04-21 07:08:00,35.5,31.5,30.08,ESE,120,17.0,24.0,85,0.00,,CLR,0.01,VWS V14.01,2013-04-21 12:08:00,
2013-04-21 07:09:00,35.5,31.5,30.08,ESE,110,22.0,24.0,85,0.00,,CLR,0.01,VWS V14.01,2013-04-21 12:09:00,
2013-04-21 07:10:00,35.6,31.5,30.08,East,98,13.0,24.0,85,0.00,,CLR,0.01,VWS V14.01,2013-04-21 12:10:00,
2013-04-21 07:11:00,35.6,31.5,30.08,ESE,102,18.0,24.0,85,0.00,,CLR,0.01,VWS V14.01,2013-04-21 12:11:00,
2013-04-21 07:12:00,35.6,31.5,30.08,SE,130,10.0,24.0,85,0.00,,CLR,0.01,VWS V14.01,2013-04-21 12:12:00,
2013-04-21 07:13:00,35.8,31.7,30.08,SE,125,18.0,24.0,85,0.00,,CLR,0.01,VWS V14.01,2013-04-21 12:13:00,
2013-04-21 07:14:00,35.8,31.7,30.08,ESE,123,16.0,24.0,85,0.00,,CLR,0.01,VWS V14.01,2013-04-21 12:14:00,
2013-04-21 07:15:00,35.8,31.7,30.07,SE,126,17.0,24.0,85,0.00,,CLR,0.01,VWS V14.01,2013-04-21 12:15:00,
2013-04-21 07:16:00,35.8,31.7,30.07,SE,125,10.0,24.0,85,0.00,,CLR,0.01,VWS V14.01,2013-04-21 12:16:00,
2013-04-21 07:17:00,35.9,31.8,30.07,SE,126,11.0,24.0,85,0.00,,CLR,0.01,VWS V14.01,2013-04-21 12:17:00,
2013-04-21 07:18:00,35.9,31.8,30.07,SSE,158,17.0,24.0,85,0.00,,CLR,0.01,VWS V14.01,2013-04-21 12:18:00,
2013-04-21 07:19:00,35.9,31.8,30.07,SE,136,25.0,25.0,85,0.00,,CLR,0.01,VWS V14.01,2013-04-21 12:19:00,
2013-04-21 07:20:00,35.9,31.8,30.07,SE,132,14.0,25.0,85,0.00,,CLR,0.01,VWS V14.01,2013-04-21 12:20:00,
2013-04-21 07:21:00,35.9,31.8,30.07,ESE,112,19.0,25.0,85,0.00,,CLR,0.01,VWS V14.01,2013-04-21 12:21:00,
2013-04-21 07:22:00,35.9,31.8,30.07,SE,126,15.0,25.0,85,0.00,,CLR,0.01,VWS V14.01,2013-04-21 12:22:00,
2013-04-21 07:23:00,35.9,31.8,30.07,ESE,109,14.0,25.0,85,0.00,,CLR,0.01,VWS V14.01,2013-04-21 12:23:00,
2013-04-21 07:24:00,35.9,31.8,30.07,SE,130,20.0,25.0,85,0.00,,CLR,0.01,VWS V14.01,2013-04-21 12:24:00,
2013-04-21 07:25:00,35.9,31.8,30.07,ESE,113,14.0,25.0,85,0.00,,CLR,0.01,VWS V14.01,2013-04-21 12:25:00,
2013-04-21 07:26:00,35.9,31.8,30.07,SSE,156,13.0,25.0,85,0.00,,CLR,0.01,VWS V14.01,2013-04-21 12:26:00,
2013-04-21 07:27:00,35.9,32.1,30.07,ESE,118,18.0,25.0,86,0.00,,CLR,0.01,VWS V14.01,2013-04-21 12:27:00,
2013-04-21 07:28:00,35.9,32.1,30.07,ESE,116,15.0,25.0,86,0.00,,CLR,0.01,VWS V14.01,2013-04-21 12:28:00,
2013-04-21 07:29:00,35.9,32.1,30.07,SSE,147,12.0,25.0,86,0.00,,CLR,0.01,VWS V14.01,2013-04-21 12:29:00,
2013-04-21 07:30:00,35.9,32.1,30.07,ESE,119,14.0,25.0,86,0.00,,CLR,0.01,VWS V14.01,2013-04-21 12:30:00,
2013-04-21 07:31:00,35.9,32.1,30.07,ESE,115,18.0,19.0,86,0.00,,CLR,0.01,VWS V14.01,2013-04-21 12:31:00,
2013-04-21 07:32:00,35.9,32.1,30.07,ESE,112,13.0,20.0,86,0.00,,CLR,0.01,VWS V14.01,2013-04-21 12:32:00,
2013-04-21 07:33:00,35.9,32.1,30.07,ESE,118,9.0,20.0,86,0.00,,CLR,0.01,VWS V14.01,2013-04-21 12:33:00,
2013-04-21 07:34:00,35.9,32.1,30.07,ESE,123,12.0,20.0,86,0.00,,CLR,0.01,VWS V14.01,2013-04-21 12:34:00,
2013-04-21 07:35:00,35.9,32.1,30.07,ESE,115,12.0,20.0,86,0.00,,CLR,0.01,VWS V14.01,2013-04-21 12:35:00,
2013-04-21 07:36:00,35.9,32.1,30.07,SE,137,13.0,20.0,86,0.00,,CLR,0.01,VWS V14.01,2013-04-21 12:36:00,
2013-04-21 07:37:00,35.9,32.1,30.07,SE,140,14.0,20.0,86,0.00,,CLR,0.01,VWS V14.01,2013-04-21 12:37:00,
2013-04-21 07:38:00,35.9,32.1,30.07,ESE,115,17.0,22.0,86,0.00,,CLR,0.01,VWS V14.01,2013-04-21 12:38:00,
2013-04-21 07:39:00,35.9,32.1,30.07,ESE,108,13.0,22.0,86,0.00,,CLR,0.01,VWS V14.01,2013-04-21 12:39:00,
2013-04-21 07:40:00,35.9,32.1,30.07,ESE,118,17.0,24.0,86,0.00,,CLR,0.01,VWS V14.01,2013-04-21 12:40:00,
2013-04-21 07:41:00,35.9,32.1,30.07,SSE,154,11.0,24.0,86,0.00,,CLR,0.01,VWS V14.01,2013-04-21 12:41:00,
2013-04-21 07:42:00,35.9,32.1,30.07,SE,129,17.0,24.0,86,0.00,,CLR,0.01,VWS V14.01,2013-04-21 12:42:00,
2013-04-21 07:43:00,35.9,32.1,30.07,ESE,113,13.0,24.0,86,0.00,,CLR,0.01,VWS V14.01,2013-04-21 12:43:00,
2013-04-21 07:44:00,35.9,32.1,30.07,SE,129,10.0,24.0,86,0.00,,CLR,0.01,VWS V14.01,2013-04-21 12:44:00,
2013-04-21 07:45:00,35.9,32.1,30.06,ESE,113,16.0,24.0,86,0.00,,CLR,0.01,VWS V14.01,2013-04-21 12:45:00,
2013-04-21 07:46:00,35.9,32.1,30.06,SE,126,16.0,24.0,86,0.00,,CLR,0.01,VWS V14.01,2013-04-21 12:46:00,
2013-04-21 07:47:00,35.9,32.1,30.06,ESE,110,17.0,27.0,86,0.00,,CLR,0.01,VWS V14.01,2013-04-21 12:47:00,
2013-04-21 07:48:00,35.9,32.4,30.06,ESE,119,17.0,27.0,87,0.00,,CLR,0.01,VWS V14.01,2013-04-21 12:48:00,
2013-04-21 07:49:00,35.9,32.4,30.06,ESE,115,12.0,27.0,87,0.00,,CLR,0.01,VWS V14.01,2013-04-21 12:49:00,
2013-04-21 07:50:00,35.9,32.4,30.06,ESE,119,8.0,27.0,87,0.00,,CLR,0.01,VWS V14.01,2013-04-21 12:50:00,
2013-04-21 07:51:00,35.9,32.4,30.06,ESE,118,12.0,27.0,87,0.00,,CLR,0.01,VWS V14.01,2013-04-21 12:51:00,
2013-04-21 07:52:00,35.9,32.4,30.06,ESE,115,13.0,27.0,87,0.00,,CLR,0.01,VWS V14.01,2013-04-21 12:52:00,
2013-04-21 07:53:00,35.9,32.4,30.06,ESE,119,15.0,27.0,87,0.00,,CLR,0.01,VWS V14.01,2013-04-21 12:53:00,
2013-04-21 07:54:00,35.9,32.4,30.06,SE,139,17.0,27.0,87,0.00,,CLR,0.01,VWS V14.01,2013-04-21 12:54:00,
2013-04-21 07:55:00,35.9,32.4,30.06,SE,144,18.0,27.0,87,0.00,,CLR,0.01,VWS V14.01,2013-04-21 12:55:00,
2013-04-21 07:56:00,35.8,32.3,30.06,ESE,119,12.0,27.0,87,0.00,,CLR,0.01,VWS V14.01,2013-04-21 12:56:00,
2013-04-21 07:57:00,35.8,32.3,30.06,SE,129,7.0,27.0,87,0.00,,CLR,0.01,VWS V14.01,2013-04-21 12:57:00,
2013-04-21 07:58:00,35.8,32.3,30.06,ESE,119,14.0,27.0,87,0.00,,CLR,0.01,VWS V14.01,2013-04-21 12:58:00,
2013-04-21 07:59:00,35.8,32.3,30.06,SE,130,13.0,27.0,87,0.00,,CLR,0.01,VWS V14.01,2013-04-21 12:59:00,
2013-04-21 08:00:00,35.8,32.3,30.06,SE,125,21.0,27.0,87,0.00,,CLR,0.01,VWS V14.01,2013-04-21 13:00:00,
2013-04-21 08:01:00,35.8,32.3,30.06,SE,127,18.0,21.0,87,0.00,,CLR,0.01,VWS V14.01,2013-04-21 13:01:00,
2013-04-21 08:02:00,35.8,32.3,30.06,SE,134,17.0,25.0,87,0.00,,CLR,0.01,VWS V14.01,2013-04-21 13:02:00,
2013-04-21 08:03:00,35.8,32.3,30.06,SE,126,11.0,25.0,87,0.00,,CLR,0.01,VWS V14.01,2013-04-21 13:03:00,
2013-04-21 08:04:00,35.8,32.6,30.06,ESE,120,12.0,25.0,88,0.00,,CLR,0.01,VWS V14.01,2013-04-21 13:04:00,
2013-04-21 08:05:00,35.8,32.6,30.06,ESE,120,8.0,25.0,88,0.00,,CLR,0.01,VWS V14.01,2013-04-21 13:05:00,
2013-04-21 08:06:00,35.6,32.4,30.06,SE,127,18.0,25.0,88,0.00,,CLR,0.01,VWS V14.01,2013-04-21 13:06:00,
2013-04-21 08:07:00,35.6,32.4,30.06,ESE,108,13.0,25.0,88,0.00,,CLR,0.01,VWS V14.01,2013-04-21 13:07:00,
2013-04-21 08:08:00,35.6,32.4,30.06,ESE,113,18.0,25.0,88,0.00,,CLR,0.01,VWS V14.01,2013-04-21 13:08:00,
2013-04-21 08:09:00,35.6,32.4,30.06,SSE,153,10.0,25.0,88,0.00,,CLR,0.01,VWS V14.01,2013-04-21 13:09:00,
2013-04-21 08:10:00,35.6,32.4,30.06,ESE,119,12.0,25.0,88,0.00,,CLR,0.01,VWS V14.01,2013-04-21 13:10:00,
2013-04-21 08:11:00,35.6,32.7,30.06,SSE,150,13.0,25.0,89,0.00,,CLR,0.01,VWS V14.01,2013-04-21 13:11:00,
2013-04-21 08:12:00,35.6,32.7,30.06,ESE,116,11.0,25.0,89,0.00,,CLR,0.01,VWS V14.01,2013-04-21 13:12:00,
2013-04-21 08:13:00,35.6,32.7,30.06,ESE,123,12.0,25.0,89,0.00,,CLR,0.01,VWS V14.01,2013-04-21 13:13:00,
2013-04-21 08:14:00,35.5,32.6,30.06,ESE,116,13.0,25.0,89,0.00,,CLR,0.01,VWS V14.01,2013-04-21 13:14:00,
2013-04-21 08:15:00,35.5,32.6,30.06,SE,130,16.0,25.0,89,0.00,,CLR,0.01,VWS V14.01,2013-04-21 13:15:00,
2013-04-21 08:16:00,35.5,32.9,30.06,ESE,102,13.0,25.0,90,0.00,,CLR,0.01,VWS V14.01,2013-04-21 13:16:00,
2013-04-21 08:17:00,35.5,32.9,30.06,SE,127,17.0,25.0,90,0.00,,CLR,0.01,VWS V14.01,2013-04-21 13:17:00,
2013-04-21 08:18:00,35.5,32.9,30.06,ESE,103,19.0,25.0,90,0.00,,CLR,0.01,VWS V14.01,2013-04-21 13:18:00,
2013-04-21 08:19:00,35.5,32.9,30.06,ESE,116,9.0,25.0,90,0.01,,CLR,0.02,VWS V14.01,2013-04-21 13:19:00,
2013-04-21 08:20:00,35.5,32.9,30.06,ESE,110,16.0,25.0,90,0.01,,CLR,0.02,VWS V14.01,2013-04-21 13:20:00,
2013-04-21 08:21:00,35.5,32.9,30.06,SSE,153,14.0,25.0,90,0.01,,CLR,0.02,VWS V14.01,2013-04-21 13:21:00,
2013-04-21 08:22:00,35.5,33.1,30.06,ESE,108,6.0,25.0,91,0.01,,CLR,0.02,VWS V14.01,2013-04-21 13:22:00,
2013-04-21 08:23:00,35.5,33.1,30.06,ESE,113,13.0,25.0,91,0.01,,CLR,0.02,VWS V14.01,2013-04-21 13:23:00,
2013-04-21 08:24:00,35.5,33.1,30.06,SE,136,13.0,25.0,91,0.01,,CLR,0.02,VWS V14.01,2013-04-21 13:24:00,
2013-04-21 08:25:00,35.5,33.1,30.06,ESE,116,13.0,25.0,91,0.01,,CLR,0.02,VWS V14.01,2013-04-21 13:25:00,
2013-04-21 08:26:00,35.3,32.9,30.06,ESE,118,11.0,25.0,91,0.01,,CLR,0.02,VWS V14.01,2013-04-21 13:26:00,
2013-04-21 08:27:00,35.3,32.9,30.06,SE,126,13.0,25.0,91,0.01,,CLR,0.02,VWS V14.01,2013-04-21 13:27:00,
2013-04-21 08:28:00,35.3,32.9,30.06,ESE,115,11.0,25.0,91,0.01,,CLR,0.02,VWS V14.01,2013-04-21 13:28:00,
2013-04-21 08:29:00,35.3,33.2,30.06,SE,126,12.0,25.0,92,0.01,,CLR,0.02,VWS V14.01,2013-04-21 13:29:00,
2013-04-21 08:30:00,35.3,33.2,30.05,ESE,120,11.0,25.0,92,0.01,,CLR,0.02,VWS V14.01,2013-04-21 13:30:00,
2013-04-21 08:31:00,35.3,33.2,30.05,ESE,110,7.0,14.0,92,0.01,,CLR,0.02,VWS V14.01,2013-04-21 13:31:00,
2013-04-21 08:32:00,35.3,33.2,30.05,SE,125,12.0,14.0,92,0.01,,CLR,0.02,VWS V14.01,2013-04-21 13:32:00,
2013-04-21 08:33:00,35.3,33.2,30.05,ESE,116,6.0,14.0,92,0.01,,CLR,0.02,VWS V14.01,2013-04-21 13:33:00,
2013-04-21 08:34:00,35.3,33.2,30.05,ESE,105,14.0,18.0,92,0.01,,CLR,0.02,VWS V14.01,2013-04-21 13:34:00,
2013-04-21 08:35:00,35.3,33.2,30.05,ESE,110,8.0,18.0,92,0.01,,CLR,0.02,VWS V14.01,2013-04-21 13:35:00,
2013-04-21 08:36:00,35.3,33.2,30.05,ESE,119,13.0,18.0,92,0.01,,CLR,0.02,VWS V14.01,2013-04-21 13:36:00,
2013-04-21 08:37:00,35.3,33.2,30.05,ESE,119,12.0,19.0,92,0.01,,CLR,0.02,VWS V14.01,2013-04-21 13:37:00,
2013-04-21 08:38:00,35.5,33.4,30.05,SE,129,12.0,20.0,92,0.01,,CLR,0.02,VWS V14.01,2013-04-21 13:38:00,
2013-04-21 08:39:00,35.5,33.4,30.05,ESE,115,11.0,20.0,92,0.01,,CLR,0.02,VWS V14.01,2013-04-21 13:39:00,
2013-04-21 08:40:00,35.5,33.4,30.05,SE,126,10.0,20.0,92,0.01,,CLR,0.02,VWS V14.01,2013-04-21 13:40:00,
2013-04-21 08:41:00,35.5,33.4,30.05,ESE,105,13.0,20.0,92,0.01,,CLR,0.02,VWS V14.01,2013-04-21 13:41:00,
2013-04-21 08:42:00,35.5,33.4,30.05,SE,127,13.0,20.0,92,0.01,,CLR,0.02,VWS V14.01,2013-04-21 13:42:00,
2013-04-21 08:43:00,35.6,33.5,30.05,ESE,119,11.0,20.0,92,0.01,,CLR,0.02,VWS V14.01,2013-04-21 13:43:00,
2013-04-21 08:44:00,35.6,33.5,30.05,ESE,115,9.0,20.0,92,0.01,,CLR,0.02,VWS V14.01,2013-04-21 13:44:00,
2013-04-21 08:45:00,35.6,33.5,30.05,ESE,110,8.0,20.0,92,0.01,,CLR,0.02,VWS V14.01,2013-04-21 13:45:00,
2013-04-21 08:46:00,35.6,33.5,30.05,ESE,113,12.0,20.0,92,0.01,,CLR,0.02,VWS V14.01,2013-04-21 13:46:00,
2013-04-21 08:47:00,35.6,33.2,30.05,SE,125,22.0,24.0,91,0.01,,CLR,0.02,VWS V14.01,2013-04-21 13:47:00,
2013-04-21 08:48:00,35.8,33.4,30.05,ESE,115,22.0,24.0,91,0.01,,CLR,0.02,VWS V14.01,2013-04-21 13:48:00,
2013-04-21 08:49:00,35.8,33.7,30.05,SE,132,17.0,24.0,92,0.01,,CLR,0.02,VWS V14.01,2013-04-21 13:49:00,
2013-04-21 08:50:00,35.8,33.4,30.05,SE,134,11.0,24.0,91,0.01,,CLR,0.02,VWS V14.01,2013-04-21 13:50:00,
2013-04-21 08:51:00,35.9,33.5,30.05,ESE,119,17.0,24.0,91,0.01,,CLR,0.02,VWS V14.01,2013-04-21 13:51:00,
2013-04-21 08:52:00,35.9,33.5,30.05,SE,125,14.0,24.0,91,0.01,,CLR,0.02,VWS V14.01,2013-04-21 13:52:00,
2013-04-21 08:53:00,35.9,33.5,30.05,SE,125,24.0,24.0,91,0.01,,CLR,0.02,VWS V14.01,2013-04-21 13:53:00,
2013-04-21 08:54:00,36.0,33.6,30.05,ESE,112,12.0,24.0,91,0.01,,CLR,0.02,VWS V14.01,2013-04-21 13:54:00,
2013-04-21 08:55:00,36.0,33.6,30.05,ESE,119,14.0,24.0,91,0.01,,CLR,0.02,VWS V14.01,2013-04-21 13:55:00,
2013-04-21 08:56:00,36.0,33.4,30.05,ESE,123,12.0,24.0,90,0.01,,CLR,0.02,VWS V14.01,2013-04-21 13:56:00,
2013-04-21 08:57:00,36.2,33.6,30.05,SE,126,17.0,24.0,90,0.01,,CLR,0.02,VWS V14.01,2013-04-21 13:57:00,
2013-04-21 08:58:00,36.2,33.6,30.05,ESE,123,21.0,24.0,90,0.01,,CLR,0.02,VWS V14.01,2013-04-21 13:58:00,
2013-04-21 08:59:00,36.3,33.7,30.05,SE,132,13.0,24.0,90,0.01,,CLR,0.02,VWS V14.01,2013-04-21 13:59:00,
2013-04-21 09:00:00,36.3,33.4,30.05,ESE,115,15.0,24.0,89,0.01,,CLR,0.02,VWS V14.01,2013-04-21 14:00:00,
2013-04-21 09:01:00,36.5,33.6,30.05,SE,125,24.0,24.0,89,0.01,,CLR,0.02,VWS V14.01,2013-04-21 14:01:00,
2013-04-21 09:02:00,36.5,33.6,30.05,SSE,151,16.0,24.0,89,0.01,,CLR,0.02,VWS V14.01,2013-04-21 14:02:00,
2013-04-21 09:03:00,36.5,33.6,30.05,SE,132,16.0,24.0,89,0.01,,CLR,0.02,VWS V14.01,2013-04-21 14:03:00,
2013-04-21 09:04:00,36.5,33.6,30.05,ESE,110,26.0,26.0,89,0.01,,CLR,0.02,VWS V14.01,2013-04-21 14:04:00,
2013-04-21 09:05:00,36.6,33.4,30.05,ESE,120,12.0,26.0,88,0.01,,CLR,0.02,VWS V14.01,2013-04-21 14:05:00,
2013-04-21 09:06:00,36.6,33.4,30.05,SE,133,18.0,26.0,88,0.01,,CLR,0.02,VWS V14.01,2013-04-21 14:06:00,
2013-04-21 09:07:00,36.6,33.4,30.05,ESE,108,17.0,26.0,88,0.01,,CLR,0.02,VWS V14.01,2013-04-21 14:07:00,
2013-04-21 09:08:00,36.8,33.6,30.05,ESE,110,14.0,26.0,88,0.01,,CLR,0.02,VWS V14.01,2013-04-21 14:08:00,
2013-04-21 09:09:00,36.8,33.6,30.05,ESE,112,16.0,26.0,88,0.01,,CLR,0.02,VWS V14.01,2013-04-21 14:09:00,
2013-04-21 09:10:00,36.9,33.7,30.05,ESE,119,10.0,26.0,88,0.01,,CLR,0.02,VWS V14.01,2013-04-21 14:10:00,
2013-04-21 09:11:00,36.9,33.7,30.05,ESE,103,11.0,26.0,88,0.01,,CLR,0.02,VWS V14.01,2013-04-21 14:11:00,
2013-04-21 09:12:00,36.9,33.4,30.05,SE,133,18.0,26.0,87,0.01,,CLR,0.02,VWS V14.01,2013-04-21 14:12:00,
2013-04-21 09:13:00,37.0,33.5,30.05,SE,132,10.0,26.0,87,0.01,,CLR,0.02,VWS V14.01,2013-04-21 14:13:00,
2013-04-21 09:14:00,37.0,33.5,30.05,SE,126,11.0,26.0,87,0.01,,CLR,0.02,VWS V14.01,2013-04-21 14:14:00,
2013-04-21 09:15:00,37.0,33.5,30.04,SE,136,11.0,26.0,87,0.01,,CLR,0.02,VWS V14.01,2013-04-21 14:15:00,
2013-04-21 09:16:00,37.2,33.7,30.04,SE,136,20.0,26.0,87,0.01,,CLR,0.02,VWS V14.01,2013-04-21 14:16:00,
2013-04-21 09:17:00,37.2,33.7,30.04,ESE,116,14.0,26.0,87,0.01,,CLR,0.02,VWS V14.01,2013-04-21 14:17:00,
2013-04-21 09:18:00,37.3,33.8,30.04,ESE,122,13.0,26.0,87,0.01,,CLR,0.02,VWS V14.01,2013-04-21 14:18:00,
2013-04-21 09:19:00,37.3,33.5,30.04,SE,129,17.0,26.0,86,0.01,,CLR,0.02,VWS V14.01,2013-04-21 14:19:00,
2013-04-21 09:20:00,37.3,33.5,30.04,ESE,109,13.0,26.0,86,0.01,,CLR,0.02,VWS V14.01,2013-04-21 14:20:00,
2013-04-21 09:21:00,37.5,33.7,30.04,ESE,109,13.0,26.0,86,0.01,,CLR,0.02,VWS V14.01,2013-04-21 14:21:00,
2013-04-21 09:22:00,37.5,33.7,30.04,SE,140,21.0,26.0,86,0.01,,CLR,0.02,VWS V14.01,2013-04-21 14:22:00,
2013-04-21 09:23:00,37.6,33.8,30.04,ESE,109,17.0,26.0,86,0.01,,CLR,0.02,VWS V14.01,2013-04-21 14:23:00,
2013-04-21 09:24:00,37.6,33.8,30.04,ESE,110,11.0,26.0,86,0.01,,CLR,0.02,VWS V14.01,2013-04-21 14:24:00,
2013-04-21 09:25:00,37.8,34.0,30.04,SE,130,19.0,26.0,86,0.01,,CLR,0.02,VWS V14.01,2013-04-21 14:25:00,
2013-04-21 09:26:00,37.8,33.7,30.04,ESE,120,12.0,26.0,85,0.01,,CLR,0.02,VWS V14.01,2013-04-21 14:26:00,
2013-04-21 09:27:00,37.9,33.8,30.04,ESE,123,19.0,26.0,85,0.01,,CLR,0.02,VWS V14.01,2013-04-21 14:27:00,
2013-04-21 09:28:00,38.0,33.9,30.04,ESE,123,11.0,26.0,85,0.01,,CLR,0.02,VWS V14.01,2013-04-21 14:28:00,
2013-04-21 09:29:00,38.0,33.6,30.04,SE,125,14.0,26.0,84,0.01,,CLR,0.02,VWS V14.01,2013-04-21 14:29:00,
2013-04-21 09:30:00,38.2,34.1,30.04,SE,129,16.0,26.0,85,0.01,,CLR,0.02,VWS V14.01,2013-04-21 14:30:00,
2013-04-21 09:31:00,38.3,33.9,30.04,SE,129,14.0,22.0,84,0.00,,CLR,0.02,VWS V14.01,2013-04-21 14:31:00,
2013-04-21 09:32:00,38.3,33.9,30.04,ESE,112,16.0,22.0,84,0.00,,CLR,0.02,VWS V14.01,2013-04-21 14:32:00,
2013-04-21 09:33:00,38.5,34.1,30.04,ESE,120,19.0,22.0,84,0.00,,CLR,0.02,VWS V14.01,2013-04-21 14:33:00,
2013-04-21 09:34:00,38.5,33.8,30.04,SE,134,18.0,24.0,83,0.00,,CLR,0.02,VWS V14.01,2013-04-21 14:34:00,
2013-04-21 09:35:00,38.5,33.8,30.04,ESE,120,15.0,24.0,83,0.00,,CLR,0.02,VWS V14.01,2013-04-21 14:35:00,
2013-04-21 09:36:00,38.5,33.8,30.04,SE,129,26.0,26.0,83,0.00,,CLR,0.02,VWS V14.01,2013-04-21 14:36:00,
2013-04-21 09:37:00,38.5,33.8,30.04,SSE,151,26.0,26.0,83,0.00,,CLR,0.02,VWS V14.01,2013-04-21 14:37:00,
2013-04-21 09:38:00,38.5,33.8,30.04,ESE,118,11.0,26.0,83,0.00,,CLR,0.02,VWS V14.01,2013-04-21 14:38:00,
2013-04-21 09:39:00,38.5,33.8,30.04,ESE,115,16.0,26.0,83,0.00,,CLR,0.02,VWS V14.01,2013-04-21 14:39:00,
2013-04-21 09:40:00,38.6,33.9,30.04,ESE,109,17.0,26.0,83,0.00,,CLR,0.02,VWS V14.01,2013-04-21 14:40:00,
2013-04-21 09:41:00,38.6,33.9,30.04,ESE,116,16.0,26.0,83,0.00,,CLR,0.02,VWS V14.01,2013-04-21 14:41:00,
2013-04-21 09:42:00,38.6,33.6,30.04,SE,129,12.0,26.0,82,0.00,,CLR,0.02,VWS V14.01,2013-04-21 14:42:00,
2013-04-21 09:43:00,38.6,33.9,30.04,SSE,153,12.0,26.0,83,0.00,,CLR,0.02,VWS V14.01,2013-04-21 14:43:00,
2013-04-21 09:44:00,38.6,33.9,30.04,SSE,151,13.0,26.0,83,0.00,,CLR,0.02,VWS V14.01,2013-04-21 14:44:00,
2013-04-21 09:45:00,38.8,33.8,30.03,SE,137,19.0,26.0,82,0.00,,CLR,0.02,VWS V14.01,2013-04-21 14:45:00,
2013-04-21 09:46:00,38.8,33.8,30.03,SSE,166,13.0,26.0,82,0.00,,CLR,0.02,VWS V14.01,2013-04-21 14:46:00,
2013-04-21 09:47:00,38.8,33.8,30.03,ESE,116,17.0,26.0,82,0.00,,CLR,0.02,VWS V14.01,2013-04-21 14:47:00,
2013-04-21 09:48:00,38.8,33.8,30.03,SE,134,17.0,26.0,82,0.00,,CLR,0.02,VWS V14.01,2013-04-21 14:48:00,
2013-04-21 09:49:00,38.8,33.8,30.03,ESE,103,11.0,26.0,82,0.00,,CLR,0.02,VWS V14.01,2013-04-21 14:49:00,
2013-04-21 09:50:00,38.9,34.2,30.03,SE,144,12.0,26.0,83,0.00,,CLR,0.02,VWS V14.01,2013-04-21 14:50:00,
2013-04-21 09:51:00,38.9,33.9,30.03,ESE,123,25.0,26.0,82,0.00,,CLR,0.02,VWS V14.01,2013-04-21 14:51:00,
2013-04-21 09:52:00,39.1,33.8,30.03,ESE,108,14.0,26.0,81,0.00,,CLR,0.02,VWS V14.01,2013-04-21 14:52:00,
2013-04-21 09:53:00,39.1,33.8,30.03,ESE,120,19.0,26.0,81,0.00,,CLR,0.02,VWS V14.01,2013-04-21 14:53:00,
2013-04-21 09:54:00,39.1,33.8,30.03,SE,130,18.0,26.0,81,0.00,,CLR,0.02,VWS V14.01,2013-04-21 14:54:00,
2013-04-21 09:55:00,39.1,33.8,30.03,SE,139,12.0,26.0,81,0.00,,CLR,0.02,VWS V14.01,2013-04-21 14:55:00,
2013-04-21 09:56:00,39.2,33.9,30.03,ESE,118,8.0,26.0,81,0.00,,CLR,0.02,VWS V14.01,2013-04-21 14:56:00,
2013-04-21 09:57:00,39.2,33.9,30.03,ESE,115,7.0,26.0,81,0.00,,CLR,0.02,VWS V14.01,2013-04-21 14:57:00,
2013-04-21 09:58:00,39.3,34.3,30.03,SE,133,8.0,26.0,82,0.00,,CLR,0.02,VWS V14.01,2013-04-21 14:58:00,
2013-04-21 09:59:00,39.3,34.0,30.03,SE,126,7.0,26.0,81,0.00,,CLR,0.02,VWS V14.01,2013-04-21 14:59:00,
2013-04-21 10:00:00,39.5,34.2,30.03,ESE,110,14.0,26.0,81,0.00,,CLR,0.02,VWS V14.01,2013-04-21 15:00:00,
2013-04-21 10:01:00,39.5,34.2,30.03,SE,125,13.0,14.0,81,0.00,,CLR,0.02,VWS V14.01,2013-04-21 15:01:00,
2013-04-21 10:02:00,39.5,33.8,30.03,SE,142,17.0,21.0,80,0.00,,CLR,0.02,VWS V14.01,2013-04-21 15:02:00,
2013-04-21 10:03:00,39.6,34.0,30.03,ESE,120,11.0,21.0,80,0.00,,CLR,0.02,VWS V14.01,2013-04-21 15:03:00,
2013-04-21 10:04:00,39.8,34.1,30.03,ESE,118,16.0,21.0,80,0.00,,CLR,0.02,VWS V14.01,2013-04-21 15:04:00,
2013-04-21 10:05:00,39.9,33.9,30.03,SE,129,11.0,21.0,79,0.00,,CLR,0.02,VWS V14.01,2013-04-21 15:05:00,
2013-04-21 10:06:00,40.1,34.1,30.03,SE,132,7.0,21.0,79,0.00,,CLR,0.02,VWS V14.01,2013-04-21 15:06:00,
2013-04-21 10:07:00,40.3,34.3,30.03,SSE,147,11.0,21.0,79,0.00,,CLR,0.02,VWS V14.01,2013-04-21 15:07:00,
2013-04-21 10:08:00,40.3,33.7,30.03,SSE,163,27.0,27.0,77,0.00,,CLR,0.02,VWS V14.01,2013-04-21 15:08:00,
2013-04-21 10:09:00,40.3,33.3,30.03,ESE,115,20.0,31.0,76,0.00,,CLR,0.02,VWS V14.01,2013-04-21 15:09:00,
2013-04-21 10:10:00,40.3,33.7,30.03,SE,136,13.0,31.0,77,0.00,,CLR,0.02,VWS V14.01,2013-04-21 15:10:00,
2013-04-21 10:11:00,40.5,33.5,30.03,SSE,150,11.0,31.0,76,0.00,,CLR,0.02,VWS V14.01,2013-04-21 15:11:00,
2013-04-21 10:12:00,40.5,33.9,30.03,ESE,119,25.0,31.0,77,0.00,,CLR,0.02,VWS V14.01,2013-04-21 15:12:00,
2013-04-21 10:13:00,40.5,33.2,30.03,SE,126,10.0,31.0,75,0.00,,CLR,0.02,VWS V14.01,2013-04-21 15:13:00,
2013-04-21 10:14:00,40.5,33.5,30.03,ESE,119,11.0,31.0,76,0.00,,CLR,0.02,VWS V14.01,2013-04-21 15:14:00,
2013-04-21 10:15:00,40.6,33.6,30.03,ESE,110,21.0,31.0,76,0.00,,CLR,0.02,VWS V14.01,2013-04-21 15:15:00,
2013-04-21 10:16:00,40.6,33.6,30.03,SW,218,18.0,31.0,76,0.00,,CLR,0.02,VWS V14.01,2013-04-21 15:16:00,
2013-04-21 10:17:00,40.8,33.8,30.03,SE,146,20.0,31.0,76,0.00,,CLR,0.02,VWS V14.01,2013-04-21 15:17:00,
2013-04-21 10:18:00,40.6,33.3,30.03,SE,139,21.0,31.0,75,0.00,,CLR,0.02,VWS V14.01,2013-04-21 15:18:00,
2013-04-21 10:19:00,40.6,33.3,30.03,SE,129,20.0,31.0,75,0.00,,CLR,0.02,VWS V14.01,2013-04-21 15:19:00,
2013-04-21 10:20:00,40.6,33.3,30.03,SE,146,13.0,31.0,75,0.00,,CLR,0.02,VWS V14.01,2013-04-21 15:20:00,
2013-04-21 10:21:00,40.6,33.3,30.03,SE,133,16.0,31.0,75,0.00,,CLR,0.02,VWS V14.01,2013-04-21 15:21:00,
2013-04-21 10:22:00,40.8,33.8,30.03,SE,146,8.0,31.0,76,0.00,,CLR,0.02,VWS V14.01,2013-04-21 15:22:00,
2013-04-21 10:23:00,40.8,33.8,30.03,SE,129,13.0,31.0,76,0.00,,CLR,0.02,VWS V14.01,2013-04-21 15:23:00,
2013-04-21 10:24:00,40.9,33.6,30.03,ESE,122,19.0,31.0,75,0.00,,CLR,0.02,VWS V14.01,2013-04-21 15:24:00,
2013-04-21 10:25:00,40.9,33.6,30.03,SSE,149,12.0,31.0,75,0.00,,CLR,0.02,VWS V14.01,2013-04-21 15:25:00,
2013-04-21 10:26:00,40.9,33.6,30.03,ESE,102,16.0,31.0,75,0.00,,CLR,0.02,VWS V14.01,2013-04-21 15:26:00,
2013-04-21 10:27:00,40.9,33.6,30.03,SSE,154,19.0,31.0,75,0.00,,CLR,0.02,VWS V14.01,2013-04-21 15:27:00,
2013-04-21 10:28:00,40.8,33.5,30.03,ESE,119,22.0,31.0,75,0.00,,CLR,0.02,VWS V14.01,2013-04-21 15:28:00,
2013-04-21 10:29:00,40.8,33.5,30.03,ESE,108,18.0,31.0,75,0.00,,CLR,0.02,VWS V14.01,2013-04-21 15:29:00,
2013-04-21 10:30:00,40.8,33.5,30.03,ESE,108,11.0,31.0,75,0.00,,CLR,0.02,VWS V14.01,2013-04-21 15:30:00,
2013-04-21 10:31:00,40.6,33.3,30.03,SE,129,15.0,25.0,75,0.00,,CLR,0.02,VWS V14.01,2013-04-21 15:31:00,
2013-04-21 10:32:00,40.6,33.3,30.03,ESE,108,17.0,27.0,75,0.00,,CLR,0.02,VWS V14.01,2013-04-21 15:32:00,
2013-04-21 10:33:00,40.6,33.6,30.03,SE,129,12.0,27.0,76,0.00,,CLR,0.02,VWS V14.01,2013-04-21 15:33:00,
2013-04-21 10:34:00,40.6,33.3,30.03,ESE,119,11.0,27.0,75,0.00,,CLR,0.02,VWS V14.01,2013-04-21 15:34:00,
2013-04-21 10:35:00,40.6,33.3,30.03,ESE,116,12.0,27.0,75,0.00,,CLR,0.02,VWS V14.01,2013-04-21 15:35:00,
2013-04-21 10:36:00,40.6,33.6,30.03,SSE,158,16.0,27.0,76,0.00,,CLR,0.02,VWS V14.01,2013-04-21 15:36:00,
2013-04-21 10:37:00,40.6,33.6,30.03,SE,126,16.0,27.0,76,0.00,,CLR,0.02,VWS V14.01,2013-04-21 15:37:00,
2013-04-21 10:38:00,40.6,33.3,30.03,ESE,123,17.0,27.0,75,0.00,,CLR,0.02,VWS V14.01,2013-04-21 15:38:00,
2013-04-21 10:39:00,40.8,33.8,30.03,SE,125,12.0,27.0,76,0.00,,CLR,0.02,VWS V14.01,2013-04-21 15:39:00,
2013-04-21 10:40:00,40.8,33.8,30.03,ESE,122,20.0,27.0,76,0.00,,CLR,0.02,VWS V14.01,2013-04-21 15:40:00,
2013-04-21 10:41:00,40.8,33.5,30.03,ESE,119,22.0,27.0,75,0.00,,CLR,0.02,VWS V14.01,2013-04-21 15:41:00,
2013-04-21 10:42:00,40.8,33.5,30.03,ESE,108,16.0,27.0,75,0.00,,CLR,0.02,VWS V14.01,2013-04-21 15:42:00,
2013-04-21 10:43:00,40.9,33.6,30.03,ESE,109,10.0,27.0,75,0.00,,CLR,0.02,VWS V14.01,2013-04-21 15:43:00,
2013-04-21 10:44:00,40.9,33.9,30.03,SE,136,21.0,27.0,76,0.00,,CLR,0.02,VWS V14.01,2013-04-21 15:44:00,
2013-04-21 10:45:00,41.1,33.8,30.02,SE,125,12.0,27.0,75,0.00,,CLR,0.02,VWS V14.01,2013-04-21 15:45:00,
2013-04-21 10:46:00,41.1,34.1,30.02,ESE,119,14.0,27.0,76,0.00,,CLR,0.02,VWS V14.01,2013-04-21 15:46:00,
2013-04-21 10:47:00,41.2,33.9,30.02,ESE,119,15.0,27.0,75,0.00,,CLR,0.02,VWS V14.01,2013-04-21 15:47:00,
2013-04-21 10:48:00,41.2,33.9,30.02,SE,136,16.0,27.0,75,0.00,,CLR,0.02,VWS V14.01,2013-04-21 15:48:00,
2013-04-21 10:49:00,41.2,33.9,30.02,ESE,113,6.0,27.0,75,0.00,,CLR,0.02,VWS V14.01,2013-04-21 15:49:00,
2013-04-21 10:50:00,41.3,34.0,30.02,SE,129,17.0,27.0,75,0.00,,CLR,0.02,VWS V14.01,2013-04-21 15:50:00,
2013-04-21 10:51:00,41.5,34.2,30.02,SE,144,16.0,27.0,75,0.00,,CLR,0.02,VWS V14.01,2013-04-21 15:51:00,
2013-04-21 10:52:00,41.5,33.8,30.02,SSE,157,19.0,27.0,74,0.00,,CLR,0.02,VWS V14.01,2013-04-21 15:52:00,
2013-04-21 10:53:00,41.5,33.8,30.02,ESE,122,13.0,27.0,74,0.00,,CLR,0.02,VWS V14.01,2013-04-21 15:53:00,
2013-04-21 10:54:00,41.6,34.3,30.02,SE,125,14.0,27.0,75,0.00,,CLR,0.02,VWS V14.01,2013-04-21 15:54:00,
2013-04-21 10:55:00,41.6,33.9,30.02,SE,140,15.0,27.0,74,0.00,,CLR,0.02,VWS V14.01,2013-04-21 15:55:00,
2013-04-21 10:56:00,41.6,33.9,30.02,ESE,123,12.0,27.0,74,0.00,,CLR,0.02,VWS V14.01,2013-04-21 15:56:00,
2013-04-21 10:57:00,41.6,33.9,30.02,SE,134,22.0,27.0,74,0.00,,CLR,0.02,VWS V14.01,2013-04-21 15:57:00,
2013-04-21 10:58:00,41.6,33.9,30.02,ESE,109,18.0,27.0,74,0.00,,CLR,0.02,VWS V14.01,2013-04-21 15:58:00,
2013-04-21 10:59:00,41.6,33.9,30.02,ESE,123,13.0,27.0,74,0.00,,CLR,0.02,VWS V14.01,2013-04-21 15:59:00,
2013-04-21 11:00:00,41.8,34.5,30.01,ESE,119,20.0,27.0,75,0.00,,CLR,0.02,VWS V14.01,2013-04-21 16:00:00,
2013-04-21 11:01:00,41.8,34.1,30.01,ESE,123,17.0,21.0,74,0.00,,CLR,0.02,VWS V14.01,2013-04-21 16:01:00,
2013-04-21 11:02:00,41.8,34.1,30.01,ESE,109,14.0,24.0,74,0.00,,CLR,0.02,VWS V14.01,2013-04-21 16:02:00,
2013-04-21 11:03:00,41.8,34.1,30.01,SE,127,12.0,24.0,74,0.00,,CLR,0.02,VWS V14.01,2013-04-21 16:03:00,
2013-04-21 11:04:00,41.9,34.2,30.01,SE,127,13.0,24.0,74,0.00,,CLR,0.02,VWS V14.01,2013-04-21 16:04:00,
2013-04-21 11:05:00,42.1,34.4,30.01,SE,146,12.0,24.0,74,0.00,,CLR,0.02,VWS V14.01,2013-04-21 16:05:00,
2013-04-21 11:06:00,42.2,34.5,30.01,SSE,150,11.0,24.0,74,0.00,,CLR,0.02,VWS V14.01,2013-04-21 16:06:00,
2013-04-21 11:07:00,42.3,34.6,30.01,SSE,147,12.0,24.0,74,0.00,,CLR,0.02,VWS V14.01,2013-04-21 16:07:00,
2013-04-21 11:08:00,42.5,34.8,30.01,ESE,122,10.0,24.0,74,0.00,,CLR,0.02,VWS V14.01,2013-04-21 16:08:00,
2013-04-21 11:09:00,42.6,34.6,30.01,SE,125,25.0,25.0,73,0.00,,CLR,0.02,VWS V14.01,2013-04-21 16:09:00,
2013-04-21 11:10:00,42.6,34.2,30.01,SE,129,14.0,25.0,72,0.00,,CLR,0.02,VWS V14.01,2013-04-21 16:10:00,
2013-04-21 11:11:00,42.6,34.6,30.01,ESE,109,8.0,25.0,73,0.00,,CLR,0.02,VWS V14.01,2013-04-21 16:11:00,
2013-04-21 11:12:00,42.6,34.6,30.01,ESE,123,16.0,25.0,73,0.00,,CLR,0.02,VWS V14.01,2013-04-21 16:12:00,
2013-04-21 11:13:00,42.8,34.8,30.01,ESE,119,19.0,25.0,73,0.00,,CLR,0.02,VWS V14.01,2013-04-21 16:13:00,
2013-04-21 11:14:00,42.6,34.6,30.01,SE,139,12.0,25.0,73,0.00,,CLR,0.02,VWS V14.01,2013-04-21 16:14:00,
2013-04-21 11:15:00,42.5,34.5,30.00,SE,130,13.0,25.0,73,0.00,,CLR,0.02,VWS V14.01,2013-04-21 16:15:00,
2013-04-21 11:16:00,42.3,34.3,30.00,SE,143,22.0,26.0,73,0.00,,CLR,0.02,VWS V14.01,2013-04-21 16:16:00,
2013-04-21 11:17:00,42.2,34.2,30.00,ESE,119,20.0,26.0,73,0.00,,CLR,0.02,VWS V14.01,2013-04-21 16:17:00,
2013-04-21 11:18:00,42.2,34.5,30.00,SE,137,13.0,26.0,74,0.00,,CLR,0.02,VWS V14.01,2013-04-21 16:18:00,
2013-04-21 11:19:00,42.2,34.5,30.00,SE,125,8.0,26.0,74,0.00,,CLR,0.02,VWS V14.01,2013-04-21 16:19:00,
2013-04-21 11:20:00,42.2,34.9,30.00,ESE,116,14.0,26.0,75,0.00,,CLR,0.02,VWS V14.01,2013-04-21 16:20:00,
2013-04-21 11:21:00,42.3,34.6,30.00,SW,221,10.0,26.0,74,0.00,,CLR,0.02,VWS V14.01,2013-04-21 16:21:00,
2013-04-21 11:22:00,42.5,34.8,30.00,ESE,119,14.0,26.0,74,0.00,,CLR,0.02,VWS V14.01,2013-04-21 16:22:00,
2013-04-21 11:23:00,42.6,34.6,30.00,East,101,8.0,26.0,73,0.00,,CLR,0.02,VWS V14.01,2013-04-21 16:23:00,
2013-04-21 11:24:00,42.8,34.8,30.00,ESE,119,12.0,26.0,73,0.00,,CLR,0.02,VWS V14.01,2013-04-21 16:24:00,
2013-04-21 11:25:00,42.9,35.2,30.00,ESE,109,5.0,26.0,74,0.00,,CLR,0.02,VWS V14.01,2013-04-21 16:25:00,
2013-04-21 11:26:00,42.9,34.8,30.00,SE,137,11.0,26.0,73,0.00,,CLR,0.02,VWS V14.01,2013-04-21 16:26:00,
2013-04-21 11:27:00,43.2,35.1,30.00,ESE,110,14.0,26.0,73,0.00,,CLR,0.02,VWS V14.01,2013-04-21 16:27:00,
2013-04-21 11:28:00,43.2,35.1,30.00,SE,137,19.0,26.0,73,0.00,,CLR,0.02,VWS V14.01,2013-04-21 16:28:00,
2013-04-21 11:29:00,43.2,34.8,30.00,ESE,110,15.0,26.0,72,0.00,,CLR,0.02,VWS V14.01,2013-04-21 16:29:00,
2013-04-21 11:30:00,43.2,34.8,30.00,SE,125,20.0,26.0,72,0.00,,CLR,0.02,VWS V14.01,2013-04-21 16:30:00,
2013-04-21 11:31:00,43.2,34.8,30.00,SE,132,13.0,20.0,72,0.00,,CLR,0.02,VWS V14.01,2013-04-21 16:31:00,
2013-04-21 11:32:00,43.1,34.7,30.00,SE,132,18.0,21.0,72,0.00,,CLR,0.02,VWS V14.01,2013-04-21 16:32:00,
2013-04-21 11:33:00,43.1,34.7,30.00,ESE,119,20.0,21.0,72,0.00,,CLR,0.02,VWS V14.01,2013-04-21 16:33:00,
2013-04-21 11:34:00,42.9,34.5,30.00,SE,134,17.0,21.0,72,0.00,,CLR,0.02,VWS V14.01,2013-04-21 16:34:00,
2013-04-21 11:35:00,42.9,34.8,30.00,SE,129,15.0,21.0,73,0.00,,CLR,0.02,VWS V14.01,2013-04-21 16:35:00,
2013-04-21 11:36:00,42.9,34.8,30.00,ESE,110,11.0,21.0,73,0.00,,CLR,0.02,VWS V14.01,2013-04-21 16:36:00,
2013-04-21 11:37:00,42.8,34.8,30.00,ESE,119,18.0,22.0,73,0.00,,CLR,0.02,VWS V14.01,2013-04-21 16:37:00,
2013-04-21 11:38:00,42.8,35.1,30.00,ESE,115,15.0,22.0,74,0.00,,CLR,0.02,VWS V14.01,2013-04-21 16:38:00,
2013-04-21 11:39:00,42.8,34.8,30.00,SE,129,25.0,25.0,73,0.00,,CLR,0.02,VWS V14.01,2013-04-21 16:39:00,
2013-04-21 11:40:00,42.8,35.1,30.00,SE,146,17.0,25.0,74,0.00,,CLR,0.02,VWS V14.01,2013-04-21 16:40:00,
2013-04-21 11:41:00,42.8,35.1,30.00,SE,139,13.0,25.0,74,0.00,,CLR,0.02,VWS V14.01,2013-04-21 16:41:00,
2013-04-21 11:42:00,42.9,35.2,30.00,ESE,122,10.0,25.0,74,0.00,,CLR,0.02,VWS V14.01,2013-04-21 16:42:00,
2013-04-21 11:43:00,43.1,35.4,30.00,SE,139,14.0,25.0,74,0.00,,CLR,0.02,VWS V14.01,2013-04-21 16:43:00,
2013-04-21 11:44:00,43.1,35.0,30.00,ESE,112,14.0,25.0,73,0.00,,CLR,0.02,VWS V14.01,2013-04-21 16:44:00,
2013-04-21 11:45:00,43.2,35.5,29.98,ESE,122,7.0,25.0,74,0.00,,CLR,0.02,VWS V14.01,2013-04-21 16:45:00,
2013-04-21 11:46:00,43.3,35.6,29.98,ESE,116,10.0,25.0,74,0.00,,CLR,0.02,VWS V14.01,2013-04-21 16:46:00,
2013-04-21 11:47:00,43.5,35.8,29.98,ESE,112,13.0,25.0,74,0.00,,CLR,0.02,VWS V14.01,2013-04-21 16:47:00,
2013-04-21 11:48:00,43.5,35.4,29.98,ESE,112,12.0,25.0,73,0.00,,CLR,0.02,VWS V14.01,2013-04-21 16:48:00,
2013-04-21 11:49:00,43.6,35.9,29.98,ESE,109,11.0,25.0,74,0.00,,CLR,0.02,VWS V14.01,2013-04-21 16:49:00,
2013-04-21 11:50:00,43.6,35.5,29.98,ESE,113,13.0,25.0,73,0.00,,CLR,0.02,VWS V14.01,2013-04-21 16:50:00,
2013-04-21 11:51:00,43.8,35.7,29.98,East,98,22.0,25.0,73,0.00,,CLR,0.02,VWS V14.01,2013-04-21 16:51:00,
2013-04-21 11:52:00,43.6,35.5,29.98,ESE,123,13.0,27.0,73,0.00,,CLR,0.02,VWS V14.01,2013-04-21 16:52:00,
2013-04-21 11:53:00,43.8,36.1,29.98,SE,137,14.0,27.0,74,0.00,,CLR,0.02,VWS V14.01,2013-04-21 16:53:00,
2013-04-21 11:54:00,43.8,35.7,29.98,ESE,119,19.0,27.0,73,0.00,,CLR,0.02,VWS V14.01,2013-04-21 16:54:00,
2013-04-21 11:55:00,43.8,35.7,29.98,ESE,120,17.0,27.0,73,0.00,,CLR,0.02,VWS V14.01,2013-04-21 16:55:00,
2013-04-21 11:56:00,43.8,36.1,29.98,SE,140,20.0,27.0,74,0.00,,CLR,0.02,VWS V14.01,2013-04-21 16:56:00,
2013-04-21 11:57:00,43.9,35.8,29.98,SE,140,17.0,27.0,73,0.00,,CLR,0.02,VWS V14.01,2013-04-21 16:57:00,
2013-04-21 11:58:00,43.9,35.8,29.98,SE,127,13.0,27.0,73,0.00,,CLR,0.02,VWS V14.01,2013-04-21 16:58:00,
2013-04-21 11:59:00,44.1,36.4,29.98,SE,136,19.0,27.0,74,0.00,,CLR,0.02,VWS V14.01,2013-04-21 16:59:00,
2013-04-21 12:00:00,43.9,35.8,29.97,ESE,116,18.0,27.0,73,0.00,,CLR,0.02,VWS V14.01,2013-04-21 17:00:00,
2013-04-21 12:01:00,43.9,35.8,29.97,ESE,110,17.0,20.0,73,0.00,,CLR,0.02,VWS V14.01,2013-04-21 17:01:00,
2013-04-21 12:02:00,43.8,35.7,29.97,SE,137,18.0,21.0,73,0.00,,CLR,0.02,VWS V14.01,2013-04-21 17:02:00,
2013-04-21 12:03:00,43.8,36.1,29.97,SE,132,19.0,21.0,74,0.00,,CLR,0.02,VWS V14.01,2013-04-21 17:03:00,
2013-04-21 12:04:00,43.8,35.7,29.97,SE,129,12.0,21.0,73,0.00,,CLR,0.02,VWS V14.01,2013-04-21 17:04:00,
2013-04-21 12:05:00,43.8,36.1,29.97,SSE,156,13.0,21.0,74,0.00,,CLR,0.02,VWS V14.01,2013-04-21 17:05:00,
2013-04-21 12:06:00,43.6,35.9,29.97,ESE,113,20.0,22.0,74,0.00,,CLR,0.02,VWS V14.01,2013-04-21 17:06:00,
2013-04-21 12:07:00,43.6,35.9,29.97,ESE,123,16.0,22.0,74,0.00,,CLR,0.02,VWS V14.01,2013-04-21 17:07:00,
2013-04-21 12:08:00,43.6,35.9,29.97,East,99,12.0,22.0,74,0.00,,CLR,0.02,VWS V14.01,2013-04-21 17:08:00,
2013-04-21 12:09:00,43.6,35.9,29.97,ESE,110,17.0,22.0,74,0.00,,CLR,0.02,VWS V14.01,2013-04-21 17:09:00,
2013-04-21 12:10:00,43.8,36.4,29.97,ESE,118,8.0,22.0,75,0.00,,CLR,0.02,VWS V14.01,2013-04-21 17:10:00,
2013-04-21 12:11:00,43.9,36.5,29.97,ESE,115,17.0,22.0,75,0.00,,CLR,0.02,VWS V14.01,2013-04-21 17:11:00,
2013-04-21 12:12:00,43.9,36.2,29.97,ESE,118,12.0,25.0,74,0.00,,CLR,0.02,VWS V14.01,2013-04-21 17:12:00,
2013-04-21 12:13:00,44.1,36.4,29.97,SE,139,17.0,25.0,74,0.00,,CLR,0.02,VWS V14.01,2013-04-21 17:13:00,
2013-04-21 12:14:00,44.1,36.4,29.97,SE,137,20.0,27.0,74,0.00,,CLR,0.02,VWS V14.01,2013-04-21 17:14:00,
2013-04-21 12:15:00,44.1,36.4,29.95,SE,143,17.0,27.0,74,0.00,,CLR,0.02,VWS V14.01,2013-04-21 17:15:00,
2013-04-21 12:16:00,44.2,36.5,29.95,SE,139,20.0,27.0,74,0.00,,CLR,0.02,VWS V14.01,2013-04-21 17:16:00,
2013-04-21 12:17:00,44.3,36.5,29.95,SE,144,13.0,27.0,74,0.00,,CLR,0.02,VWS V14.01,2013-04-21 17:17:00,
2013-04-21 12:18:00,44.5,36.7,29.95,South,181,9.0,27.0,74,0.00,,CLR,0.02,VWS V14.01,2013-04-21 17:18:00,
2013-04-21 12:19:00,44.6,36.8,29.95,SE,126,10.0,27.0,74,0.00,,CLR,0.02,VWS V14.01,2013-04-21 17:19:00,
2013-04-21 12:20:00,44.8,36.7,29.95,SE,132,14.0,27.0,73,0.00,,CLR,0.02,VWS V14.01,2013-04-21 17:20:00,
2013-04-21 12:21:00,44.8,36.7,29.95,SSE,153,11.0,27.0,73,0.00,,CLR,0.02,VWS V14.01,2013-04-21 17:21:00,
2013-04-21 12:22:00,44.9,36.8,29.95,ESE,110,11.0,27.0,73,0.00,,CLR,0.02,VWS V14.01,2013-04-21 17:22:00,
2013-04-21 12:23:00,44.9,36.8,29.95,SE,127,8.0,27.0,73,0.00,,CLR,0.02,VWS V14.01,2013-04-21 17:23:00,
2013-04-21 12:24:00,45.1,37.0,29.95,SE,132,18.0,27.0,73,0.00,,CLR,0.02,VWS V14.01,2013-04-21 17:24:00,
2013-04-21 12:25:00,45.1,37.0,29.95,ESE,122,18.0,27.0,73,0.00,,CLR,0.02,VWS V14.01,2013-04-21 17:25:00,
2013-04-21 12:26:00,45.1,37.0,29.95,ESE,118,13.0,27.0,73,0.00,,CLR,0.02,VWS V14.01,2013-04-21 17:26:00,
2013-04-21 12:27:00,45.2,37.1,29.95,ESE,112,11.0,27.0,73,0.00,,CLR,0.02,VWS V14.01,2013-04-21 17:27:00,
2013-04-21 12:28:00,45.4,37.3,29.95,SE,144,11.0,27.0,73,0.00,,CLR,0.02,VWS V14.01,2013-04-21 17:28:00,
2013-04-21 12:29:00,45.5,37.4,29.95,ESE,110,16.0,27.0,73,0.00,,CLR,0.02,VWS V14.01,2013-04-21 17:29:00,
2013-04-21 12:30:00,45.5,37.4,29.94,ESE,122,14.0,27.0,73,0.00,,CLR,0.02,VWS V14.01,2013-04-21 17:30:00,
2013-04-21 12:31:00,45.7,37.5,29.94,SE,130,15.0,22.0,73,0.00,,CLR,0.02,VWS V14.01,2013-04-21 17:31:00,
2013-04-21 12:32:00,45.8,37.7,29.94,SE,139,17.0,25.0,73,0.00,,CLR,0.02,VWS V14.01,2013-04-21 17:32:00,
2013-04-21 12:33:00,45.8,37.3,29.94,SE,144,17.0,25.0,72,0.00,,CLR,0.02,VWS V14.01,2013-04-21 17:33:00,
2013-04-21 12:34:00,45.8,37.3,29.94,ESE,122,13.0,25.0,72,0.00,,CLR,0.02,VWS V14.01,2013-04-21 17:34:00,
2013-04-21 12:35:00,46.0,37.5,29.94,ESE,105,16.0,25.0,72,0.00,,CLR,0.02,VWS V14.01,2013-04-21 17:35:00,
2013-04-21 12:36:00,46.0,37.1,29.94,SE,136,12.0,25.0,71,0.00,,CLR,0.02,VWS V14.01,2013-04-21 17:36:00,
2013-04-21 12:37:00,46.0,37.1,29.94,SE,125,10.0,25.0,71,0.00,,CLR,0.02,VWS V14.01,2013-04-21 17:37:00,
2013-04-21 12:38:00,46.0,37.5,29.94,SE,129,13.0,25.0,72,0.00,,CLR,0.02,VWS V14.01,2013-04-21 17:38:00,
2013-04-21 12:39:00,46.1,37.6,29.94,ESE,122,9.0,25.0,72,0.00,,CLR,0.02,VWS V14.01,2013-04-21 17:39:00,
2013-04-21 12:40:00,46.1,37.6,29.94,ESE,106,14.0,26.0,72,0.00,,CLR,0.02,VWS V14.01,2013-04-21 17:40:00,
2013-04-21 12:41:00,46.1,37.2,29.94,SE,139,24.0,28.0,71,0.00,,CLR,0.02,VWS V14.01,2013-04-21 17:41:00,
2013-04-21 12:42:00,46.1,37.2,29.94,South,170,14.0,28.0,71,0.00,,CLR,0.02,VWS V14.01,2013-04-21 17:42:00,
2013-04-21 12:43:00,46.2,37.3,29.94,ESE,115,16.0,28.0,71,0.00,,CLR,0.02,VWS V14.01,2013-04-21 17:43:00,
2013-04-21 12:44:00,46.2,37.7,29.94,ESE,112,12.0,28.0,72,0.00,,CLR,0.02,VWS V14.01,2013-04-21 17:44:00,
2013-04-21 12:45:00,46.4,37.5,29.93,ESE,118,13.0,28.0,71,0.00,,CLR,0.02,VWS V14.01,2013-04-21 17:45:00,
2013-04-21 12:46:00,46.5,37.6,29.93,ESE,122,8.0,28.0,71,0.00,,CLR,0.02,VWS V14.01,2013-04-21 17:46:00,
2013-04-21 12:47:00,46.5,37.6,29.93,SE,129,11.0,28.0,71,0.00,,CLR,0.02,VWS V14.01,2013-04-21 17:47:00,
2013-04-21 12:48:00,46.7,37.8,29.93,SE,140,11.0,28.0,71,0.00,,CLR,0.02,VWS V14.01,2013-04-21 17:48:00,
2013-04-21 12:49:00,46.8,37.9,29.93,SSE,158,8.0,28.0,71,0.00,,CLR,0.02,VWS V14.01,2013-04-21 17:49:00,
2013-04-21 12:50:00,46.8,37.5,29.93,SE,136,14.0,28.0,70,0.00,,CLR,0.02,VWS V14.01,2013-04-21 17:50:00,
2013-04-21 12:51:00,47.0,37.7,29.93,SSE,147,26.0,28.0,70,0.00,,CLR,0.02,VWS V14.01,2013-04-21 17:51:00,
2013-04-21 12:52:00,47.0,37.7,29.93,SE,142,11.0,28.0,70,0.00,,CLR,0.02,VWS V14.01,2013-04-21 17:52:00,
2013-04-21 12:53:00,47.0,37.7,29.93,SE,125,10.0,28.0,70,0.00,,CLR,0.02,VWS V14.01,2013-04-21 17:53:00,
2013-04-21 12:54:00,47.0,37.7,29.93,SE,126,20.0,28.0,70,0.00,,CLR,0.02,VWS V14.01,2013-04-21 17:54:00,
2013-04-21 12:55:00,47.0,37.4,29.93,SE,134,24.0,30.0,69,0.00,,CLR,0.02,VWS V14.01,2013-04-21 17:55:00,
2013-04-21 12:56:00,46.8,37.2,29.93,SE,143,20.0,30.0,69,0.00,,CLR,0.02,VWS V14.01,2013-04-21 17:56:00,
2013-04-21 12:57:00,47.0,37.7,29.93,SE,127,17.0,30.0,70,0.00,,CLR,0.02,VWS V14.01,2013-04-21 17:57:00,
2013-04-21 12:58:00,46.8,37.2,29.93,ESE,120,20.0,31.0,69,0.00,,CLR,0.02,VWS V14.01,2013-04-21 17:58:00,
2013-04-21 12:59:00,46.8,37.2,29.93,SE,126,16.0,31.0,69,0.00,,CLR,0.02,VWS V14.01,2013-04-21 17:59:00,
2013-04-21 13:00:00,46.8,37.2,29.92,SE,126,14.0,31.0,69,0.00,,CLR,0.02,VWS V14.01,2013-04-21 18:00:00,
2013-04-21 13:01:00,46.8,37.2,29.92,ESE,112,22.0,25.0,69,0.00,,CLR,0.02,VWS V14.01,2013-04-21 18:01:00,
2013-04-21 13:02:00,46.8,37.2,29.92,SE,126,16.0,25.0,69,0.00,,CLR,0.02,VWS V14.01,2013-04-21 18:02:00,
2013-04-21 13:03:00,47.0,37.4,29.92,SE,140,20.0,27.0,69,0.00,,CLR,0.02,VWS V14.01,2013-04-21 18:03:00,
2013-04-21 13:04:00,47.0,37.4,29.92,SE,139,19.0,27.0,69,0.00,,CLR,0.02,VWS V14.01,2013-04-21 18:04:00,
2013-04-21 13:05:00,47.0,37.7,29.92,SE,137,11.0,27.0,70,0.00,,CLR,0.02,VWS V14.01,2013-04-21 18:05:00,
2013-04-21 13:06:00,47.1,37.8,29.92,SE,140,22.0,27.0,70,0.00,,CLR,0.02,VWS V14.01,2013-04-21 18:06:00,
2013-04-21 13:07:00,47.1,37.5,29.92,SE,143,20.0,27.0,69,0.00,,CLR,0.02,VWS V14.01,2013-04-21 18:07:00,
2013-04-21 13:08:00,47.1,37.5,29.92,SE,142,12.0,27.0,69,0.00,,CLR,0.02,VWS V14.01,2013-04-21 18:08:00,
2013-04-21 13:09:00,47.1,37.8,29.92,SE,134,22.0,27.0,70,0.00,,CLR,0.02,VWS V14.01,2013-04-21 18:09:00,
2013-04-21 13:10:00,47.1,37.8,29.92,SE,137,14.0,27.0,70,0.00,,CLR,0.02,VWS V14.01,2013-04-21 18:10:00,
2013-04-21 13:11:00,47.1,37.5,29.92,SE,127,12.0,29.0,69,0.00,,CLR,0.02,VWS V14.01,2013-04-21 18:11:00,
2013-04-21 13:12:00,47.0,37.7,29.92,SE,132,12.0,29.0,70,0.00,,CLR,0.02,VWS V14.01,2013-04-21 18:12:00,
2013-04-21 13:13:00,47.0,37.4,29.92,ESE,118,12.0,29.0,69,0.00,,CLR,0.02,VWS V14.01,2013-04-21 18:13:00,
2013-04-21 13:14:00,46.8,37.5,29.92,SE,133,22.0,29.0,70,0.00,,CLR,0.02,VWS V14.01,2013-04-21 18:14:00,
2013-04-21 13:15:00,46.8,37.5,29.91,SE,133,14.0,29.0,70,0.00,,CLR,0.02,VWS V14.01,2013-04-21 18:15:00,
2013-04-21 13:16:00,46.8,37.5,29.91,SSE,147,18.0,29.0,70,0.00,,CLR,0.02,VWS V14.01,2013-04-21 18:16:00,
2013-04-21 13:17:00,46.8,37.5,29.91,SE,130,13.0,29.0,70,0.00,,CLR,0.02,VWS V14.01,2013-04-21 18:17:00,
2013-04-21 13:18:00,46.8,37.5,29.91,SE,140,11.0,29.0,70,0.00,,CLR,0.02,VWS V14.01,2013-04-21 18:18:00,
2013-04-21 13:19:00,46.8,37.5,29.91,SE,130,18.0,29.0,70,0.00,,CLR,0.02,VWS V14.01,2013-04-21 18:19:00,
2013-04-21 13:20:00,46.8,37.5,29.91,SE,127,20.0,29.0,70,0.00,,CLR,0.02,VWS V14.01,2013-04-21 18:20:00,
2013-04-21 13:21:00,46.8,37.5,29.91,SSE,166,17.0,29.0,70,0.00,,CLR,0.02,VWS V14.01,2013-04-21 18:21:00,
2013-04-21 13:22:00,47.0,37.7,29.91,SE,136,8.0,29.0,70,0.00,,CLR,0.02,VWS V14.01,2013-04-21 18:22:00,
2013-04-21 13:23:00,47.0,37.7,29.91,SE,125,19.0,29.0,70,0.00,,CLR,0.02,VWS V14.01,2013-04-21 18:23:00,
2013-04-21 13:24:00,47.0,38.1,29.91,SE,125,21.0,29.0,71,0.00,,CLR,0.02,VWS V14.01,2013-04-21 18:24:00,
2013-04-21 13:25:00,47.1,37.8,29.91,ESE,112,14.0,29.0,70,0.00,,CLR,0.02,VWS V14.01,2013-04-21 18:25:00,
2013-04-21 13:26:00,47.1,38.2,29.91,SE,125,13.0,29.0,71,0.00,,CLR,0.02,VWS V14.01,2013-04-21 18:26:00,
2013-04-21 13:27:00,47.1,37.8,29.91,SE,125,17.0,29.0,70,0.00,,CLR,0.02,VWS V14.01,2013-04-21 18:27:00,
2013-04-21 13:28:00,47.3,38.0,29.91,ESE,113,10.0,29.0,70,0.00,,CLR,0.02,VWS V14.01,2013-04-21 18:28:00,
2013-04-21 13:29:00,47.3,38.4,29.91,SE,130,14.0,29.0,71,0.00,,CLR,0.02,VWS V14.01,2013-04-21 18:29:00,
2013-04-21 13:30:00,47.3,38.0,29.91,ESE,122,20.0,29.0,70,0.00,,CLR,0.02,VWS V14.01,2013-04-21 18:30:00,
2013-04-21 13:31:00,47.1,37.8,29.91,ESE,110,19.0,20.0,70,0.00,,CLR,0.02,VWS V14.01,2013-04-21 18:31:00,
2013-04-21 13:32:00,47.1,37.8,29.91,SE,132,17.0,20.0,70,0.00,,CLR,0.02,VWS V14.01,2013-04-21 18:32:00,
2013-04-21 13:33:00,47.0,37.7,29.91,SE,146,17.0,25.0,70,0.00,,CLR,0.02,VWS V14.01,2013-04-21 18:33:00,
2013-04-21 13:34:00,47.0,37.7,29.91,ESE,118,19.0,25.0,70,0.00,,CLR,0.02,VWS V14.01,2013-04-21 18:34:00,
2013-04-21 13:35:00,46.8,37.5,29.91,ESE,116,16.0,25.0,70,0.00,,CLR,0.02,VWS V14.01,2013-04-21 18:35:00,
2013-04-21 13:36:00,46.8,37.9,29.91,ESE,120,10.0,25.0,71,0.00,,CLR,0.02,VWS V14.01,2013-04-21 18:36:00,
2013-04-21 13:37:00,47.0,38.1,29.91,ESE,108,10.0,25.0,71,0.00,,CLR,0.02,VWS V14.01,2013-04-21 18:37:00,
2013-04-21 13:38:00,47.0,38.1,29.91,SE,130,13.0,25.0,71,0.00,,CLR,0.02,VWS V14.01,2013-04-21 18:38:00,
2013-04-21 13:39:00,47.0,38.1,29.91,ESE,109,16.0,25.0,71,0.00,,CLR,0.02,VWS V14.01,2013-04-21 18:39:00,
2013-04-21 13:40:00,47.0,38.1,29.91,SE,130,16.0,25.0,71,0.00,,CLR,0.02,VWS V14.01,2013-04-21 18:40:00,
2013-04-21 13:41:00,46.8,37.9,29.91,ESE,122,18.0,25.0,71,0.00,,CLR,0.02,VWS V14.01,2013-04-21 18:41:00,
2013-04-21 13:42:00,46.8,37.9,29.91,SE,133,17.0,25.0,71,0.00,,CLR,0.02,VWS V14.01,2013-04-21 18:42:00,
2013-04-21 13:43:00,46.8,38.3,29.91,SE,129,7.0,25.0,72,0.00,,CLR,0.02,VWS V14.01,2013-04-21 18:43:00,
2013-04-21 13:44:00,46.8,38.3,29.91,SSE,147,8.0,25.0,72,0.00,,CLR,0.02,VWS V14.01,2013-04-21 18:44:00,
2013-04-21 13:45:00,47.0,38.5,29.91,ESE,105,15.0,25.0,72,0.00,,CLR,0.02,VWS V14.01,2013-04-21 18:45:00,
2013-04-21 13:46:00,47.0,38.5,29.91,SSE,156,10.0,25.0,72,0.00,,CLR,0.02,VWS V14.01,2013-04-21 18:46:00,
2013-04-21 13:47:00,47.0,38.5,29.91,ESE,123,12.0,25.0,72,0.00,,CLR,0.02,VWS V14.01,2013-04-21 18:47:00,
2013-04-21 13:48:00,47.0,38.5,29.91,SE,125,18.0,25.0,72,0.00,,CLR,0.02,VWS V14.01,2013-04-21 18:48:00,
2013-04-21 13:49:00,47.0,38.1,29.91,SSE,149,13.0,25.0,71,0.00,,CLR,0.02,VWS V14.01,2013-04-21 18:49:00,
2013-04-21 13:50:00,47.0,38.5,29.91,SE,129,12.0,25.0,72,0.00,,CLR,0.02,VWS V14.01,2013-04-21 18:50:00,
2013-04-21 13:51:00,47.0,38.5,29.91,SE,139,11.0,25.0,72,0.00,,CLR,0.02,VWS V14.01,2013-04-21 18:51:00,
2013-04-21 13:52:00,47.1,38.5,29.91,ESE,122,17.0,25.0,72,0.00,,CLR,0.02,VWS V14.01,2013-04-21 18:52:00,
2013-04-21 13:53:00,47.1,38.5,29.91,ESE,113,15.0,25.0,72,0.00,,CLR,0.02,VWS V14.01,2013-04-21 18:53:00,
2013-04-21 13:54:00,47.3,38.7,29.91,SE,129,10.0,25.0,72,0.00,,CLR,0.02,VWS V14.01,2013-04-21 18:54:00,
2013-04-21 13:55:00,47.3,38.7,29.91,SE,132,11.0,25.0,72,0.00,,CLR,0.02,VWS V14.01,2013-04-21 18:55:00,
2013-04-21 13:56:00,47.4,38.8,29.91,SE,140,10.0,25.0,72,0.00,,CLR,0.02,VWS V14.01,2013-04-21 18:56:00,
2013-04-21 13:57:00,47.4,38.8,29.91,ESE,119,16.0,25.0,72,0.00,,CLR,0.02,VWS V14.01,2013-04-21 18:57:00,
2013-04-21 13:58:00,47.4,38.8,29.91,SE,137,10.0,25.0,72,0.00,,CLR,0.02,VWS V14.01,2013-04-21 18:58:00,
2013-04-21 13:59:00,47.6,39.0,29.91,SSE,147,10.0,25.0,72,0.00,,CLR,0.02,VWS V14.01,2013-04-21 18:59:00,
2013-04-21 14:00:00,47.6,39.0,29.90,East,91,6.0,25.0,72,0.00,,CLR,0.02,VWS V14.01,2013-04-21 19:00:00,
2013-04-21 14:01:00,47.7,39.1,29.90,SSE,153,17.0,17.0,72,0.00,,CLR,0.02,VWS V14.01,2013-04-21 19:01:00,
2013-04-21 14:02:00,47.7,38.8,29.90,SE,132,9.0,18.0,71,0.00,,CLR,0.02,VWS V14.01,2013-04-21 19:02:00,
2013-04-21 14:03:00,48.0,39.4,29.90,SE,127,13.0,18.0,72,0.00,,CLR,0.02,VWS V14.01,2013-04-21 19:03:00,
2013-04-21 14:04:00,48.2,39.2,29.90,ESE,120,16.0,21.0,71,0.00,,CLR,0.02,VWS V14.01,2013-04-21 19:04:00,
2013-04-21 14:05:00,48.3,39.7,29.90,SE,129,13.0,21.0,72,0.00,,CLR,0.02,VWS V14.01,2013-04-21 19:05:00,
2013-04-21 14:06:00,48.5,39.9,29.90,ESE,119,14.0,21.0,72,0.00,,CLR,0.02,VWS V14.01,2013-04-21 19:06:00,
2013-04-21 14:07:00,48.6,39.6,29.90,SE,130,14.0,21.0,71,0.00,,CLR,0.02,VWS V14.01,2013-04-21 19:07:00,
2013-04-21 14:08:00,48.9,39.9,29.90,SE,136,21.0,21.0,71,0.00,,CLR,0.02,VWS V14.01,2013-04-21 19:08:00,
2013-04-21 14:09:00,49.1,39.8,29.90,SE,127,9.0,21.0,70,0.00,,CLR,0.02,VWS V14.01,2013-04-21 19:09:00,
2013-04-21 14:10:00,49.1,39.8,29.90,SE,139,15.0,22.0,70,0.00,,CLR,0.02,VWS V14.01,2013-04-21 19:10:00,
2013-04-21 14:11:00,49.1,39.4,29.90,ESE,112,13.0,22.0,69,0.00,,CLR,0.02,VWS V14.01,2013-04-21 19:11:00,
2013-04-21 14:12:00,49.1,39.8,29.90,ESE,112,10.0,22.0,70,0.00,,CLR,0.02,VWS V14.01,2013-04-21 19:12:00,
2013-04-21 14:13:00,49.2,39.8,29.90,SE,144,11.0,22.0,70,0.00,,CLR,0.02,VWS V14.01,2013-04-21 19:13:00,
2013-04-21 14:14:00,49.1,39.8,29.90,SE,127,15.0,22.0,70,0.00,,CLR,0.02,VWS V14.01,2013-04-21 19:14:00,
2013-04-21 14:15:00,49.1,39.8,29.90,SE,137,14.0,22.0,70,0.00,,CLR,0.02,VWS V14.01,2013-04-21 19:15:00,
2013-04-21 14:16:00,49.2,39.8,29.90,SE,130,16.0,22.0,70,0.00,,CLR,0.02,VWS V14.01,2013-04-21 19:16:00,
2013-04-21 14:17:00,49.2,39.8,29.90,SE,130,13.0,22.0,70,0.00,,CLR,0.02,VWS V14.01,2013-04-21 19:17:00,
2013-04-21 14:18:00,49.2,39.5,29.90,ESE,109,11.0,22.0,69,0.00,,CLR,0.02,VWS V14.01,2013-04-21 19:18:00,
2013-04-21 14:19:00,49.2,39.8,29.90,ESE,122,15.0,22.0,70,0.00,,CLR,0.02,VWS V14.01,2013-04-21 19:19:00,
2013-04-21 14:20:00,49.2,39.8,29.90,ESE,108,7.0,22.0,70,0.00,,CLR,0.02,VWS V14.01,2013-04-21 19:20:00,
2013-04-21 14:21:00,49.4,40.0,29.90,ESE,120,19.0,22.0,70,0.00,,CLR,0.02,VWS V14.01,2013-04-21 19:21:00,
2013-04-21 14:22:00,49.4,40.0,29.90,SE,133,15.0,22.0,70,0.00,,CLR,0.02,VWS V14.01,2013-04-21 19:22:00,
2013-04-21 14:23:00,49.2,39.8,29.90,SE,143,16.0,22.0,70,0.00,,CLR,0.02,VWS V14.01,2013-04-21 19:23:00,
2013-04-21 14:24:00,49.4,40.0,29.90,SSE,147,11.0,22.0,70,0.00,,CLR,0.02,VWS V14.01,2013-04-21 19:24:00,
2013-04-21 14:25:00,49.4,40.0,29.90,ESE,123,10.0,22.0,70,0.00,,CLR,0.02,VWS V14.01,2013-04-21 19:25:00,
2013-04-21 14:26:00,49.4,40.0,29.90,ESE,118,12.0,22.0,70,0.00,,CLR,0.02,VWS V14.01,2013-04-21 19:26:00,
2013-04-21 14:27:00,49.4,40.0,29.90,East,98,10.0,22.0,70,0.00,,CLR,0.02,VWS V14.01,2013-04-21 19:27:00,
2013-04-21 14:28:00,49.4,40.0,29.90,SE,146,9.0,22.0,70,0.00,,CLR,0.02,VWS V14.01,2013-04-21 19:28:00,
2013-04-21 14:29:00,49.5,40.1,29.90,SE,136,7.0,22.0,70,0.00,,CLR,0.02,VWS V14.01,2013-04-21 19:29:00,
2013-04-21 14:30:00,49.5,40.1,29.90,ESE,110,5.0,22.0,70,0.00,,CLR,0.02,VWS V14.01,2013-04-21 19:30:00,
2013-04-21 14:31:00,49.5,40.1,29.90,ESE,106,9.0,12.0,70,0.00,,CLR,0.02,VWS V14.01,2013-04-21 19:31:00,
2013-04-21 14:32:00,49.6,40.6,29.90,SE,133,19.0,19.0,71,0.00,,CLR,0.02,VWS V14.01,2013-04-21 19:32:00,
2013-04-21 14:33:00,49.5,40.1,29.90,SE,146,12.0,19.0,70,0.00,,CLR,0.02,VWS V14.01,2013-04-21 19:33:00,
2013-04-21 14:34:00,49.5,40.1,29.90,SE,125,9.0,19.0,70,0.00,,CLR,0.02,VWS V14.01,2013-04-21 19:34:00,
2013-04-21 14:35:00,49.6,40.2,29.90,SSE,147,11.0,19.0,70,0.00,,CLR,0.02,VWS V14.01,2013-04-21 19:35:00,
2013-04-21 14:36:00,49.6,40.2,29.90,ESE,122,13.0,19.0,70,0.00,,CLR,0.02,VWS V14.01,2013-04-21 19:36:00,
2013-04-21 14:37:00,49.6,40.2,29.90,SSE,151,13.0,19.0,70,0.00,,CLR,0.02,VWS V14.01,2013-04-21 19:37:00,
2013-04-21 14:38:00,49.6,40.2,29.90,SE,140,11.0,19.0,70,0.00,,CLR,0.02,VWS V14.01,2013-04-21 19:38:00,
2013-04-21 14:39:00,49.6,40.6,29.90,ESE,102,18.0,19.0,71,0.00,,CLR,0.02,VWS V14.01,2013-04-21 19:39:00,
2013-04-21 14:40:00,49.5,40.1,29.90,ESE,123,17.0,19.0,70,0.00,,CLR,0.02,VWS V14.01,2013-04-21 19:40:00,
2013-04-21 14:41:00,49.5,40.1,29.90,SE,137,7.0,19.0,70,0.00,,CLR,0.02,VWS V14.01,2013-04-21 19:41:00,
2013-04-21 14:42:00,49.5,40.5,29.90,ESE,123,8.0,19.0,71,0.00,,CLR,0.02,VWS V14.01,2013-04-21 19:42:00,
2013-04-21 14:43:00,49.5,40.5,29.90,SE,136,11.0,19.0,71,0.00,,CLR,0.02,VWS V14.01,2013-04-21 19:43:00,
2013-04-21 14:44:00,49.5,40.5,29.90,SE,134,8.0,19.0,71,0.00,,CLR,0.02,VWS V14.01,2013-04-21 19:44:00,
2013-04-21 14:45:00,49.6,40.6,29.89,SE,132,6.0,19.0,71,0.00,,CLR,0.02,VWS V14.01,2013-04-21 19:45:00,
2013-04-21 14:46:00,49.6,41.0,29.89,SE,133,12.0,19.0,72,0.00,,CLR,0.02,VWS V14.01,2013-04-21 19:46:00,
2013-04-21 14:47:00,49.6,40.6,29.89,SE,136,9.0,19.0,71,0.00,,CLR,0.02,VWS V14.01,2013-04-21 19:47:00,
2013-04-21 14:48:00,49.8,40.8,29.89,SE,127,8.0,19.0,71,0.00,,CLR,0.02,VWS V14.01,2013-04-21 19:48:00,
2013-04-21 14:49:00,49.8,41.2,29.89,ESE,116,10.0,19.0,72,0.00,,CLR,0.02,VWS V14.01,2013-04-21 19:49:00,
2013-04-21 14:50:00,49.9,41.2,29.89,ESE,115,20.0,20.0,72,0.00,,CLR,0.02,VWS V14.01,2013-04-21 19:50:00,
2013-04-21 14:51:00,49.9,41.2,29.89,SE,139,11.0,20.0,72,0.00,,CLR,0.02,VWS V14.01,2013-04-21 19:51:00,
2013-04-21 14:52:00,50.1,41.4,29.89,SE,134,5.0,20.0,72,0.00,,CLR,0.02,VWS V14.01,2013-04-21 19:52:00,
2013-04-21 14:53:00,50.1,41.1,29.89,SE,126,12.0,20.0,71,0.00,,CLR,0.02,VWS V14.01,2013-04-21 19:53:00,
2013-04-21 14:54:00,50.1,41.1,29.89,SE,139,10.0,20.0,71,0.00,,CLR,0.02,VWS V14.01,2013-04-21 19:54:00,
2013-04-21 14:55:00,50.2,41.2,29.89,SE,142,12.0,20.0,71,0.00,,CLR,0.02,VWS V14.01,2013-04-21 19:55:00,
2013-04-21 14:56:00,50.2,41.2,29.89,ESE,110,10.0,20.0,71,0.00,,CLR,0.02,VWS V14.01,2013-04-21 19:56:00,
2013-04-21 14:57:00,50.2,41.2,29.89,SE,133,8.0,20.0,71,0.00,,CLR,0.02,VWS V14.01,2013-04-21 19:57:00,
2013-04-21 14:58:00,50.4,41.7,29.89,ESE,123,7.0,20.0,72,0.00,,CLR,0.02,VWS V14.01,2013-04-21 19:58:00,
2013-04-21 14:59:00,50.4,41.4,29.89,ESE,123,7.0,20.0,71,0.00,,CLR,0.02,VWS V14.01,2013-04-21 19:59:00,
2013-04-21 15:00:00,50.4,41.4,29.89,SE,142,10.0,20.0,71,0.00,,CLR,0.02,VWS V14.01,2013-04-21 20:00:00,
2013-04-21 15:01:00,50.4,41.4,29.89,SE,125,6.0,13.0,71,0.00,,CLR,0.02,VWS V14.01,2013-04-21 20:01:00,
2013-04-21 15:02:00,50.4,41.7,29.89,SE,130,11.0,13.0,72,0.00,,CLR,0.02,VWS V14.01,2013-04-21 20:02:00,
2013-04-21 15:03:00,50.4,41.4,29.89,SSE,156,8.0,13.0,71,0.00,,CLR,0.02,VWS V14.01,2013-04-21 20:03:00,
2013-04-21 15:04:00,50.5,41.8,29.89,SSE,150,7.0,13.0,72,0.00,,CLR,0.02,VWS V14.01,2013-04-21 20:04:00,
2013-04-21 15:05:00,50.5,41.5,29.89,SE,126,12.0,17.0,71,0.00,,CLR,0.02,VWS V14.01,2013-04-21 20:05:00,
2013-04-21 15:06:00,50.5,41.5,29.89,SE,126,12.0,21.0,71,0.00,,CLR,0.02,VWS V14.01,2013-04-21 20:06:00,
2013-04-21 15:07:00,50.5,41.5,29.89,SE,126,10.0,21.0,71,0.00,,CLR,0.02,VWS V14.01,2013-04-21 20:07:00,
2013-04-21 15:08:00,50.5,41.5,29.89,SE,137,17.0,21.0,71,0.00,,CLR,0.02,VWS V14.01,2013-04-21 20:08:00,
2013-04-21 15:09:00,50.4,41.4,29.89,SE,136,8.0,21.0,71,0.00,,CLR,0.02,VWS V14.01,2013-04-21 20:09:00,
2013-04-21 15:10:00,50.4,41.4,29.89,SE,144,6.0,21.0,71,0.00,,CLR,0.02,VWS V14.01,2013-04-21 20:10:00,
2013-04-21 15:11:00,50.4,41.4,29.89,SE,130,10.0,21.0,71,0.00,,CLR,0.02,VWS V14.01,2013-04-21 20:11:00,
2013-04-21 15:12:00,50.4,41.4,29.89,ESE,103,6.0,21.0,71,0.00,,CLR,0.02,VWS V14.01,2013-04-21 20:12:00,
2013-04-21 15:13:00,50.4,41.4,29.89,SE,142,11.0,21.0,71,0.00,,CLR,0.02,VWS V14.01,2013-04-21 20:13:00,
2013-04-21 15:14:00,50.4,41.4,29.89,ESE,123,7.0,21.0,71,0.00,,CLR,0.02,VWS V14.01,2013-04-21 20:14:00,
2013-04-21 15:15:00,50.4,41.7,29.89,SE,144,14.0,21.0,72,0.00,,CLR,0.02,VWS V14.01,2013-04-21 20:15:00,
2013-04-21 15:16:00,50.4,41.7,29.89,SSE,154,11.0,21.0,72,0.00,,CLR,0.02,VWS V14.01,2013-04-21 20:16:00,
2013-04-21 15:17:00,50.2,41.9,29.89,SSE,156,13.0,21.0,73,0.00,,CLR,0.02,VWS V14.01,2013-04-21 20:17:00,
2013-04-21 15:18:00,50.2,41.9,29.89,ESE,112,10.0,21.0,73,0.00,,CLR,0.02,VWS V14.01,2013-04-21 20:18:00,
2013-04-21 15:19:00,50.2,41.9,29.89,SE,146,11.0,21.0,73,0.00,,CLR,0.02,VWS V14.01,2013-04-21 20:19:00,
2013-04-21 15:20:00,50.2,42.2,29.89,SE,125,7.0,21.0,74,0.00,,CLR,0.02,VWS V14.01,2013-04-21 20:20:00,
2013-04-21 15:21:00,50.2,42.2,29.89,SE,139,7.0,21.0,74,0.00,,CLR,0.02,VWS V14.01,2013-04-21 20:21:00,
2013-04-21 15:22:00,50.2,42.2,29.89,SE,136,12.0,21.0,74,0.00,,CLR,0.02,VWS V14.01,2013-04-21 20:22:00,
2013-04-21 15:23:00,50.2,42.2,29.89,SE,132,11.0,22.0,74,0.00,,CLR,0.02,VWS V14.01,2013-04-21 20:23:00,
2013-04-21 15:24:00,50.2,42.2,29.89,SE,140,12.0,22.0,74,0.00,,CLR,0.02,VWS V14.01,2013-04-21 20:24:00,
2013-04-21 15:25:00,50.4,42.4,29.89,SE,126,8.0,22.0,74,0.00,,CLR,0.02,VWS V14.01,2013-04-21 20:25:00,
2013-04-21 15:26:00,50.4,42.4,29.89,ESE,118,13.0,22.0,74,0.00,,CLR,0.02,VWS V14.01,2013-04-21 20:26:00,
2013-04-21 15:27:00,50.4,42.4,29.89,SE,142,12.0,22.0,74,0.00,,CLR,0.02,VWS V14.01,2013-04-21 20:27:00,
2013-04-21 15:28:00,50.5,42.2,29.89,SE,129,12.0,22.0,73,0.00,,CLR,0.02,VWS V14.01,2013-04-21 20:28:00,
2013-04-21 15:29:00,50.5,42.2,29.89,SE,130,12.0,22.0,73,0.00,,CLR,0.02,VWS V14.01,2013-04-21 20:29:00,
2013-04-21 15:30:00,50.5,42.2,29.88,SE,142,15.0,22.0,73,0.00,,CLR,0.02,VWS V14.01,2013-04-21 20:30:00,
2013-04-21 15:31:00,50.7,42.4,29.88,ESE,115,7.0,16.0,73,0.00,,CLR,0.02,VWS V14.01,2013-04-21 20:31:00,
2013-04-21 15:32:00,50.7,42.7,29.88,ESE,113,13.0,16.0,74,0.00,,CLR,0.02,VWS V14.01,2013-04-21 20:32:00,
2013-04-21 15:33:00,50.8,42.8,29.88,SE,136,17.0,17.0,74,0.00,,CLR,0.02,VWS V14.01,2013-04-21 20:33:00,
2013-04-21 15:34:00,50.8,42.1,29.88,SSE,149,18.0,21.0,72,0.00,,CLR,0.02,VWS V14.01,2013-04-21 20:34:00,
2013-04-21 15:35:00,50.8,42.5,29.88,SE,133,18.0,21.0,73,0.00,,CLR,0.02,VWS V14.01,2013-04-21 20:35:00,
2013-04-21 15:36:00,50.7,42.4,29.88,SE,130,12.0,21.0,73,0.00,,CLR,0.02,VWS V14.01,2013-04-21 20:36:00,
2013-04-21 15:37:00,50.8,42.5,29.88,ESE,108,6.0,21.0,73,0.00,,CLR,0.02,VWS V14.01,2013-04-21 20:37:00,
2013-04-21 15:38:00,50.8,42.5,29.88,ESE,110,4.0,21.0,73,0.00,,CLR,0.02,VWS V14.01,2013-04-21 20:38:00,
2013-04-21 15:39:00,50.8,42.5,29.88,SE,126,8.0,21.0,73,0.00,,CLR,0.02,VWS V14.01,2013-04-21 20:39:00,
2013-04-21 15:40:00,50.8,42.5,29.88,SE,130,11.0,21.0,73,0.00,,CLR,0.02,VWS V14.01,2013-04-21 20:40:00,
2013-04-21 15:41:00,50.8,42.5,29.88,SE,134,11.0,21.0,73,0.00,,CLR,0.02,VWS V14.01,2013-04-21 20:41:00,
2013-04-21 15:42:00,50.7,42.4,29.88,ESE,120,10.0,21.0,73,0.00,,CLR,0.02,VWS V14.01,2013-04-21 20:42:00,
2013-04-21 15:43:00,50.7,42.4,29.88,SE,129,14.0,21.0,73,0.00,,CLR,0.02,VWS V14.01,2013-04-21 20:43:00,
2013-04-21 15:44:00,50.7,42.4,29.88,ESE,102,13.0,21.0,73,0.00,,CLR,0.02,VWS V14.01,2013-04-21 20:44:00,
2013-04-21 15:45:00,50.5,42.2,29.86,SE,133,6.0,21.0,73,0.00,,CLR,0.02,VWS V14.01,2013-04-21 20:45:00,
2013-04-21 15:46:00,50.5,42.5,29.86,ESE,123,6.0,21.0,74,0.00,,CLR,0.02,VWS V14.01,2013-04-21 20:46:00,
2013-04-21 15:47:00,50.5,42.5,29.86,ESE,118,11.0,21.0,74,0.00,,CLR,0.02,VWS V14.01,2013-04-21 20:47:00,
2013-04-21 15:48:00,50.5,42.5,29.86,SE,140,10.0,21.0,74,0.00,,CLR,0.02,VWS V14.01,2013-04-21 20:48:00,
2013-04-21 15:49:00,50.5,42.5,29.86,ESE,120,7.0,21.0,74,0.00,,CLR,0.02,VWS V14.01,2013-04-21 20:49:00,
2013-04-21 15:50:00,50.5,42.5,29.86,ESE,118,5.0,21.0,74,0.00,,CLR,0.02,VWS V14.01,2013-04-21 20:50:00,
2013-04-21 15:51:00,50.4,42.4,29.86,SE,129,11.0,21.0,74,0.00,,CLR,0.02,VWS V14.01,2013-04-21 20:51:00,
2013-04-21 15:52:00,50.4,42.4,29.86,East,96,11.0,21.0,74,0.00,,CLR,0.02,VWS V14.01,2013-04-21 20:52:00,
2013-04-21 15:53:00,50.4,42.8,29.86,ESE,116,11.0,21.0,75,0.00,,CLR,0.02,VWS V14.01,2013-04-21 20:53:00,
2013-04-21 15:54:00,50.2,42.6,29.86,SE,127,15.0,21.0,75,0.00,,CLR,0.02,VWS V14.01,2013-04-21 20:54:00,
2013-04-21 15:55:00,50.2,42.6,29.86,ESE,112,12.0,21.0,75,0.00,,CLR,0.02,VWS V14.01,2013-04-21 20:55:00,
2013-04-21 15:56:00,50.2,42.9,29.86,ESE,122,14.0,21.0,76,0.00,,CLR,0.02,VWS V14.01,2013-04-21 20:56:00,
2013-04-21 15:57:00,50.1,42.8,29.86,ESE,109,10.0,21.0,76,0.00,,CLR,0.02,VWS V14.01,2013-04-21 20:57:00,
2013-04-21 15:58:00,50.1,42.8,29.86,ESE,123,9.0,21.0,76,0.00,,CLR,0.02,VWS V14.01,2013-04-21 20:58:00,
2013-04-21 15:59:00,50.1,42.8,29.86,ESE,113,5.0,21.0,76,0.00,,CLR,0.02,VWS V14.01,2013-04-21 20:59:00,
2013-04-21 16:00:00,50.1,43.2,29.86,ESE,123,13.0,21.0,77,0.00,,CLR,0.02,VWS V14.01,2013-04-21 21:00:00,
2013-04-21 16:01:00,50.1,43.2,29.86,ESE,110,8.0,13.0,77,0.00,,CLR,0.02,VWS V14.01,2013-04-21 21:01:00,
2013-04-21 16:02:00,49.9,43.0,29.86,ESE,115,7.0,13.0,77,0.00,,CLR,0.02,VWS V14.01,2013-04-21 21:02:00,
2013-04-21 16:03:00,49.9,43.0,29.86,ESE,123,10.0,14.0,77,0.00,,CLR,0.02,VWS V14.01,2013-04-21 21:03:00,
2013-04-21 16:04:00,49.9,43.0,29.86,SE,127,9.0,16.0,77,0.00,,CLR,0.02,VWS V14.01,2013-04-21 21:04:00,
2013-04-21 16:05:00,49.9,43.3,29.86,SE,125,8.0,16.0,78,0.00,,CLR,0.02,VWS V14.01,2013-04-21 21:05:00,
2013-04-21 16:06:00,49.8,43.2,29.86,ESE,118,7.0,16.0,78,0.00,,CLR,0.02,VWS V14.01,2013-04-21 21:06:00,
2013-04-21 16:07:00,49.8,43.6,29.86,ESE,122,6.0,16.0,79,0.00,,CLR,0.02,VWS V14.01,2013-04-21 21:07:00,
2013-04-21 16:08:00,49.8,43.2,29.86,ESE,120,7.0,16.0,78,0.00,,CLR,0.02,VWS V14.01,2013-04-21 21:08:00,
2013-04-21 16:09:00,49.8,43.6,29.86,SE,132,7.0,16.0,79,0.00,,CLR,0.02,VWS V14.01,2013-04-21 21:09:00,
2013-04-21 16:10:00,49.8,43.6,29.86,SE,129,3.0,16.0,79,0.00,,CLR,0.02,VWS V14.01,2013-04-21 21:10:00,
2013-04-21 16:11:00,49.8,43.6,29.86,SE,130,5.0,16.0,79,0.00,,CLR,0.02,VWS V14.01,2013-04-21 21:11:00,
2013-04-21 16:12:00,49.8,43.6,29.86,ESE,123,10.0,16.0,79,0.00,,CLR,0.02,VWS V14.01,2013-04-21 21:12:00,
2013-04-21 16:13:00,49.8,43.6,29.86,ESE,123,7.0,16.0,79,0.00,,CLR,0.02,VWS V14.01,2013-04-21 21:13:00,
2013-04-21 16:14:00,49.8,43.6,29.86,ESE,123,5.0,16.0,79,0.00,,CLR,0.02,VWS V14.01,2013-04-21 21:14:00,
2013-04-21 16:15:00,49.8,43.6,29.85,ESE,118,11.0,16.0,79,0.00,,CLR,0.02,VWS V14.01,2013-04-21 21:15:00,
2013-04-21 16:16:00,49.9,43.7,29.85,ESE,120,8.0,16.0,79,0.00,,CLR,0.02,VWS V14.01,2013-04-21 21:16:00,
2013-04-21 16:17:00,49.9,43.7,29.85,SE,126,8.0,16.0,79,0.00,,CLR,0.02,VWS V14.01,2013-04-21 21:17:00,
2013-04-21 16:18:00,49.9,43.7,29.85,ESE,120,6.0,16.0,79,0.00,,CLR,0.02,VWS V14.01,2013-04-21 21:18:00,
2013-04-21 16:19:00,49.9,43.7,29.85,ESE,119,6.0,16.0,79,0.00,,CLR,0.02,VWS V14.01,2013-04-21 21:19:00,
2013-04-21 16:20:00,49.9,44.0,29.85,ESE,110,9.0,16.0,80,0.00,,CLR,0.02,VWS V14.01,2013-04-21 21:20:00,
2013-04-21 16:21:00,49.8,43.9,29.85,ESE,110,11.0,17.0,80,0.00,,CLR,0.02,VWS V14.01,2013-04-21 21:21:00,
2013-04-21 16:22:00,49.8,43.9,29.85,SE,132,7.0,17.0,80,0.00,,CLR,0.02,VWS V14.01,2013-04-21 21:22:00,
2013-04-21 16:23:00,49.8,43.9,29.85,ESE,123,17.0,17.0,80,0.00,,CLR,0.02,VWS V14.01,2013-04-21 21:23:00,
2013-04-21 16:24:00,49.8,43.9,29.85,ESE,120,9.0,17.0,80,0.00,,CLR,0.02,VWS V14.01,2013-04-21 21:24:00,
2013-04-21 16:25:00,49.8,43.9,29.85,ESE,109,8.0,17.0,80,0.00,,CLR,0.02,VWS V14.01,2013-04-21 21:25:00,
2013-04-21 16:26:00,49.8,43.9,29.85,ESE,119,6.0,17.0,80,0.00,,CLR,0.02,VWS V14.01,2013-04-21 21:26:00,
2013-04-21 16:27:00,49.8,43.9,29.85,ESE,110,12.0,17.0,80,0.00,,CLR,0.02,VWS V14.01,2013-04-21 21:27:00,
2013-04-21 16:28:00,49.8,44.2,29.85,ESE,122,5.0,17.0,81,0.00,,CLR,0.02,VWS V14.01,2013-04-21 21:28:00,
2013-04-21 16:29:00,49.8,44.2,29.85,ESE,120,8.0,17.0,81,0.00,,CLR,0.02,VWS V14.01,2013-04-21 21:29:00,
2013-04-21 16:30:00,49.8,44.5,29.85,ESE,118,7.0,17.0,82,0.00,,CLR,0.02,VWS V14.01,2013-04-21 21:30:00,
2013-04-21 16:31:00,49.6,44.3,29.85,ESE,112,7.0,12.0,82,0.00,,CLR,0.02,VWS V14.01,2013-04-21 21:31:00,
2013-04-21 16:32:00,49.6,44.3,29.85,ESE,123,7.0,14.0,82,0.00,,CLR,0.02,VWS V14.01,2013-04-21 21:32:00,
2013-04-21 16:33:00,49.6,44.3,29.85,ESE,115,5.0,14.0,82,0.00,,CLR,0.02,VWS V14.01,2013-04-21 21:33:00,
2013-04-21 16:34:00,49.6,44.3,29.85,SE,132,6.0,14.0,82,0.00,,CLR,0.02,VWS V14.01,2013-04-21 21:34:00,
2013-04-21 16:35:00,49.6,44.3,29.85,ESE,120,17.0,17.0,82,0.00,,CLR,0.02,VWS V14.01,2013-04-21 21:35:00,
2013-04-21 16:36:00,49.6,44.3,29.85,ESE,110,13.0,17.0,82,0.00,,CLR,0.02,VWS V14.01,2013-04-21 21:36:00,
2013-04-21 16:37:00,49.6,44.3,29.85,SE,139,10.0,17.0,82,0.00,,CLR,0.02,VWS V14.01,2013-04-21 21:37:00,
2013-04-21 16:38:00,49.6,44.3,29.85,SE,134,13.0,17.0,82,0.00,,CLR,0.02,VWS V14.01,2013-04-21 21:38:00,
2013-04-21 16:39:00,49.5,44.6,29.85,SE,137,10.0,17.0,83,0.00,,CLR,0.02,VWS V14.01,2013-04-21 21:39:00,
2013-04-21 16:40:00,49.5,44.6,29.85,ESE,103,13.0,17.0,83,0.00,,CLR,0.02,VWS V14.01,2013-04-21 21:40:00,
2013-04-21 16:41:00,49.5,44.6,29.85,SE,142,13.0,17.0,83,0.00,,CLR,0.02,VWS V14.01,2013-04-21 21:41:00,
2013-04-21 16:42:00,49.5,44.6,29.85,SE,136,13.0,18.0,83,0.00,,CLR,0.02,VWS V14.01,2013-04-21 21:42:00,
2013-04-21 16:43:00,49.5,44.9,29.85,ESE,116,11.0,18.0,84,0.00,,CLR,0.02,VWS V14.01,2013-04-21 21:43:00,
2013-04-21 16:44:00,49.4,44.8,29.85,SE,132,11.0,18.0,84,0.00,,CLR,0.02,VWS V14.01,2013-04-21 21:44:00,
2013-04-21 16:45:00,49.4,44.8,29.85,SE,130,8.0,18.0,84,0.00,,CLR,0.02,VWS V14.01,2013-04-21 21:45:00,
2013-04-21 16:46:00,49.4,44.8,29.85,SE,130,8.0,18.0,84,0.00,,CLR,0.02,VWS V14.01,2013-04-21 21:46:00,
2013-04-21 16:47:00,49.4,45.1,29.85,ESE,116,8.0,18.0,85,0.00,,CLR,0.02,VWS V14.01,2013-04-21 21:47:00,
2013-04-21 16:48:00,49.4,45.1,29.85,SE,132,12.0,18.0,85,0.00,,CLR,0.02,VWS V14.01,2013-04-21 21:48:00,
2013-04-21 16:49:00,49.4,45.1,29.85,ESE,102,12.0,18.0,85,0.00,,CLR,0.02,VWS V14.01,2013-04-21 21:49:00,
2013-04-21 16:50:00,49.4,45.1,29.85,SE,125,7.0,18.0,85,0.00,,CLR,0.02,VWS V14.01,2013-04-21 21:50:00,
2013-04-21 16:51:00,49.2,45.2,29.85,ESE,115,5.0,18.0,86,0.00,,CLR,0.02,VWS V14.01,2013-04-21 21:51:00,
2013-04-21 16:52:00,49.2,45.2,29.85,SE,137,11.0,18.0,86,0.00,,CLR,0.02,VWS V14.01,2013-04-21 21:52:00,
2013-04-21 16:53:00,49.2,45.2,29.85,SE,129,11.0,18.0,86,0.00,,CLR,0.02,VWS V14.01,2013-04-21 21:53:00,
2013-04-21 16:54:00,49.2,45.2,29.85,SE,127,14.0,18.0,86,0.00,,CLR,0.02,VWS V14.01,2013-04-21 21:54:00,
2013-04-21 16:55:00,49.4,45.4,29.85,SE,130,13.0,18.0,86,0.00,,CLR,0.02,VWS V14.01,2013-04-21 21:55:00,
2013-04-21 16:56:00,49.4,45.4,29.85,SE,132,18.0,18.0,86,0.00,,CLR,0.02,VWS V14.01,2013-04-21 21:56:00,
2013-04-21 16:57:00,49.4,45.4,29.85,ESE,122,10.0,18.0,86,0.00,,CLR,0.02,VWS V14.01,2013-04-21 21:57:00,
2013-04-21 16:58:00,49.4,45.4,29.85,SE,132,11.0,22.0,86,0.01,,CLR,0.03,VWS V14.01,2013-04-21 21:58:00,
2013-04-21 16:59:00,49.4,45.7,29.85,SSE,150,11.0,22.0,87,0.01,,CLR,0.03,VWS V14.01,2013-04-21 21:59:00,
2013-04-21 17:00:00,49.4,45.7,29.84,ESE,123,12.0,22.0,87,0.01,,CLR,0.03,VWS V14.01,2013-04-21 22:00:00,
2013-04-21 17:01:00,49.4,45.7,29.84,SE,134,13.0,17.0,87,0.01,,CLR,0.03,VWS V14.01,2013-04-21 22:01:00,
2013-04-21 17:02:00,49.4,45.7,29.84,SE,144,15.0,19.0,87,0.01,,CLR,0.03,VWS V14.01,2013-04-21 22:02:00,
2013-04-21 17:03:00,49.4,45.7,29.84,SE,129,5.0,19.0,87,0.01,,CLR,0.03,VWS V14.01,2013-04-21 22:03:00,
2013-04-21 17:04:00,49.4,45.7,29.84,ESE,122,13.0,19.0,87,0.01,,CLR,0.03,VWS V14.01,2013-04-21 22:04:00,
2013-04-21 17:05:00,49.5,45.8,29.84,South,191,14.0,19.0,87,0.01,,CLR,0.03,VWS V14.01,2013-04-21 22:05:00,
2013-04-21 17:06:00,49.5,45.8,29.84,ESE,116,12.0,26.0,87,0.01,,CLR,0.03,VWS V14.01,2013-04-21 22:06:00,
2013-04-21 17:07:00,49.5,45.5,29.84,SE,139,17.0,26.0,86,0.01,,CLR,0.03,VWS V14.01,2013-04-21 22:07:00,
2013-04-21 17:08:00,49.5,45.5,29.84,SE,134,14.0,26.0,86,0.01,,CLR,0.03,VWS V14.01,2013-04-21 22:08:00,
2013-04-21 17:09:00,49.5,45.5,29.84,ESE,123,15.0,26.0,86,0.01,,CLR,0.03,VWS V14.01,2013-04-21 22:09:00,
2013-04-21 17:10:00,49.5,45.8,29.84,SE,146,6.0,26.0,87,0.01,,CLR,0.03,VWS V14.01,2013-04-21 22:10:00,
2013-04-21 17:11:00,49.4,45.7,29.84,ESE,113,17.0,26.0,87,0.01,,CLR,0.03,VWS V14.01,2013-04-21 22:11:00,
2013-04-21 17:12:00,49.4,45.7,29.84,SE,139,12.0,26.0,87,0.01,,CLR,0.03,VWS V14.01,2013-04-21 22:12:00,
2013-04-21 17:13:00,49.4,45.7,29.84,SE,133,8.0,26.0,87,0.01,,CLR,0.03,VWS V14.01,2013-04-21 22:13:00,
2013-04-21 17:14:00,49.2,45.5,29.84,ESE,123,17.0,26.0,87,0.01,,CLR,0.03,VWS V14.01,2013-04-21 22:14:00,
2013-04-21 17:15:00,49.2,45.8,29.84,ESE,122,17.0,26.0,88,0.01,,CLR,0.03,VWS V14.01,2013-04-21 22:15:00,
2013-04-21 17:16:00,49.2,45.8,29.84,ESE,122,12.0,26.0,88,0.01,,CLR,0.03,VWS V14.01,2013-04-21 22:16:00,
2013-04-21 17:17:00,49.1,45.7,29.84,ESE,110,8.0,26.0,88,0.01,,CLR,0.03,VWS V14.01,2013-04-21 22:17:00,
2013-04-21 17:18:00,49.1,45.7,29.84,SE,139,6.0,26.0,88,0.01,,CLR,0.03,VWS V14.01,2013-04-21 22:18:00,
2013-04-21 17:19:00,49.1,45.7,29.84,ESE,123,8.0,26.0,88,0.02,,CLR,0.04,VWS V14.01,2013-04-21 22:19:00,
2013-04-21 17:20:00,48.9,45.8,29.84,ESE,119,9.0,26.0,89,0.02,,CLR,0.04,VWS V14.01,2013-04-21 22:20:00,
2013-04-21 17:21:00,48.9,45.8,29.84,ESE,116,11.0,26.0,89,0.02,,CLR,0.04,VWS V14.01,2013-04-21 22:21:00,
2013-04-21 17:22:00,48.9,45.8,29.84,SE,140,6.0,26.0,89,0.02,,CLR,0.04,VWS V14.01,2013-04-21 22:22:00,
2013-04-21 17:23:00,48.9,45.8,29.84,SE,137,16.0,26.0,89,0.02,,CLR,0.04,VWS V14.01,2013-04-21 22:23:00,
2013-04-21 17:24:00,48.9,45.8,29.84,SE,130,16.0,26.0,89,0.02,,CLR,0.04,VWS V14.01,2013-04-21 22:24:00,
2013-04-21 17:25:00,48.9,45.8,29.84,SE,146,7.0,26.0,89,0.02,,CLR,0.04,VWS V14.01,2013-04-21 22:25:00,
2013-04-21 17:26:00,48.9,46.1,29.84,SE,134,8.0,26.0,90,0.02,,CLR,0.04,VWS V14.01,2013-04-21 22:26:00,
2013-04-21 17:27:00,48.8,46.0,29.84,SE,139,13.0,26.0,90,0.02,,CLR,0.04,VWS V14.01,2013-04-21 22:27:00,
2013-04-21 17:28:00,48.8,46.0,29.84,ESE,119,12.0,26.0,90,0.02,,CLR,0.04,VWS V14.01,2013-04-21 22:28:00,
2013-04-21 17:29:00,48.8,46.0,29.84,SSE,147,12.0,26.0,90,0.02,,CLR,0.04,VWS V14.01,2013-04-21 22:29:00,
2013-04-21 17:30:00,48.8,46.0,29.85,SE,143,9.0,26.0,90,0.02,,CLR,0.04,VWS V14.01,2013-04-21 22:30:00,
2013-04-21 17:31:00,48.8,46.0,29.85,SE,130,11.0,13.0,90,0.03,,CLR,0.05,VWS V14.01,2013-04-21 22:31:00,
2013-04-21 17:32:00,48.8,46.0,29.85,SE,133,7.0,13.0,90,0.03,,CLR,0.05,VWS V14.01,2013-04-21 22:32:00,
2013-04-21 17:33:00,48.8,46.0,29.85,SE,132,2.0,14.0,90,0.03,,CLR,0.05,VWS V14.01,2013-04-21 22:33:00,
2013-04-21 17:34:00,48.8,46.0,29.85,SSE,150,10.0,14.0,90,0.03,,CLR,0.05,VWS V14.01,2013-04-21 22:34:00,
2013-04-21 17:35:00,48.8,46.0,29.85,SE,137,1.0,14.0,90,0.04,,CLR,0.06,VWS V14.01,2013-04-21 22:35:00,
2013-04-21 17:36:00,48.6,46.1,29.85,SE,137,6.0,14.0,91,0.04,,CLR,0.06,VWS V14.01,2013-04-21 22:36:00,
2013-04-21 17:37:00,48.6,46.1,29.85,ESE,123,7.0,14.0,91,0.04,,CLR,0.06,VWS V14.01,2013-04-21 22:37:00,
2013-04-21 17:38:00,48.6,46.1,29.85,ESE,113,7.0,14.0,91,0.04,,CLR,0.06,VWS V14.01,2013-04-21 22:38:00,
2013-04-21 17:39:00,48.5,46.0,29.85,ESE,113,7.0,14.0,91,0.05,,CLR,0.07,VWS V14.01,2013-04-21 22:39:00,
2013-04-21 17:40:00,48.5,46.3,29.85,SE,132,7.0,14.0,92,0.05,,CLR,0.07,VWS V14.01,2013-04-21 22:40:00,
2013-04-21 17:41:00,48.5,46.3,29.85,SE,143,4.0,14.0,92,0.05,,CLR,0.07,VWS V14.01,2013-04-21 22:41:00,
2013-04-21 17:42:00,48.5,46.3,29.85,ESE,123,8.0,14.0,92,0.06,,CLR,0.08,VWS V14.01,2013-04-21 22:42:00,
2013-04-21 17:43:00,48.5,46.3,29.85,SE,133,6.0,14.0,92,0.06,,CLR,0.08,VWS V14.01,2013-04-21 22:43:00,
2013-04-21 17:44:00,48.5,46.3,29.85,ESE,106,4.0,14.0,92,0.06,,CLR,0.08,VWS V14.01,2013-04-21 22:44:00,
2013-04-21 17:45:00,48.5,46.3,29.86,SE,129,3.0,14.0,92,0.06,,CLR,0.08,VWS V14.01,2013-04-21 22:45:00,
2013-04-21 17:46:00,48.3,46.1,29.86,SE,133,11.0,14.0,92,0.07,,CLR,0.09,VWS V14.01,2013-04-21 22:46:00,
2013-04-21 17:47:00,48.3,46.1,29.86,ESE,109,5.0,14.0,92,0.08,,CLR,0.10,VWS V14.01,2013-04-21 22:47:00,
2013-04-21 17:48:00,48.3,46.4,29.86,SE,139,6.0,14.0,93,0.08,,CLR,0.10,VWS V14.01,2013-04-21 22:48:00,
2013-04-21 17:49:00,48.3,46.4,29.86,SE,129,8.0,14.0,93,0.08,,CLR,0.10,VWS V14.01,2013-04-21 22:49:00,
2013-04-21 17:50:00,48.3,46.4,29.86,SE,125,7.0,14.0,93,0.08,,CLR,0.10,VWS V14.01,2013-04-21 22:50:00,
2013-04-21 17:51:00,48.3,46.4,29.86,SE,143,7.0,14.0,93,0.08,,CLR,0.10,VWS V14.01,2013-04-21 22:51:00,
2013-04-21 17:52:00,48.3,46.4,29.86,SE,129,7.0,14.0,93,0.08,,CLR,0.10,VWS V14.01,2013-04-21 22:52:00,
2013-04-21 17:53:00,48.3,46.4,29.86,SE,134,7.0,14.0,93,0.08,,CLR,0.10,VWS V14.01,2013-04-21 22:53:00,
2013-04-21 17:54:00,48.3,46.4,29.86,ESE,108,6.0,14.0,93,0.09,,CLR,0.11,VWS V14.01,2013-04-21 22:54:00,
2013-04-21 17:55:00,48.2,46.3,29.86,ESE,120,10.0,14.0,93,0.09,,CLR,0.11,VWS V14.01,2013-04-21 22:55:00,
2013-04-21 17:56:00,48.2,46.3,29.86,ESE,116,6.0,14.0,93,0.09,,CLR,0.11,VWS V14.01,2013-04-21 22:56:00,
2013-04-21 17:57:00,48.2,46.3,29.86,ESE,118,6.0,14.0,93,0.09,,CLR,0.11,VWS V14.01,2013-04-21 22:57:00,
2013-04-21 17:58:00,48.2,46.3,29.86,SE,127,3.0,14.0,93,0.09,,CLR,0.11,VWS V14.01,2013-04-21 22:58:00,
2013-04-21 17:59:00,48.0,46.1,29.86,ESE,113,6.0,14.0,93,0.09,,CLR,0.11,VWS V14.01,2013-04-21 22:59:00,
2013-04-21 18:00:00,48.0,46.4,29.85,SE,127,9.0,14.0,94,0.10,,CLR,0.12,VWS V14.01,2013-04-21 23:00:00,
2013-04-21 18:01:00,48.0,46.4,29.85,SE,126,2.0,10.0,94,0.09,,CLR,0.12,VWS V14.01,2013-04-21 23:01:00,
2013-04-21 18:02:00,48.0,46.4,29.85,SE,134,12.0,12.0,94,0.09,,CLR,0.12,VWS V14.01,2013-04-21 23:02:00,
2013-04-21 18:03:00,47.9,46.3,29.85,SE,130,8.0,12.0,94,0.09,,CLR,0.12,VWS V14.01,2013-04-21 23:03:00,
2013-04-21 18:04:00,47.9,46.3,29.85,SE,129,9.0,12.0,94,0.09,,CLR,0.12,VWS V14.01,2013-04-21 23:04:00,
2013-04-21 18:05:00,47.7,46.1,29.85,SE,133,5.0,12.0,94,0.09,,CLR,0.12,VWS V14.01,2013-04-21 23:05:00,
2013-04-21 18:06:00,47.9,46.3,29.85,SE,137,9.0,12.0,94,0.09,,CLR,0.12,VWS V14.01,2013-04-21 23:06:00,
2013-04-21 18:07:00,47.7,46.1,29.85,ESE,113,6.0,12.0,94,0.09,,CLR,0.12,VWS V14.01,2013-04-21 23:07:00,
2013-04-21 18:08:00,47.7,46.1,29.85,SE,136,11.0,12.0,94,0.09,,CLR,0.12,VWS V14.01,2013-04-21 23:08:00,
2013-04-21 18:09:00,47.7,46.3,29.85,SE,133,6.0,12.0,95,0.09,,CLR,0.12,VWS V14.01,2013-04-21 23:09:00,
2013-04-21 18:10:00,47.7,46.3,29.85,ESE,120,6.0,12.0,95,0.10,,CLR,0.13,VWS V14.01,2013-04-21 23:10:00,
2013-04-21 18:11:00,47.7,46.3,29.85,ESE,122,7.0,12.0,95,0.10,,CLR,0.13,VWS V14.01,2013-04-21 23:11:00,
2013-04-21 18:12:00,47.7,46.3,29.85,ESE,122,5.0,12.0,95,0.10,,CLR,0.13,VWS V14.01,2013-04-21 23:12:00,
2013-04-21 18:13:00,47.7,46.3,29.85,SE,125,6.0,12.0,95,0.10,,CLR,0.13,VWS V14.01,2013-04-21 23:13:00,
2013-04-21 18:14:00,47.7,46.3,29.85,SE,129,11.0,16.0,95,0.10,,CLR,0.13,VWS V14.01,2013-04-21 23:14:00,
2013-04-21 18:15:00,47.7,46.3,29.85,ESE,120,13.0,16.0,95,0.10,,CLR,0.13,VWS V14.01,2013-04-21 23:15:00,
2013-04-21 18:16:00,47.9,46.5,29.85,SE,130,8.0,16.0,95,0.10,,CLR,0.13,VWS V14.01,2013-04-21 23:16:00,
2013-04-21 18:17:00,47.7,46.3,29.85,SE,126,2.0,16.0,95,0.11,,CLR,0.14,VWS V14.01,2013-04-21 23:17:00,
2013-04-21 18:18:00,47.9,46.5,29.85,SE,126,6.0,16.0,95,0.11,,CLR,0.14,VWS V14.01,2013-04-21 23:18:00,
2013-04-21 18:19:00,47.9,46.5,29.85,ESE,112,8.0,16.0,95,0.11,,CLR,0.14,VWS V14.01,2013-04-21 23:19:00,
2013-04-21 18:20:00,47.9,46.8,29.85,ESE,119,8.0,16.0,96,0.11,,CLR,0.14,VWS V14.01,2013-04-21 23:20:00,
2013-04-21 18:21:00,47.9,46.8,29.85,SE,130,7.0,16.0,96,0.11,,CLR,0.14,VWS V14.01,2013-04-21 23:21:00,
2013-04-21 18:22:00,47.9,46.8,29.85,ESE,115,5.0,16.0,96,0.11,,CLR,0.14,VWS V14.01,2013-04-21 23:22:00,
2013-04-21 18:23:00,47.9,46.8,29.85,ESE,116,4.0,16.0,96,0.11,,CLR,0.14,VWS V14.01,2013-04-21 23:23:00,
2013-04-21 18:24:00,47.9,46.8,29.85,ESE,116,5.0,16.0,96,0.11,,CLR,0.14,VWS V14.01,2013-04-21 23:24:00,
2013-04-21 18:25:00,48.0,46.9,29.85,SE,130,7.0,16.0,96,0.12,,CLR,0.15,VWS V14.01,2013-04-21 23:25:00,
2013-04-21 18:26:00,48.0,46.9,29.85,SE,129,5.0,16.0,96,0.12,,CLR,0.15,VWS V14.01,2013-04-21 23:26:00,
2013-04-21 18:27:00,48.0,46.9,29.85,ESE,119,7.0,16.0,96,0.12,,CLR,0.15,VWS V14.01,2013-04-21 23:27:00,
2013-04-21 18:28:00,48.0,46.9,29.85,ESE,115,5.0,16.0,96,0.12,,CLR,0.15,VWS V14.01,2013-04-21 23:28:00,
2013-04-21 18:29:00,48.0,46.9,29.85,SSE,151,5.0,16.0,96,0.12,,CLR,0.15,VWS V14.01,2013-04-21 23:29:00,
2013-04-21 18:30:00,48.0,46.9,29.85,SE,139,6.0,16.0,96,0.12,,CLR,0.15,VWS V14.01,2013-04-21 23:30:00,
2013-04-21 18:31:00,48.0,46.9,29.85,SE,134,3.0,6.0,96,0.11,,CLR,0.15,VWS V14.01,2013-04-21 23:31:00,
2013-04-21 18:32:00,48.0,46.9,29.85,SE,130,3.0,6.0,96,0.11,,CLR,0.15,VWS V14.01,2013-04-21 23:32:00,
2013-04-21 18:33:00,48.0,46.9,29.85,SE,132,6.0,6.0,96,0.11,,CLR,0.15,VWS V14.01,2013-04-21 23:33:00,
2013-04-21 18:34:00,48.2,47.1,29.85,SE,132,4.0,10.0,96,0.12,,CLR,0.16,VWS V14.01,2013-04-21 23:34:00,
2013-04-21 18:35:00,48.2,47.1,29.85,SE,127,6.0,10.0,96,0.12,,CLR,0.16,VWS V14.01,2013-04-21 23:35:00,
2013-04-21 18:36:00,48.0,46.9,29.85,SE,126,7.0,10.0,96,0.12,,CLR,0.16,VWS V14.01,2013-04-21 23:36:00,
2013-04-21 18:37:00,48.0,46.9,29.85,ESE,118,5.0,10.0,96,0.12,,CLR,0.16,VWS V14.01,2013-04-21 23:37:00,
2013-04-21 18:38:00,48.0,46.9,29.85,ESE,122,8.0,11.0,96,0.12,,CLR,0.16,VWS V14.01,2013-04-21 23:38:00,
2013-04-21 18:39:00,48.2,47.1,29.85,ESE,123,6.0,11.0,96,0.12,,CLR,0.16,VWS V14.01,2013-04-21 23:39:00,
2013-04-21 18:40:00,48.0,46.9,29.85,ESE,115,1.0,11.0,96,0.12,,CLR,0.16,VWS V14.01,2013-04-21 23:40:00,
2013-04-21 18:41:00,48.0,46.9,29.85,SE,129,7.0,11.0,96,0.12,,CLR,0.16,VWS V14.01,2013-04-21 23:41:00,
2013-04-21 18:42:00,48.0,46.9,29.85,SE,125,2.0,11.0,96,0.12,,CLR,0.16,VWS V14.01,2013-04-21 23:42:00,
2013-04-21 18:43:00,48.2,47.1,29.85,SE,125,2.0,11.0,96,0.13,,CLR,0.17,VWS V14.01,2013-04-21 23:43:00,
2013-04-21 18:44:00,48.2,47.1,29.85,ESE,123,5.0,11.0,96,0.13,,CLR,0.17,VWS V14.01,2013-04-21 23:44:00,
2013-04-21 18:45:00,48.2,47.1,29.85,ESE,123,3.0,11.0,96,0.13,,CLR,0.17,VWS V14.01,2013-04-21 23:45:00,
2013-04-21 18:46:00,48.0,46.9,29.85,ESE,120,4.0,11.0,96,0.13,,CLR,0.17,VWS V14.01,2013-04-21 23:46:00,
2013-04-21 18:47:00,48.0,47.2,29.85,SE,127,4.0,11.0,97,0.13,,CLR,0.17,VWS V14.01,2013-04-21 23:47:00,
2013-04-21 18:48:00,48.2,47.4,29.85,SE,142,5.0,11.0,97,0.14,,CLR,0.18,VWS V14.01,2013-04-21 23:48:00,
2013-04-21 18:49:00,48.0,47.2,29.85,SE,132,8.0,11.0,97,0.14,,CLR,0.18,VWS V14.01,2013-04-21 23:49:00,
2013-04-21 18:50:00,48.0,47.2,29.85,SE,132,5.0,11.0,97,0.14,,CLR,0.18,VWS V14.01,2013-04-21 23:50:00,
2013-04-21 18:51:00,48.2,47.4,29.85,SE,132,3.0,11.0,97,0.14,,CLR,0.18,VWS V14.01,2013-04-21 23:51:00,
2013-04-21 18:52:00,48.2,47.4,29.85,SE,136,1.0,11.0,97,0.14,,CLR,0.18,VWS V14.01,2013-04-21 23:52:00,
2013-04-21 18:53:00,48.0,47.2,29.85,SE,140,4.0,11.0,97,0.14,,CLR,0.18,VWS V14.01,2013-04-21 23:53:00,
2013-04-21 18:54:00,48.0,47.2,29.85,SE,133,6.0,11.0,97,0.14,,CLR,0.18,VWS V14.01,2013-04-21 23:54:00,
2013-04-21 18:55:00,48.0,47.2,29.85,SE,132,5.0,11.0,97,0.14,,CLR,0.18,VWS V14.01,2013-04-21 23:55:00,
2013-04-21 18:56:00,48.0,47.2,29.85,SE,134,1.0,11.0,97,0.14,,CLR,0.18,VWS V14.01,2013-04-21 23:56:00,
2013-04-21 18:57:00,48.0,47.2,29.85,SE,134,2.0,11.0,97,0.14,,CLR,0.18,VWS V14.01,2013-04-21 23:57:00,
2013-04-21 18:58:00,48.0,47.2,29.85,SE,133,6.0,11.0,97,0.15,,CLR,0.19,VWS V14.01,2013-04-21 23:58:00,
2013-04-21 18:59:00,48.0,47.2,29.85,SE,130,0.0,11.0,97,0.15,,CLR,0.19,VWS V14.01,2013-04-21 23:59:00,
2013-04-21 19:00:00,48.0,47.2,29.86,SE,130,2.0,11.0,97,0.15,,CLR,0.19,VWS V14.01,2013-04-22 00:00:00,
2013-04-21 19:01:00,48.0,47.2,29.86,SE,130,3.0,5.0,97,0.07,,CLR,0.19,VWS V14.01,2013-04-22 00:01:00,
2013-04-21 19:02:00,48.0,47.2,29.86,SSE,149,5.0,5.0,97,0.07,,CLR,0.19,VWS V14.01,2013-04-22 00:02:00,
2013-04-21 19:03:00,48.0,47.2,29.86,SE,142,0.0,6.0,97,0.07,,CLR,0.19,VWS V14.01,2013-04-22 00:03:00,
2013-04-21 19:04:00,48.0,47.2,29.86,SE,134,2.0,6.0,97,0.07,,CLR,0.19,VWS V14.01,2013-04-22 00:04:00,
2013-04-21 19:05:00,48.0,47.2,29.86,SE,133,6.0,8.0,97,0.07,,CLR,0.19,VWS V14.01,2013-04-22 00:05:00,
2013-04-21 19:06:00,48.0,47.2,29.86,SE,133,0.0,11.0,97,0.07,,CLR,0.19,VWS V14.01,2013-04-22 00:06:00,
2013-04-21 19:07:00,48.0,47.2,29.86,SE,146,0.0,11.0,97,0.07,,CLR,0.19,VWS V14.01,2013-04-22 00:07:00,
2013-04-21 19:08:00,48.0,47.2,29.86,SE,146,0.0,11.0,97,0.07,,CLR,0.19,VWS V14.01,2013-04-22 00:08:00,
2013-04-21 19:09:00,48.0,47.2,29.86,West,263,1.0,11.0,97,0.07,,CLR,0.19,VWS V14.01,2013-04-22 00:09:00,
2013-04-21 19:10:00,48.0,47.2,29.86,West,270,1.0,11.0,97,0.07,,CLR,0.19,VWS V14.01,2013-04-22 00:10:00,
2013-04-21 19:11:00,48.0,47.2,29.86,West,269,6.0,11.0,97,0.07,,CLR,0.19,VWS V14.01,2013-04-22 00:11:00,
2013-04-21 19:12:00,48.0,47.2,29.86,West,264,0.0,11.0,97,0.07,,CLR,0.19,VWS V14.01,2013-04-22 00:12:00,
2013-04-21 19:13:00,48.0,47.5,29.86,West,264,1.0,11.0,98,0.07,,CLR,0.19,VWS V14.01,2013-04-22 00:13:00,
2013-04-21 19:14:00,48.0,47.5,29.86,West,264,2.0,11.0,98,0.07,,CLR,0.19,VWS V14.01,2013-04-22 00:14:00,
2013-04-21 19:15:00,48.0,47.5,29.87,West,264,2.0,11.0,98,0.07,,CLR,0.19,VWS V14.01,2013-04-22 00:15:00,
2013-04-21 19:16:00,48.0,47.5,29.87,West,264,4.0,11.0,98,0.07,,CLR,0.19,VWS V14.01,2013-04-22 00:16:00,
2013-04-21 19:17:00,48.0,47.5,29.87,WSW,257,0.0,11.0,98,0.07,,CLR,0.19,VWS V14.01,2013-04-22 00:17:00,
2013-04-21 19:18:00,48.0,47.5,29.87,WSW,257,0.0,11.0,98,0.07,,CLR,0.19,VWS V14.01,2013-04-22 00:18:00,
2013-04-21 19:19:00,48.0,47.5,29.87,WSW,257,1.0,11.0,98,0.07,,CLR,0.19,VWS V14.01,2013-04-22 00:19:00,
2013-04-21 19:20:00,48.0,47.5,29.87,WSW,257,2.0,11.0,98,0.07,,CLR,0.19,VWS V14.01,2013-04-22 00:20:00,
2013-04-21 19:21:00,48.0,47.5,29.87,WSW,257,1.0,11.0,98,0.07,,CLR,0.19,VWS V14.01,2013-04-22 00:21:00,
2013-04-21 19:22:00,48.0,47.5,29.87,WSW,257,2.0,11.0,98,0.07,,CLR,0.19,VWS V14.01,2013-04-22 00:22:00,
2013-04-21 19:23:00,48.0,47.5,29.87,WSW,257,2.0,11.0,98,0.07,,CLR,0.19,VWS V14.01,2013-04-22 00:23:00,
2013-04-21 19:24:00,48.0,47.5,29.87,WSW,257,1.0,11.0,98,0.07,,CLR,0.19,VWS V14.01,2013-04-22 00:24:00,
2013-04-21 19:25:00,48.0,47.5,29.87,WSW,257,0.0,11.0,98,0.07,,CLR,0.19,VWS V14.01,2013-04-22 00:25:00,
2013-04-21 19:26:00,48.0,47.5,29.87,WSW,257,0.0,11.0,98,0.07,,CLR,0.19,VWS V14.01,2013-04-22 00:26:00,
2013-04-21 19:27:00,48.0,47.5,29.87,WSW,254,2.0,11.0,98,0.07,,CLR,0.19,VWS V14.01,2013-04-22 00:27:00,
2013-04-21 19:28:00,48.0,47.5,29.87,WSW,254,1.0,11.0,98,0.07,,CLR,0.19,VWS V14.01,2013-04-22 00:28:00,
2013-04-21 19:29:00,47.9,47.4,29.87,WSW,254,0.0,11.0,98,0.07,,CLR,0.19,VWS V14.01,2013-04-22 00:29:00,
2013-04-21 19:30:00,48.0,47.5,29.88,WSW,254,0.0,11.0,98,0.07,,CLR,0.19,VWS V14.01,2013-04-22 00:30:00,
2013-04-21 19:31:00,47.9,47.4,29.88,WSW,254,0.0,3.0,98,0.04,,CLR,0.19,VWS V14.01,2013-04-22 00:31:00,
2013-04-21 19:32:00,47.9,47.4,29.88,WSW,254,0.0,4.0,98,0.04,,CLR,0.19,VWS V14.01,2013-04-22 00:32:00,
2013-04-21 19:33:00,47.9,47.4,29.88,WSW,254,2.0,4.0,98,0.04,,CLR,0.19,VWS V14.01,2013-04-22 00:33:00,
2013-04-21 19:34:00,47.7,47.2,29.88,West,273,0.0,6.0,98,0.04,,CLR,0.19,VWS V14.01,2013-04-22 00:34:00,
2013-04-21 19:35:00,47.9,47.4,29.88,WSW,257,0.0,6.0,98,0.04,,CLR,0.19,VWS V14.01,2013-04-22 00:35:00,
2013-04-21 19:36:00,47.7,47.2,29.88,West,270,0.0,6.0,98,0.04,,CLR,0.19,VWS V14.01,2013-04-22 00:36:00,
2013-04-21 19:37:00,47.7,47.2,29.88,WSW,246,8.0,8.0,98,0.04,,CLR,0.19,VWS V14.01,2013-04-22 00:37:00,
2013-04-21 19:38:00,47.7,47.2,29.88,WSW,247,0.0,8.0,98,0.04,,CLR,0.19,VWS V14.01,2013-04-22 00:38:00,
2013-04-21 19:39:00,47.9,47.4,29.88,WSW,247,1.0,8.0,98,0.04,,CLR,0.19,VWS V14.01,2013-04-22 00:39:00,
2013-04-21 19:40:00,47.7,47.2,29.88,WSW,249,3.0,8.0,98,0.04,,CLR,0.19,VWS V14.01,2013-04-22 00:40:00,
2013-04-21 19:41:00,47.7,47.2,29.88,WSW,254,2.0,8.0,98,0.04,,CLR,0.19,VWS V14.01,2013-04-22 00:41:00,
2013-04-21 19:42:00,47.7,47.2,29.88,WSW,256,5.0,8.0,98,0.04,,CLR,0.19,VWS V14.01,2013-04-22 00:42:00,
2013-04-21 19:43:00,47.7,47.2,29.88,WSW,257,3.0,8.0,98,0.04,,CLR,0.19,VWS V14.01,2013-04-22 00:43:00,
2013-04-21 19:44:00,47.6,46.8,29.88,WSW,257,1.0,8.0,97,0.04,,CLR,0.19,VWS V14.01,2013-04-22 00:44:00,
2013-04-21 19:45:00,47.6,46.8,29.89,WSW,257,0.0,8.0,97,0.04,,CLR,0.19,VWS V14.01,2013-04-22 00:45:00,
2013-04-21 19:46:00,47.6,46.8,29.89,WSW,257,0.0,8.0,97,0.04,,CLR,0.19,VWS V14.01,2013-04-22 00:46:00,
2013-04-21 19:47:00,47.6,46.8,29.89,West,260,5.0,8.0,97,0.04,,CLR,0.19,VWS V14.01,2013-04-22 00:47:00,
2013-04-21 19:48:00,47.6,46.8,29.89,West,260,0.0,8.0,97,0.04,,CLR,0.19,VWS V14.01,2013-04-22 00:48:00,
2013-04-21 19:49:00,47.6,46.8,29.89,West,264,2.0,8.0,97,0.04,,CLR,0.19,VWS V14.01,2013-04-22 00:49:00,
2013-04-21 19:50:00,47.4,46.6,29.89,West,270,3.0,8.0,97,0.04,,CLR,0.19,VWS V14.01,2013-04-22 00:50:00,
2013-04-21 19:51:00,47.3,46.5,29.89,West,270,0.0,8.0,97,0.04,,CLR,0.19,VWS V14.01,2013-04-22 00:51:00,
2013-04-21 19:52:00,47.3,46.5,29.89,West,270,0.0,8.0,97,0.04,,CLR,0.19,VWS V14.01,2013-04-22 00:52:00,
2013-04-21 19:53:00,47.3,46.5,29.89,West,270,0.0,8.0,97,0.04,,CLR,0.19,VWS V14.01,2013-04-22 00:53:00,
2013-04-21 19:54:00,47.1,46.3,29.89,West,270,0.0,8.0,97,0.04,,CLR,0.19,VWS V14.01,2013-04-22 00:54:00,
2013-04-21 19:55:00,47.1,46.3,29.89,West,270,1.0,8.0,97,0.04,,CLR,0.19,VWS V14.01,2013-04-22 00:55:00,
2013-04-21 19:56:00,47.1,46.3,29.89,West,270,1.0,8.0,97,0.04,,CLR,0.19,VWS V14.01,2013-04-22 00:56:00,
2013-04-21 19:57:00,47.1,46.3,29.89,West,270,0.0,8.0,97,0.04,,CLR,0.19,VWS V14.01,2013-04-22 00:57:00,
2013-04-21 19:58:00,47.0,46.2,29.89,WSW,257,2.0,8.0,97,0.04,,CLR,0.19,VWS V14.01,2013-04-22 00:58:00,
2013-04-21 19:59:00,47.0,45.9,29.89,West,262,0.0,8.0,96,0.04,,CLR,0.19,VWS V14.01,2013-04-22 00:59:00,
2013-04-21 20:00:00,47.0,45.9,29.90,West,270,1.0,8.0,96,0.04,,CLR,0.19,VWS V14.01,2013-04-22 01:00:00,
2013-04-21 20:01:00,47.0,45.9,29.90,West,270,5.0,5.0,96,0.00,,CLR,0.19,VWS V14.01,2013-04-22 01:01:00,
2013-04-21 20:02:00,46.8,45.7,29.90,West,259,2.0,5.0,96,0.00,,CLR,0.19,VWS V14.01,2013-04-22 01:02:00,
2013-04-21 20:03:00,46.8,45.7,29.90,West,270,3.0,5.0,96,0.00,,CLR,0.19,VWS V14.01,2013-04-22 01:03:00,
2013-04-21 20:04:00,46.8,45.7,29.90,West,270,0.0,7.0,96,0.00,,CLR,0.19,VWS V14.01,2013-04-22 01:04:00,
2013-04-21 20:05:00,46.8,45.7,29.90,West,266,6.0,7.0,96,0.00,,CLR,0.19,VWS V14.01,2013-04-22 01:05:00,
2013-04-21 20:06:00,46.7,45.6,29.90,West,263,0.0,7.0,96,0.00,,CLR,0.19,VWS V14.01,2013-04-22 01:06:00,
2013-04-21 20:07:00,46.7,45.6,29.90,West,263,2.0,7.0,96,0.00,,CLR,0.19,VWS V14.01,2013-04-22 01:07:00,
2013-04-21 20:08:00,46.7,45.6,29.90,West,262,2.0,7.0,96,0.00,,CLR,0.19,VWS V14.01,2013-04-22 01:08:00,
2013-04-21 20:09:00,46.7,45.6,29.90,West,267,3.0,7.0,96,0.00,,CLR,0.19,VWS V14.01,2013-04-22 01:09:00,
2013-04-21 20:10:00,46.5,45.4,29.90,West,266,0.0,7.0,96,0.00,,CLR,0.19,VWS V14.01,2013-04-22 01:10:00,
2013-04-21 20:11:00,46.5,45.4,29.90,West,266,7.0,7.0,96,0.00,,CLR,0.19,VWS V14.01,2013-04-22 01:11:00,
2013-04-21 20:12:00,46.5,45.4,29.90,West,266,2.0,7.0,96,0.00,,CLR,0.19,VWS V14.01,2013-04-22 01:12:00,
2013-04-21 20:13:00,46.5,45.4,29.90,West,266,0.0,7.0,96,0.00,,CLR,0.19,VWS V14.01,2013-04-22 01:13:00,
2013-04-21 20:14:00,46.5,45.4,29.90,West,270,2.0,9.0,96,0.00,,CLR,0.19,VWS V14.01,2013-04-22 01:14:00,
2013-04-21 20:15:00,46.4,45.3,29.91,West,270,7.0,9.0,96,0.00,,CLR,0.19,VWS V14.01,2013-04-22 01:15:00,
2013-04-21 20:16:00,46.4,45.3,29.91,West,270,0.0,9.0,96,0.00,,CLR,0.19,VWS V14.01,2013-04-22 01:16:00,
2013-04-21 20:17:00,46.2,44.8,29.91,West,270,0.0,9.0,95,0.00,,CLR,0.19,VWS V14.01,2013-04-22 01:17:00,
2013-04-21 20:18:00,46.2,44.8,29.91,West,269,2.0,9.0,95,0.00,,CLR,0.19,VWS V14.01,2013-04-22 01:18:00,
2013-04-21 20:19:00,46.2,44.8,29.91,West,270,1.0,9.0,95,0.00,,CLR,0.19,VWS V14.01,2013-04-22 01:19:00,
2013-04-21 20:20:00,46.2,44.8,29.91,West,270,3.0,9.0,95,0.00,,CLR,0.19,VWS V14.01,2013-04-22 01:20:00,
2013-04-21 20:21:00,46.1,44.8,29.91,West,269,0.0,9.0,95,0.00,,CLR,0.19,VWS V14.01,2013-04-22 01:21:00,
2013-04-21 20:22:00,46.1,44.8,29.91,West,269,0.0,9.0,95,0.00,,CLR,0.19,VWS V14.01,2013-04-22 01:22:00,
2013-04-21 20:23:00,46.1,44.8,29.91,West,273,0.0,9.0,95,0.00,,CLR,0.19,VWS V14.01,2013-04-22 01:23:00,
2013-04-21 20:24:00,46.1,44.8,29.91,West,259,0.0,9.0,95,0.00,,CLR,0.19,VWS V14.01,2013-04-22 01:24:00,
2013-04-21 20:25:00,46.1,44.8,29.91,West,263,1.0,9.0,95,0.00,,CLR,0.19,VWS V14.01,2013-04-22 01:25:00,
2013-04-21 20:26:00,46.1,44.8,29.91,West,259,1.0,9.0,95,0.00,,CLR,0.19,VWS V14.01,2013-04-22 01:26:00,
2013-04-21 20:27:00,46.0,44.7,29.91,West,270,3.0,9.0,95,0.00,,CLR,0.19,VWS V14.01,2013-04-22 01:27:00,
2013-04-21 20:28:00,46.0,44.7,29.91,West,273,2.0,9.0,95,0.00,,CLR,0.19,VWS V14.01,2013-04-22 01:28:00,
2013-04-21 20:29:00,46.0,44.7,29.91,West,270,1.0,9.0,95,0.00,,CLR,0.19,VWS V14.01,2013-04-22 01:29:00,
2013-04-21 20:30:00,45.8,44.5,29.91,West,270,2.0,9.0,95,0.00,,CLR,0.19,VWS V14.01,2013-04-22 01:30:00,
2013-04-21 20:31:00,45.8,44.5,29.91,West,270,1.0,3.0,95,0.00,,CLR,0.19,VWS V14.01,2013-04-22 01:31:00,
2013-04-21 20:32:00,45.8,44.5,29.91,West,270,0.0,5.0,95,0.00,,CLR,0.19,VWS V14.01,2013-04-22 01:32:00,
2013-04-21 20:33:00,45.8,44.5,29.91,West,270,1.0,5.0,95,0.00,,CLR,0.19,VWS V14.01,2013-04-22 01:33:00,
2013-04-21 20:34:00,45.8,44.5,29.91,West,270,0.0,5.0,95,0.00,,CLR,0.19,VWS V14.01,2013-04-22 01:34:00,
2013-04-21 20:35:00,45.7,44.3,29.91,West,270,0.0,5.0,95,0.00,,CLR,0.19,VWS V14.01,2013-04-22 01:35:00,
2013-04-21 20:36:00,45.7,44.3,29.91,West,270,0.0,5.0,95,0.00,,CLR,0.19,VWS V14.01,2013-04-22 01:36:00,
2013-04-21 20:37:00,45.7,44.3,29.91,West,270,0.0,5.0,95,0.00,,CLR,0.19,VWS V14.01,2013-04-22 01:37:00,
2013-04-21 20:38:00,45.7,44.3,29.91,West,270,1.0,5.0,95,0.00,,CLR,0.19,VWS V14.01,2013-04-22 01:38:00,
2013-04-21 20:39:00,45.7,44.3,29.91,West,270,0.0,5.0,95,0.00,,CLR,0.19,VWS V14.01,2013-04-22 01:39:00,
2013-04-21 20:40:00,45.5,44.2,29.91,West,270,0.0,5.0,95,0.00,,CLR,0.19,VWS V14.01,2013-04-22 01:40:00,
2013-04-21 20:41:00,45.5,44.2,29.91,West,269,3.0,5.0,95,0.00,,CLR,0.19,VWS V14.01,2013-04-22 01:41:00,
2013-04-21 20:42:00,45.5,44.2,29.91,West,260,5.0,8.0,95,0.00,,CLR,0.19,VWS V14.01,2013-04-22 01:42:00,
2013-04-21 20:43:00,45.5,44.2,29.91,West,263,4.0,8.0,95,0.00,,CLR,0.19,VWS V14.01,2013-04-22 01:43:00,
2013-04-21 20:44:00,45.4,44.0,29.91,West,262,0.0,8.0,95,0.00,,CLR,0.19,VWS V14.01,2013-04-22 01:44:00,
2013-04-21 20:45:00,45.4,44.0,29.92,West,262,0.0,8.0,95,0.00,,CLR,0.19,VWS V14.01,2013-04-22 01:45:00,
2013-04-21 20:46:00,45.4,44.0,29.92,West,270,2.0,8.0,95,0.00,,CLR,0.19,VWS V14.01,2013-04-22 01:46:00,
2013-04-21 20:47:00,45.4,44.0,29.92,WSW,256,0.0,8.0,95,0.00,,CLR,0.19,VWS V14.01,2013-04-22 01:47:00,
2013-04-21 20:48:00,45.2,43.9,29.92,WSW,256,1.0,8.0,95,0.00,,CLR,0.19,VWS V14.01,2013-04-22 01:48:00,
2013-04-21 20:49:00,45.4,44.0,29.92,West,270,0.0,8.0,95,0.00,,CLR,0.19,VWS V14.01,2013-04-22 01:49:00,
2013-04-21 20:50:00,45.2,43.9,29.92,West,270,0.0,8.0,95,0.00,,CLR,0.19,VWS V14.01,2013-04-22 01:50:00,
2013-04-21 20:51:00,45.2,43.9,29.92,West,270,1.0,8.0,95,0.00,,CLR,0.19,VWS V14.01,2013-04-22 01:51:00,
2013-04-21 20:52:00,45.2,43.9,29.92,West,270,0.0,8.0,95,0.00,,CLR,0.19,VWS V14.01,2013-04-22 01:52:00,
2013-04-21 20:53:00,45.2,43.9,29.92,West,270,0.0,8.0,95,0.00,,CLR,0.19,VWS V14.01,2013-04-22 01:53:00,
2013-04-21 20:54:00,45.2,43.9,29.92,West,269,3.0,8.0,95,0.00,,CLR,0.19,VWS V14.01,2013-04-22 01:54:00,
2013-04-21 20:55:00,45.2,43.9,29.92,West,269,1.0,8.0,95,0.00,,CLR,0.19,VWS V14.01,2013-04-22 01:55:00,
2013-04-21 20:56:00,45.1,44.0,29.92,West,269,3.0,8.0,96,0.00,,CLR,0.19,VWS V14.01,2013-04-22 01:56:00,
2013-04-21 20:57:00,45.1,44.0,29.92,West,270,3.0,8.0,96,0.00,,CLR,0.19,VWS V14.01,2013-04-22 01:57:00,
2013-04-21 20:58:00,45.1,44.0,29.92,West,270,0.0,8.0,96,0.00,,CLR,0.19,VWS V14.01,2013-04-22 01:58:00,
2013-04-21 20:59:00,45.1,44.0,29.92,West,270,0.0,8.0,96,0.00,,CLR,0.19,VWS V14.01,2013-04-22 01:59:00,
2013-04-21 21:00:00,44.9,43.6,29.93,West,270,0.0,8.0,95,0.00,,CLR,0.19,VWS V14.01,2013-04-22 02:00:00,
2013-04-21 21:01:00,44.9,43.6,29.93,West,270,0.0,1.0,95,0.00,,CLR,0.19,VWS V14.01,2013-04-22 02:01:00,
2013-04-21 21:02:00,44.9,43.6,29.93,West,269,0.0,1.0,95,0.00,,CLR,0.19,VWS V14.01,2013-04-22 02:02:00,
2013-04-21 21:03:00,44.8,43.5,29.93,West,270,2.0,2.0,95,0.00,,CLR,0.19,VWS V14.01,2013-04-22 02:03:00,
2013-04-21 21:04:00,44.8,43.7,29.93,West,270,0.0,2.0,96,0.00,,CLR,0.19,VWS V14.01,2013-04-22 02:04:00,
2013-04-21 21:05:00,44.8,43.7,29.93,West,269,2.0,4.0,96,0.00,,CLR,0.19,VWS V14.01,2013-04-22 02:05:00,
2013-04-21 21:06:00,44.8,43.7,29.93,West,269,5.0,5.0,96,0.00,,CLR,0.19,VWS V14.01,2013-04-22 02:06:00,
2013-04-21 21:07:00,44.8,43.7,29.93,West,269,1.0,5.0,96,0.00,,CLR,0.19,VWS V14.01,2013-04-22 02:07:00,
2013-04-21 21:08:00,44.6,43.5,29.93,West,269,0.0,5.0,96,0.00,,CLR,0.19,VWS V14.01,2013-04-22 02:08:00,
2013-04-21 21:09:00,44.6,43.5,29.93,West,270,0.0,5.0,96,0.00,,CLR,0.19,VWS V14.01,2013-04-22 02:09:00,
2013-04-21 21:10:00,44.6,43.5,29.93,West,269,2.0,5.0,96,0.00,,CLR,0.19,VWS V14.01,2013-04-22 02:10:00,
2013-04-21 21:11:00,44.6,43.5,29.93,West,270,3.0,6.0,96,0.00,,CLR,0.19,VWS V14.01,2013-04-22 02:11:00,
2013-04-21 21:12:00,44.6,43.5,29.93,West,270,2.0,6.0,96,0.00,,CLR,0.19,VWS V14.01,2013-04-22 02:12:00,
2013-04-21 21:13:00,44.5,43.4,29.93,West,274,5.0,8.0,96,0.00,,CLR,0.19,VWS V14.01,2013-04-22 02:13:00,
2013-04-21 21:14:00,44.5,43.4,29.93,West,274,2.0,8.0,96,0.00,,CLR,0.19,VWS V14.01,2013-04-22 02:14:00,
2013-04-21 21:15:00,44.3,43.2,29.93,West,270,5.0,8.0,96,0.00,,CLR,0.19,VWS V14.01,2013-04-22 02:15:00,
2013-04-21 21:16:00,44.2,42.9,29.93,West,270,3.0,8.0,95,0.00,,CLR,0.19,VWS V14.01,2013-04-22 02:16:00,
2013-04-21 21:17:00,44.2,42.9,29.93,West,270,6.0,8.0,95,0.00,,CLR,0.19,VWS V14.01,2013-04-22 02:17:00,
2013-04-21 21:18:00,44.1,42.8,29.93,West,270,1.0,8.0,95,0.00,,CLR,0.19,VWS V14.01,2013-04-22 02:18:00,
2013-04-21 21:19:00,44.1,42.5,29.93,West,270,0.0,8.0,94,0.00,,CLR,0.19,VWS V14.01,2013-04-22 02:19:00,
2013-04-21 21:20:00,43.9,42.3,29.93,West,270,6.0,8.0,94,0.00,,CLR,0.19,VWS V14.01,2013-04-22 02:20:00,
2013-04-21 21:21:00,43.8,42.2,29.93,West,270,2.0,8.0,94,0.00,,CLR,0.19,VWS V14.01,2013-04-22 02:21:00,
2013-04-21 21:22:00,43.6,42.0,29.93,West,270,1.0,8.0,94,0.00,,CLR,0.19,VWS V14.01,2013-04-22 02:22:00,
2013-04-21 21:23:00,43.6,42.0,29.93,West,267,5.0,13.0,94,0.00,,CLR,0.19,VWS V14.01,2013-04-22 02:23:00,
2013-04-21 21:24:00,43.5,41.6,29.93,West,263,8.0,13.0,93,0.00,,CLR,0.19,VWS V14.01,2013-04-22 02:24:00,
2013-04-21 21:25:00,43.3,41.4,29.93,West,271,5.0,13.0,93,0.00,,CLR,0.19,VWS V14.01,2013-04-22 02:25:00,
2013-04-21 21:26:00,43.2,41.3,29.93,West,271,0.0,13.0,93,0.00,,CLR,0.19,VWS V14.01,2013-04-22 02:26:00,
2013-04-21 21:27:00,43.2,41.3,29.93,West,270,1.0,13.0,93,0.00,,CLR,0.19,VWS V14.01,2013-04-22 02:27:00,
2013-04-21 21:28:00,43.1,40.9,29.93,West,270,1.0,13.0,92,0.00,,CLR,0.19,VWS V14.01,2013-04-22 02:28:00,
2013-04-21 21:29:00,42.9,40.7,29.93,West,278,6.0,13.0,92,0.00,,CLR,0.19,VWS V14.01,2013-04-22 02:29:00,
2013-04-21 21:30:00,42.9,40.7,29.94,West,269,1.0,13.0,92,0.00,,CLR,0.19,VWS V14.01,2013-04-22 02:30:00,
2013-04-21 21:31:00,42.8,40.6,29.94,West,276,0.0,2.0,92,0.00,,CLR,0.19,VWS V14.01,2013-04-22 02:31:00,
2013-04-21 21:32:00,42.6,40.4,29.94,West,270,1.0,11.0,92,0.00,,CLR,0.19,VWS V14.01,2013-04-22 02:32:00,
2013-04-21 21:33:00,42.5,40.1,29.94,West,276,6.0,11.0,91,0.00,,CLR,0.19,VWS V14.01,2013-04-22 02:33:00,
2013-04-21 21:34:00,42.3,39.9,29.94,West,270,1.0,11.0,91,0.00,,CLR,0.19,VWS V14.01,2013-04-22 02:34:00,
2013-04-21 21:35:00,42.3,39.9,29.94,WNW,286,1.0,11.0,91,0.00,,CLR,0.19,VWS V14.01,2013-04-22 02:35:00,
2013-04-21 21:36:00,42.2,39.8,29.94,West,270,5.0,11.0,91,0.00,,CLR,0.19,VWS V14.01,2013-04-22 02:36:00,
2013-04-21 21:37:00,42.2,39.8,29.94,West,271,6.0,11.0,91,0.00,,CLR,0.19,VWS V14.01,2013-04-22 02:37:00,
2013-04-21 21:38:00,42.1,39.7,29.94,West,270,2.0,11.0,91,0.00,,CLR,0.19,VWS V14.01,2013-04-22 02:38:00,
2013-04-21 21:39:00,42.1,39.7,29.94,West,270,2.0,11.0,91,0.00,,CLR,0.19,VWS V14.01,2013-04-22 02:39:00,
2013-04-21 21:40:00,41.9,39.5,29.94,West,270,4.0,11.0,91,0.00,,CLR,0.19,VWS V14.01,2013-04-22 02:40:00,
2013-04-21 21:41:00,41.9,39.5,29.94,West,270,2.0,11.0,91,0.00,,CLR,0.19,VWS V14.01,2013-04-22 02:41:00,
2013-04-21 21:42:00,41.9,39.5,29.94,West,270,2.0,11.0,91,0.00,,CLR,0.19,VWS V14.01,2013-04-22 02:42:00,
2013-04-21 21:43:00,41.9,39.5,29.94,West,270,2.0,11.0,91,0.00,,CLR,0.19,VWS V14.01,2013-04-22 02:43:00,
2013-04-21 21:44:00,41.8,39.4,29.94,West,271,6.0,11.0,91,0.00,,CLR,0.19,VWS V14.01,2013-04-22 02:44:00,
2013-04-21 21:45:00,41.8,39.4,29.95,West,270,1.0,11.0,91,0.00,,CLR,0.19,VWS V14.01,2013-04-22 02:45:00,
2013-04-21 21:46:00,41.8,39.4,29.95,West,270,2.0,11.0,91,0.00,,CLR,0.19,VWS V14.01,2013-04-22 02:46:00,
2013-04-21 21:47:00,41.8,39.4,29.95,WNW,293,7.0,11.0,91,0.00,,CLR,0.19,VWS V14.01,2013-04-22 02:47:00,
2013-04-21 21:48:00,41.6,39.2,29.95,West,273,0.0,11.0,91,0.00,,CLR,0.19,VWS V14.01,2013-04-22 02:48:00,
2013-04-21 21:49:00,41.6,39.2,29.95,West,270,1.0,11.0,91,0.00,,CLR,0.19,VWS V14.01,2013-04-22 02:49:00,
2013-04-21 21:50:00,41.6,39.2,29.95,WSW,254,0.0,11.0,91,0.00,,CLR,0.19,VWS V14.01,2013-04-22 02:50:00,
2013-04-21 21:51:00,41.6,39.2,29.95,West,270,1.0,11.0,91,0.00,,CLR,0.19,VWS V14.01,2013-04-22 02:51:00,
2013-04-21 21:52:00,41.5,39.1,29.95,West,270,2.0,11.0,91,0.00,,CLR,0.19,VWS V14.01,2013-04-22 02:52:00,
2013-04-21 21:53:00,41.5,39.1,29.95,West,274,1.0,11.0,91,0.00,,CLR,0.19,VWS V14.01,2013-04-22 02:53:00,
2013-04-21 21:54:00,41.5,39.1,29.95,West,270,2.0,11.0,91,0.00,,CLR,0.19,VWS V14.01,2013-04-22 02:54:00,
2013-04-21 21:55:00,41.5,39.1,29.95,West,276,1.0,11.0,91,0.00,,CLR,0.19,VWS V14.01,2013-04-22 02:55:00,
2013-04-21 21:56:00,41.3,38.9,29.95,West,270,3.0,11.0,91,0.00,,CLR,0.19,VWS V14.01,2013-04-22 02:56:00,
2013-04-21 21:57:00,41.3,38.9,29.95,West,270,0.0,11.0,91,0.00,,CLR,0.19,VWS V14.01,2013-04-22 02:57:00,
2013-04-21 21:58:00,41.3,38.9,29.95,West,270,1.0,11.0,91,0.00,,CLR,0.19,VWS V14.01,2013-04-22 02:58:00,
2013-04-21 21:59:00,41.3,38.9,29.95,West,266,2.0,11.0,91,0.00,,CLR,0.19,VWS V14.01,2013-04-22 02:59:00,
2013-04-21 22:00:00,41.2,38.8,29.96,West,269,6.0,11.0,91,0.00,,CLR,0.19,VWS V14.01,2013-04-22 03:00:00,
2013-04-21 22:01:00,41.2,38.8,29.96,West,270,2.0,3.0,91,0.00,,CLR,0.19,VWS V14.01,2013-04-22 03:01:00,
2013-04-21 22:02:00,41.2,38.8,29.96,West,266,3.0,6.0,91,0.00,,CLR,0.19,VWS V14.01,2013-04-22 03:02:00,
2013-04-21 22:03:00,41.2,38.8,29.96,West,270,3.0,6.0,91,0.00,,CLR,0.19,VWS V14.01,2013-04-22 03:03:00,
2013-04-21 22:04:00,41.2,38.8,29.96,West,270,0.0,6.0,91,0.00,,CLR,0.19,VWS V14.01,2013-04-22 03:04:00,
2013-04-21 22:05:00,41.2,39.1,29.96,West,270,0.0,6.0,92,0.00,,CLR,0.19,VWS V14.01,2013-04-22 03:05:00,
2013-04-21 22:06:00,41.2,39.1,29.96,West,276,5.0,6.0,92,0.00,,CLR,0.19,VWS V14.01,2013-04-22 03:06:00,
2013-04-21 22:07:00,41.1,39.0,29.96,West,276,0.0,6.0,92,0.00,,CLR,0.19,VWS V14.01,2013-04-22 03:07:00,
2013-04-21 22:08:00,41.1,39.0,29.96,West,274,2.0,6.0,92,0.00,,CLR,0.19,VWS V14.01,2013-04-22 03:08:00,
2013-04-21 22:09:00,41.1,39.0,29.96,West,276,1.0,6.0,92,0.00,,CLR,0.19,VWS V14.01,2013-04-22 03:09:00,
2013-04-21 22:10:00,41.1,39.0,29.96,West,273,1.0,6.0,92,0.00,,CLR,0.19,VWS V14.01,2013-04-22 03:10:00,
2013-04-21 22:11:00,41.1,39.0,29.96,West,281,2.0,6.0,92,0.00,,CLR,0.19,VWS V14.01,2013-04-22 03:11:00,
2013-04-21 22:12:00,41.1,39.0,29.96,WNW,288,6.0,6.0,92,0.00,,CLR,0.19,VWS V14.01,2013-04-22 03:12:00,
2013-04-21 22:13:00,41.1,39.0,29.96,WNW,283,1.0,6.0,92,0.00,,CLR,0.19,VWS V14.01,2013-04-22 03:13:00,
2013-04-21 22:14:00,41.1,38.7,29.96,West,281,3.0,6.0,91,0.00,,CLR,0.19,VWS V14.01,2013-04-22 03:14:00,
2013-04-21 22:15:00,40.9,38.5,29.96,WNW,283,2.0,6.0,91,0.00,,CLR,0.19,VWS V14.01,2013-04-22 03:15:00,
2013-04-21 22:16:00,40.9,38.5,29.96,West,262,0.0,6.0,91,0.00,,CLR,0.19,VWS V14.01,2013-04-22 03:16:00,
2013-04-21 22:17:00,40.9,38.8,29.96,West,264,0.0,6.0,92,0.00,,CLR,0.19,VWS V14.01,2013-04-22 03:17:00,
2013-04-21 22:18:00,40.9,38.5,29.96,West,264,0.0,6.0,91,0.00,,CLR,0.19,VWS V14.01,2013-04-22 03:18:00,
2013-04-21 22:19:00,40.9,38.5,29.96,West,264,0.0,6.0,91,0.00,,CLR,0.19,VWS V14.01,2013-04-22 03:19:00,
2013-04-21 22:20:00,40.9,38.5,29.96,West,264,0.0,6.0,91,0.00,,CLR,0.19,VWS V14.01,2013-04-22 03:20:00,
2013-04-21 22:21:00,40.9,38.5,29.96,West,264,0.0,6.0,91,0.00,,CLR,0.19,VWS V14.01,2013-04-22 03:21:00,
2013-04-21 22:22:00,40.9,38.5,29.96,West,264,1.0,6.0,91,0.00,,CLR,0.19,VWS V14.01,2013-04-22 03:22:00,
2013-04-21 22:23:00,40.9,38.5,29.96,West,270,5.0,6.0,91,0.00,,CLR,0.19,VWS V14.01,2013-04-22 03:23:00,
2013-04-21 22:24:00,40.8,38.1,29.96,West,270,1.0,6.0,90,0.00,,CLR,0.19,VWS V14.01,2013-04-22 03:24:00,
2013-04-21 22:25:00,40.8,38.1,29.96,WNW,284,0.0,6.0,90,0.00,,CLR,0.19,VWS V14.01,2013-04-22 03:25:00,
2013-04-21 22:26:00,40.8,38.1,29.96,WNW,284,1.0,6.0,90,0.00,,CLR,0.19,VWS V14.01,2013-04-22 03:26:00,
2013-04-21 22:27:00,40.8,38.1,29.96,West,280,2.0,6.0,90,0.00,,CLR,0.19,VWS V14.01,2013-04-22 03:27:00,
2013-04-21 22:28:00,40.8,38.1,29.96,West,273,0.0,6.0,90,0.00,,CLR,0.19,VWS V14.01,2013-04-22 03:28:00,
2013-04-21 22:29:00,40.8,38.1,29.96,West,270,0.0,6.0,90,0.00,,CLR,0.19,VWS V14.01,2013-04-22 03:29:00,
2013-04-21 22:30:00,40.8,38.1,29.97,West,270,1.0,6.0,90,0.00,,CLR,0.19,VWS V14.01,2013-04-22 03:30:00,
2013-04-21 22:31:00,40.6,37.9,29.97,West,271,7.0,7.0,90,0.00,,CLR,0.19,VWS V14.01,2013-04-22 03:31:00,
2013-04-21 22:32:00,40.6,37.9,29.97,West,280,1.0,7.0,90,0.00,,CLR,0.19,VWS V14.01,2013-04-22 03:32:00,
2013-04-21 22:33:00,40.6,37.9,29.97,West,276,2.0,7.0,90,0.00,,CLR,0.19,VWS V14.01,2013-04-22 03:33:00,
2013-04-21 22:34:00,40.6,37.9,29.97,West,274,1.0,7.0,90,0.00,,CLR,0.19,VWS V14.01,2013-04-22 03:34:00,
2013-04-21 22:35:00,40.6,37.9,29.97,West,274,0.0,7.0,90,0.00,,CLR,0.19,VWS V14.01,2013-04-22 03:35:00,
2013-04-21 22:36:00,40.6,37.9,29.97,West,276,0.0,7.0,90,0.00,,CLR,0.19,VWS V14.01,2013-04-22 03:36:00,
2013-04-21 22:37:00,40.6,37.9,29.97,West,270,0.0,7.0,90,0.00,,CLR,0.19,VWS V14.01,2013-04-22 03:37:00,
2013-04-21 22:38:00,40.5,37.8,29.97,West,270,3.0,7.0,90,0.00,,CLR,0.19,VWS V14.01,2013-04-22 03:38:00,
2013-04-21 22:39:00,40.5,37.8,29.97,West,270,2.0,8.0,90,0.00,,CLR,0.19,VWS V14.01,2013-04-22 03:39:00,
2013-04-21 22:40:00,40.5,37.8,29.97,West,264,0.0,8.0,90,0.00,,CLR,0.19,VWS V14.01,2013-04-22 03:40:00,
2013-04-21 22:41:00,40.5,37.8,29.97,West,267,0.0,8.0,90,0.00,,CLR,0.19,VWS V14.01,2013-04-22 03:41:00,
2013-04-21 22:42:00,40.3,37.6,29.97,West,270,1.0,8.0,90,0.00,,CLR,0.19,VWS V14.01,2013-04-22 03:42:00,
2013-04-21 22:43:00,40.3,37.6,29.97,West,278,1.0,8.0,90,0.00,,CLR,0.19,VWS V14.01,2013-04-22 03:43:00,
2013-04-21 22:44:00,40.3,37.6,29.97,West,278,4.0,8.0,90,0.00,,CLR,0.19,VWS V14.01,2013-04-22 03:44:00,
2013-04-21 22:45:00,40.3,37.6,29.97,WNW,283,2.0,8.0,90,0.00,,CLR,0.19,VWS V14.01,2013-04-22 03:45:00,
2013-04-21 22:46:00,40.3,37.6,29.97,West,280,4.0,8.0,90,0.00,,CLR,0.19,VWS V14.01,2013-04-22 03:46:00,
2013-04-21 22:47:00,40.3,37.6,29.97,West,278,1.0,8.0,90,0.00,,CLR,0.19,VWS V14.01,2013-04-22 03:47:00,
2013-04-21 22:48:00,40.3,37.6,29.97,West,280,4.0,8.0,90,0.00,,CLR,0.19,VWS V14.01,2013-04-22 03:48:00,
2013-04-21 22:49:00,40.3,37.6,29.97,West,276,0.0,8.0,90,0.00,,CLR,0.19,VWS V14.01,2013-04-22 03:49:00,
2013-04-21 22:50:00,40.3,37.6,29.97,West,274,3.0,8.0,90,0.00,,CLR,0.19,VWS V14.01,2013-04-22 03:50:00,
2013-04-21 22:51:00,40.2,37.5,29.97,West,276,2.0,8.0,90,0.00,,CLR,0.19,VWS V14.01,2013-04-22 03:51:00,
2013-04-21 22:52:00,40.2,37.5,29.97,West,276,1.0,8.0,90,0.00,,CLR,0.19,VWS V14.01,2013-04-22 03:52:00,
2013-04-21 22:53:00,40.2,37.5,29.97,West,276,0.0,8.0,90,0.00,,CLR,0.19,VWS V14.01,2013-04-22 03:53:00,
2013-04-21 22:54:00,40.2,37.5,29.97,West,276,0.0,8.0,90,0.00,,CLR,0.19,VWS V14.01,2013-04-22 03:54:00,
2013-04-21 22:55:00,40.2,37.5,29.97,West,276,1.0,8.0,90,0.00,,CLR,0.19,VWS V14.01,2013-04-22 03:55:00,
2013-04-21 22:56:00,40.2,37.5,29.97,West,276,1.0,8.0,90,0.00,,CLR,0.19,VWS V14.01,2013-04-22 03:56:00,
2013-04-21 22:57:00,40.2,37.5,29.97,West,276,1.0,8.0,90,0.00,,CLR,0.19,VWS V14.01,2013-04-22 03:57:00,
2013-04-21 22:58:00,40.2,37.5,29.97,West,276,0.0,8.0,90,0.00,,CLR,0.19,VWS V14.01,2013-04-22 03:58:00,
2013-04-21 22:59:00,40.2,37.5,29.97,West,276,1.0,8.0,90,0.00,,CLR,0.19,VWS V14.01,2013-04-22 03:59:00,
2013-04-21 23:00:00,40.2,37.5,29.97,West,276,0.0,8.0,90,0.00,,CLR,0.19,VWS V14.01,2013-04-22 04:00:00,
2013-04-21 23:01:00,40.2,37.5,29.97,West,276,0.0,1.0,90,0.00,,CLR,0.19,VWS V14.01,2013-04-22 04:01:00,
2013-04-21 23:02:00,40.1,37.4,29.97,West,276,0.0,2.0,90,0.00,,CLR,0.19,VWS V14.01,2013-04-22 04:02:00,
2013-04-21 23:03:00,40.1,37.7,29.97,West,276,1.0,2.0,91,0.00,,CLR,0.19,VWS V14.01,2013-04-22 04:03:00,
2013-04-21 23:04:00,40.1,37.7,29.97,West,276,0.0,2.0,91,0.00,,CLR,0.19,VWS V14.01,2013-04-22 04:04:00,
2013-04-21 23:05:00,40.1,37.7,29.97,West,276,1.0,2.0,91,0.00,,CLR,0.19,VWS V14.01,2013-04-22 04:05:00,
2013-04-21 23:06:00,40.1,37.7,29.97,West,276,1.0,2.0,91,0.00,,CLR,0.19,VWS V14.01,2013-04-22 04:06:00,
2013-04-21 23:07:00,40.1,37.7,29.97,West,276,0.0,2.0,91,0.00,,CLR,0.19,VWS V14.01,2013-04-22 04:07:00,
2013-04-21 23:08:00,40.1,37.7,29.97,West,276,0.0,2.0,91,0.00,,CLR,0.19,VWS V14.01,2013-04-22 04:08:00,
2013-04-21 23:09:00,40.1,37.7,29.97,West,276,1.0,2.0,91,0.00,,CLR,0.19,VWS V14.01,2013-04-22 04:09:00,
2013-04-21 23:10:00,40.1,37.7,29.97,West,276,0.0,2.0,91,0.00,,CLR,0.19,VWS V14.01,2013-04-22 04:10:00,
2013-04-21 23:11:00,40.1,37.7,29.97,West,276,0.0,2.0,91,0.00,,CLR,0.19,VWS V14.01,2013-04-22 04:11:00,
2013-04-21 23:12:00,40.1,37.7,29.97,West,276,0.0,2.0,91,0.00,,CLR,0.19,VWS V14.01,2013-04-22 04:12:00,
2013-04-21 23:13:00,40.1,37.7,29.97,West,276,0.0,3.0,91,0.00,,CLR,0.19,VWS V14.01,2013-04-22 04:13:00,
2013-04-21 23:14:00,40.1,37.7,29.97,West,277,0.0,3.0,91,0.00,,CLR,0.19,VWS V14.01,2013-04-22 04:14:00,
2013-04-21 23:15:00,40.1,37.7,29.97,West,277,1.0,3.0,91,0.00,,CLR,0.19,VWS V14.01,2013-04-22 04:15:00,
2013-04-21 23:16:00,40.1,37.7,29.97,West,277,0.0,3.0,91,0.00,,CLR,0.19,VWS V14.01,2013-04-22 04:16:00,
2013-04-21 23:17:00,40.1,37.7,29.97,West,277,0.0,3.0,91,0.00,,CLR,0.19,VWS V14.01,2013-04-22 04:17:00,
2013-04-21 23:18:00,40.1,37.7,29.97,West,277,0.0,3.0,91,0.00,,CLR,0.19,VWS V14.01,2013-04-22 04:18:00,
2013-04-21 23:19:00,40.1,37.7,29.97,West,277,1.0,3.0,91,0.00,,CLR,0.19,VWS V14.01,2013-04-22 04:19:00,
2013-04-21 23:20:00,40.1,37.7,29.97,West,277,0.0,3.0,91,0.00,,CLR,0.19,VWS V14.01,2013-04-22 04:20:00,
2013-04-21 23:21:00,39.9,37.5,29.97,West,281,2.0,3.0,91,0.00,,CLR,0.19,VWS V14.01,2013-04-22 04:21:00,
2013-04-21 23:22:00,39.9,37.5,29.97,WNW,288,0.0,5.0,91,0.00,,CLR,0.19,VWS V14.01,2013-04-22 04:22:00,
2013-04-21 23:23:00,39.9,37.5,29.97,WNW,288,0.0,5.0,91,0.00,,CLR,0.19,VWS V14.01,2013-04-22 04:23:00,
2013-04-21 23:24:00,39.9,37.5,29.97,WNW,288,0.0,5.0,91,0.00,,CLR,0.19,VWS V14.01,2013-04-22 04:24:00,
2013-04-21 23:25:00,39.9,37.5,29.97,WNW,288,0.0,5.0,91,0.00,,CLR,0.19,VWS V14.01,2013-04-22 04:25:00,
2013-04-21 23:26:00,39.9,37.5,29.97,WNW,288,1.0,5.0,91,0.00,,CLR,0.19,VWS V14.01,2013-04-22 04:26:00,
2013-04-21 23:27:00,39.9,37.5,29.97,WNW,288,1.0,5.0,91,0.00,,CLR,0.19,VWS V14.01,2013-04-22 04:27:00,
2013-04-21 23:28:00,39.9,37.5,29.97,WNW,288,1.0,5.0,91,0.00,,CLR,0.19,VWS V14.01,2013-04-22 04:28:00,
2013-04-21 23:29:00,39.9,37.5,29.97,WNW,288,0.0,5.0,91,0.00,,CLR,0.19,VWS V14.01,2013-04-22 04:29:00,
2013-04-21 23:30:00,39.8,37.4,29.97,WNW,288,1.0,5.0,91,0.00,,CLR,0.19,VWS V14.01,2013-04-22 04:30:00,
2013-04-21 23:31:00,39.8,37.4,29.97,WNW,288,1.0,3.0,91,0.00,,CLR,0.19,VWS V14.01,2013-04-22 04:31:00,
2013-04-21 23:32:00,39.8,37.4,29.97,WNW,288,0.0,3.0,91,0.00,,CLR,0.19,VWS V14.01,2013-04-22 04:32:00,
2013-04-21 23:33:00,39.8,37.1,29.97,WNW,288,1.0,3.0,90,0.00,,CLR,0.19,VWS V14.01,2013-04-22 04:33:00,
2013-04-21 23:34:00,39.8,37.1,29.97,WNW,288,1.0,3.0,90,0.00,,CLR,0.19,VWS V14.01,2013-04-22 04:34:00,
2013-04-21 23:35:00,39.8,37.1,29.97,WNW,288,0.0,3.0,90,0.00,,CLR,0.19,VWS V14.01,2013-04-22 04:35:00,
2013-04-21 23:36:00,39.8,37.4,29.97,WNW,288,0.0,3.0,91,0.00,,CLR,0.19,VWS V14.01,2013-04-22 04:36:00,
2013-04-21 23:37:00,39.8,37.1,29.97,WNW,288,0.0,3.0,90,0.00,,CLR,0.19,VWS V14.01,2013-04-22 04:37:00,
2013-04-21 23:38:00,39.8,37.1,29.97,WNW,288,0.0,3.0,90,0.00,,CLR,0.19,VWS V14.01,2013-04-22 04:38:00,
2013-04-21 23:39:00,39.8,37.4,29.97,WNW,288,0.0,3.0,91,0.00,,CLR,0.19,VWS V14.01,2013-04-22 04:39:00,
2013-04-21 23:40:00,39.8,37.4,29.97,WNW,288,0.0,3.0,91,0.00,,CLR,0.19,VWS V14.01,2013-04-22 04:40:00,
2013-04-21 23:41:00,39.8,37.4,29.97,WNW,288,1.0,3.0,91,0.00,,CLR,0.19,VWS V14.01,2013-04-22 04:41:00,
2013-04-21 23:42:00,39.8,37.4,29.97,WNW,288,0.0,3.0,91,0.00,,CLR,0.19,VWS V14.01,2013-04-22 04:42:00,
2013-04-21 23:43:00,39.8,37.4,29.97,West,281,2.0,3.0,91,0.00,,CLR,0.19,VWS V14.01,2013-04-22 04:43:00,
2013-04-21 23:44:00,39.8,37.4,29.97,West,281,0.0,4.0,91,0.00,,CLR,0.19,VWS V14.01,2013-04-22 04:44:00,
2013-04-21 23:45:00,39.8,37.4,29.98,West,281,0.0,4.0,91,0.00,,CLR,0.19,VWS V14.01,2013-04-22 04:45:00,
2013-04-21 23:46:00,39.8,37.4,29.98,West,281,0.0,4.0,91,0.00,,CLR,0.19,VWS V14.01,2013-04-22 04:46:00,
2013-04-21 23:47:00,39.8,37.1,29.98,West,281,0.0,4.0,90,0.00,,CLR,0.19,VWS V14.01,2013-04-22 04:47:00,
2013-04-21 23:48:00,39.8,37.1,29.98,West,281,0.0,4.0,90,0.00,,CLR,0.19,VWS V14.01,2013-04-22 04:48:00,
2013-04-21 23:49:00,39.8,37.1,29.98,West,281,0.0,4.0,90,0.00,,CLR,0.19,VWS V14.01,2013-04-22 04:49:00,
2013-04-21 23:50:00,39.8,37.1,29.98,West,281,0.0,4.0,90,0.00,,CLR,0.19,VWS V14.01,2013-04-22 04:50:00,
2013-04-21 23:51:00,39.8,37.1,29.98,West,281,0.0,4.0,90,0.00,,CLR,0.19,VWS V14.01,2013-04-22 04:51:00,
2013-04-21 23:52:00,39.8,37.1,29.98,West,281,0.0,4.0,90,0.00,,CLR,0.19,VWS V14.01,2013-04-22 04:52:00,
2013-04-21 23:53:00,39.8,37.4,29.98,West,281,0.0,4.0,91,0.00,,CLR,0.19,VWS V14.01,2013-04-22 04:53:00,
2013-04-21 23:54:00,39.8,37.4,29.98,West,281,0.0,4.0,91,0.00,,CLR,0.19,VWS V14.01,2013-04-22 04:54:00,
2013-04-21 23:55:00,39.6,37.2,29.98,West,281,0.0,4.0,91,0.00,,CLR,0.19,VWS V14.01,2013-04-22 04:55:00,
2013-04-21 23:56:00,39.6,37.2,29.98,West,281,0.0,4.0,91,0.00,,CLR,0.19,VWS V14.01,2013-04-22 04:56:00,
2013-04-21 23:57:00,39.6,37.2,29.98,West,281,0.0,4.0,91,0.00,,CLR,0.19,VWS V14.01,2013-04-22 04:57:00,
2013-04-21 23:58:00,39.6,37.2,29.98,West,281,0.0,4.0,91,0.00,,CLR,0.19,VWS V14.01,2013-04-22 04:58:00,
2013-04-21 23:59:00,39.6,37.2,29.98,West,281,0.0,4.0,91,0.00,,CLR,0.19,VWS V14.01,2013-04-22 04:59:00,